     2              OBSERVATION DATA    GPS                 RINEX VERSION / TYPE
ASRINEXO V2.2.0 UX USGS 28-MAR-94 15:16                     PGM / RUN BY / DATE
                                                            COMMENT
Original Marker Name: wlr3 Willow_No3_1984_NCER             COMMENT
Campaign Name: gorlock willow tie                           COMMENT
4-Character Station Name: WLR3                              COMMENT
6-Character Antenna Code: ASHP12                            COMMENT
Vertical Measurement Point: EGP                             COMMENT
Vertical Offset to Rinex Ref. Point: 0.0593                 COMMENT
Radial Measurement Point: EGP                               COMMENT
Radial Offset to Rinex Ref. Point: 0.1425                   COMMENT
Antenna Height from Field Measurement: 1.1660 m             COMMENT
Additional Antenna Identification Info.:                    COMMENT
Ashtech L1/L2 Revision B (700228DE)                         COMMENT
Original XYZ: -2372562.7700 -4618140.8800 3695033.0400      COMMENT
New XYZ position is based on association with SCEC monument COMMENT
E1F4E9F6+0011. Position of that monument is believed to be  COMMENT
valid to within 1 m horizontally; vertical accuracy         COMMENT
should be no worse than 3-times this value.                 COMMENT
                                                            COMMENT
Revised Rinex header created by UCSD GPS archive for        COMMENT
GSAC on 06-Dec-2001 (2001:340) 17:44:25 GMT                 COMMENT
For assistance contact dagnew@ucsd.edu                      COMMENT
or anderson@python.ucsd.edu                                 COMMENT
                                                            COMMENT
WILLOW NO 3 1984                                            MARKER NAME
                                                            MARKER NUMBER
CHS US GEOLOGICAL SURVEY                                    OBSERVER / AGENCY
765 ASHTECH L-XII 7A                                        REC # / TYPE / VERS
1058 ASHTECH GEODETIC P                                     ANT # / TYPE
 -2372604.4437 -4618154.2879  3695042.6116                  APPROX POSITION XYZ
        1.0980        0.0000        0.0000                  ANTENNA: DELTA H/E/N
     1     2     0                                          WAVELENGTH FACT L1/2
     3    C1    L1    L2                                    # / TYPES OF OBSERV
    30                                                      INTERVAL
  1994     3    22    15    45    0.000000                  TIME OF FIRST OBS
  1994     3    22    23    58   60.000000                  TIME OF LAST OBS
                                                            END OF HEADER
 94  3 22 15 45  0.0000000  0  1 14
  20455142.500    -3805416.49618    -15865.752 5
 94  3 22 15 45 30.0000000  0  1 14
  20453234.291    -3815424.522 8    -23664.212 7
 94  3 22 15 46  0.0000000  0  2 18 14
  23827073.340    18339198.87916   -148892.405 1
  20451330.189    -3825440.449 8    -31468.855 9
 94  3 22 15 46 30.0000000  0  3 22 18 14
  21790953.177     9798747.12818   -103262.965
  23812131.954    18260698.206 5   -210061.737 1
  20449451.389    -3835317.374 8    -39165.173 9
 94  3 22 15 47  0.0000000  0  4 22 18 29 14
  21782618.407     9754938.929 8   -137399.696
  23797148.207    18181938.728 6   -271432.753 1
  21776682.516    18047426.04718   -102327.905
  20447616.120    -3844954.038 8    -46674.274 9
 94  3 22 15 47 30.0000000  0  5 25 22 18 29 14
  23154044.039     -552156.28416    223754.375
  21774340.778     9711459.564 8   -171275.809 2
  23782120.601    18102998.170 6   -332944.858 2
  21768008.471    18001844.823 8   -137843.301
  20445839.130    -3854291.140 8    -53949.954 9
 94  3 22 15 48  0.0000000  0  6 25 22 15 18 29 14
  23170466.010     -465814.321 6    291031.795 1
  21766137.407     9668333.015 7   -204880.890 4
  24032551.481     8436642.87615    208006.186
  23767076.625    18023897.966 6   -394581.358 2
  21759321.235    17956192.128 8   -173417.801
  20444124.317    -3863303.325 8    -60972.446 9
 94  3 22 15 48 30.0000000  0  6 25 22 15 18 29 14
  23186897.965     -379510.814 6    358281.244 2
  21757999.211     9625573.407 7   -238200.046 4
  24051320.677     8535271.932 5    284860.955 1
  23752002.911    17944689.952 6   -456301.868 2
  21750621.708    17910490.554 8   -209023.458 2
  20442483.163    -3871942.485 8    -67704.260 9
 94  3 22 15 49  0.0000000  0  6 25 22 15 18 29 14
  23203314.000     -293229.695 6    425513.158 2
  21749929.187     9583174.067 7   -271238.489 4
  24070074.314     8633804.208 5    361639.166 1
  23736905.782    17865390.549 6   -518093.546 2
  21741921.461    17864758.149 8   -244659.091 3
  20440915.848    -3880185.064 8    -74127.072 9
 94  3 22 15 49 30.0000000  0  6 25 22 15 18 29 14
  23219731.354     -206941.821 6    492750.410 3
  21741932.643     9541147.906 8   -303986.112 5
  24088803.458     8732252.019 5    438351.695 1
  23721798.131    17785990.498 6   -579963.722 2
  21733215.458    17819006.054 8   -280310.048 5
  20439427.199    -3888005.845 8    -80221.191 9
 94  3 22 15 50  0.0000000  0  6 25 22 15 18 29 14
  23236154.855     -120648.598 6    559991.824 4
  21734011.947     9499519.344 7   -336423.943 5
  24107524.868     8830623.700 5    515004.798 2
  23706671.233    17706501.854 6   -641902.902 2
  21724507.446    17773248.438 8   -315965.330 5
  20438021.712    -3895376.289 8    -85964.409 9
 94  3 22 15 50 30.0000000  0  6 25 22 15 18 29 14
  23252573.768      -34346.403 6    627240.216 4
  21726166.168     9458290.213 8   -368550.526 5
  24126226.101     8928919.721 5    591598.960 2
  23691531.414    17626933.984 6   -703903.820 2
  21715800.604    17727499.036 8   -351614.222 6
  20436707.152    -3902286.126 8    -91348.716 9
 94  3 22 15 51  0.0000000  0  6 25 22 15 18 29 14
  23269003.084       51964.120 6    694495.109 4
  21718394.169     9417467.144 7   -400360.700 5
  24144919.750     9027135.157 5    668130.346 2
  23676375.646    17547281.497 6   -765970.659 2
  21707098.738    17681759.852 8   -387255.148 6
  20435474.945    -3908751.049 8    -96386.328 9
 94  3 22 15 51 30.0000000  0  6 25 22 15 18 29 14
  23285431.141      138306.424 6    761774.743 4
  21710713.995     9377088.739 8   -431824.376 5
  24163594.632     9125278.682 5    744605.722 2
  23661195.265    17467565.510 6   -828087.022 2
  21698397.532    17636040.614 8   -422880.536 7
  20434332.046    -3914762.740 8   -101070.777 9
 94  3 22 15 52  0.0000000  0  6 25 22 15 18 29 14
  23301869.451      224674.562 6    829074.524 4
  21703117.165     9337165.545 8   -462933.338 6
  24182254.703     9223349.682 5    821024.597 2
  23646025.467    17387805.759 6   -890237.413 3
  21689705.949    17590352.506 8   -458481.667 7
  20433271.261    -3920329.530 8   -105408.563 9
 94  3 22 15 52 30.0000000  0  6 25 22 15 18 29 14
  23318307.012      311080.574 6    896403.826 4
  21695607.424     9297704.262 8   -493682.373 6
  24200903.083     9321348.508 5    897387.131 2
  23630839.810    17308009.014 6   -952416.711 3
  21681018.084    17544699.547 8   -494055.407 8
  20432298.494    -3925464.601 8   -109409.935 9
 94  3 22 15 53  0.0000000  0  6 25 22 15 18 29 14
  23334765.228      397540.216 6    963774.883 4
  21688190.618     9258738.602 7   -524045.223 6
  24219552.123     9419290.775 5    973705.668 2
  23615653.523    17228193.138 6  -1014610.868 3
  21672339.332    17499097.547 7   -529589.436 8
  20431403.314    -3930154.993 8   -113064.775 9
 94  3 22 15 53 30.0000000  0  6 25 22 15 18 29 14
  23351225.693      484057.811 6   1031191.106 4
  21680874.003     9220270.886 7   -554020.076 6
  24238168.725     9517186.571 5   1049987.986 2
  23600460.251    17148355.674 6  -1076821.836 3
  21663676.439    17453582.304 7   -565055.871 8
  20430596.512    -3934388.730 8   -116363.827 9
 94  3 22 15 54  0.0000000  0  6 25 22 15 18 29 14
  23367703.815      570635.799 6   1098654.415 4
  21673649.844     9182308.745 7   -583600.961 6
  24256793.122     9615054.748 5   1126248.757 2
  23585266.770    17068518.464 6  -1139032.664 2
  21655039.898    17408192.089 7   -600424.889 9
  20429884.235    -3938145.567 8   -119291.238 9
 94  3 22 15 54 30.0000000  0  6 25 22 15 18 29 14
  23384191.561      657296.297 6   1166181.984 4
  21666522.189     9144862.203 7   -612780.064 6
  24275418.477     9712909.438 6   1202499.049 2
  23570082.162    16988697.569 6  -1201230.735 2
  21646428.329    17362936.563 7   -635688.951 9
  20429264.265    -3941408.019 8   -121833.434 9
 94  3 22 15 55  0.0000000  0  6 25 22 15 18 29 14
  23400698.613      744042.805 6   1233776.592 4
  21659492.116     9107929.350 7   -641558.886 6
  24294040.386     9810753.366 6   1278740.937 2
  23554892.697    16908884.902 6  -1263422.375 2
  21637841.884    17317818.146 7   -670846.162 9
  20428739.598    -3944160.801 8   -123978.470 9
 94  3 22 15 55 30.0000000  0  6 25 22 15 18 29 14
  23417220.865      830867.664 6   1301432.230 4
  21652562.863     9071511.901 7   -669936.103 6
  24312654.919     9908590.367 5   1354977.471 2
  23539708.719    16829097.220 6  -1325594.630 2
  21629284.668    17272849.488 7   -705886.699 9
  20428314.162    -3946389.381 8   -125715.048 9
 94  3 22 15 56  0.0000000  0  6 25 22 15 18 29 14
  23433758.437      917772.262 6   1369150.023 4
  21645736.768     9035630.231 8   -697895.846 6
  24331270.922    10006418.680 5   1431207.167 2
  23524537.811    16749359.434 6  -1387727.973 2
  21620749.307    17228003.591 7   -740831.555 9
  20427989.247    -3948085.576 8   -127036.783 9
 94  3 22 15 56 30.0000000  0  6 25 22 15 18 29 14
  23450310.788     1004757.581 6   1436930.754 4
  21639011.494     9000297.151 8   -725428.106 6
  24349883.416    10104230.764 6   1507424.287 2
  23509370.292    16669673.425 6  -1449820.933 2
  21612235.231    17183256.902 7   -775699.105 9
  20427771.808    -3949248.778 8   -127943.201 9
 94  3 22 15 57  0.0000000  0  6 25 22 15 18 29 14
  23466877.619     1091813.703 6   1504766.592 4
  21632395.164     8965530.253 8   -752519.179 7
  24368492.074    10202026.305 5   1583628.436 2
  23494217.192    16590041.807 6  -1511871.566 2
  21603740.672    17138609.977 8   -810488.922 9
  20427649.463    -3949868.437 8   -128426.073 9
 94  3 22 15 57 30.0000000  0  6 25 22 15 18 29 14
  23483455.332     1178931.831 6   1572650.771 4
  21625890.178     8931341.065 8   -779160.099 7
  24387104.329    10299808.751 6   1659822.434 2
  23479072.876    16510482.977 6  -1573865.433 2
  21595266.018    17094063.834 8   -845200.210 9
  20427641.248    -3949929.555 9   -128473.726 9
 94  3 22 15 58  0.0000000  0  6 25 22 15 18 29 14
  23500048.515     1266123.569 6   1640592.329 4
  21619493.146     8897730.969 8   -805349.774 7
  24405703.663    10397570.839 5   1736000.569 2
  23463949.696    16430974.636 6  -1635819.912 2
  21586804.496    17049595.681 7   -879850.718 9
  20427735.923    -3949440.971 9   -128093.030 9
 94  3 22 15 58 30.0000000  0  6 25 22 15 18 29 14
  23516650.602     1353385.482 6   1708588.465 3
  21613206.858     8864683.605 8   -831100.971 7
  24424304.826    10495310.464 5   1812161.186 2
  23448821.958    16351493.352 6  -1697753.397 2
  21578354.666    17005219.005 7   -914429.943 9
  20427932.347    -3948407.731 9   -127287.942 9
 94  3 22 15 59  0.0000000  0  6 25 22 15 18 29 14
  23533272.714     1440722.688 6   1776643.344 3
  21607021.840     8832187.026 8   -856422.969 7
  24442903.140    10593025.297 5   1888302.490 2
  23433700.846    16272032.970 6  -1759670.553 2
  21569932.626    16960954.524 7   -948921.757 9
  20428231.420    -3946827.606 9   -126056.701 8
 94  3 22 15 59 30.0000000  0  6 25 22 15 18 29 14
  23549911.376     1528147.192 6   1844766.235 3
  21600946.756     8800242.754 8   -881314.625 7
  24461489.313    10690719.339 5   1964427.550 2
  23418590.437    16192599.372 6  -1821566.775 2
  21561534.121    16916821.486 7   -983311.164 9
  20428638.118    -3944693.480 9   -124393.788 8
 94  3 22 16  0  0.0000000  0  6 25 22 15 18 29 14
  23566567.815     1615665.554 6   1912962.305 3
  21594968.954     8768848.727 8   -905777.510 7
  24480070.660    10788386.122 5   2040531.440 2
  23403479.278    16113189.616 6  -1883444.519 2
  21553164.755    16872825.094 8  -1017594.077 9
  20429143.418    -3942019.838 9   -122310.472 8
 94  3 22 16  0 30.0000000  0  6 25 22 15 18 29 14
  23583234.207     1703274.451 6   1981228.935 3
  21589098.028     8737998.559 8   -929816.592 7
  24498653.415    10886023.267 5   2116612.160 2
  23388374.745    16033820.108 6  -1945290.857 2
  21544819.282    16828977.509 8  -1051761.035 9
  20429758.233    -3938792.136 9   -119795.389 8
 94  3 22 16  1  0.0000000  0  6 25 22 15 18 29 14
  23599920.715     1790968.693 6   2049562.022 3
  21583329.932     8707694.996 8   -953429.756 7
  24517228.196    10983618.908 5   2192660.623 2
  23373276.118    15954496.917 6  -2007101.103 2
  21536503.519    16785259.801 8  -1085826.759 9
  20430480.703    -3935003.104 9   -116842.923 8
 94  3 22 16  1 30.0000000  0  6 25 22 15 18 29 14
  23616628.119     1878742.305 6   2117956.921 3
  21577668.261     8677939.762 8   -976615.667 7
  24535788.677    11081173.919 5   2268677.362 2
  23358190.111    15875224.339 6  -2068871.946 2
  21528207.032    16741661.899 8  -1119799.169 9
  20431310.858    -3930648.470 9   -113449.744 9
 94  3 22 16  2  0.0000000  0  6 25 22 15 18 29 14
  23633346.345     1966596.698 6   2186414.848 3
  21572111.878     8648738.243 7   -999370.081 7
  24554345.710    11178685.186 5   2344660.055 2
  23343119.245    15796005.467 6  -2130600.938 2
  21519928.713    16698182.760 8  -1153679.014 9
  20432247.439    -3925726.239 9   -109614.260 9
 94  3 22 16  2 30.0000000  0  6 25 22 15 18 29 14
  23650074.404     2054517.384 6   2254924.364 3
  21566663.899     8620093.774 8  -1021690.461 7
  24572892.760    11276148.084 5   2420604.974 2
  23328047.509    15716830.936 6  -2192295.318 2
  21511679.534    16654817.850 8  -1187469.856 9
  20433292.726    -3920237.251 9   -105337.148 9
 94  3 22 16  3  0.0000000  0  6 25 22 15 18 29 14
  23666816.284     2142492.197 6   2323476.094 3
  21561321.028     8592019.729 7  -1043566.327 7
  24591430.877    11373563.422 5   2496512.913 2
  23312994.660    15637703.920 6  -2253952.732 2
  21503451.220    16611588.860 8  -1221154.794 9
  20434438.623    -3914202.093 9   -100634.459 9
 94  3 22 16  3 30.0000000  0  6 25 22 15 18 29 14
  23683568.956     2230517.725 6   2392067.274 2
  21556086.022     8564515.069 7  -1064998.521 6
  24609958.140    11470929.009 5   2572381.999 2
  23297947.806    15558626.015 6  -2315571.912 2
  21495256.394    16568519.635 8  -1254715.238 9
  20435689.716    -3907641.143 8    -95522.063 9
 94  3 22 16  4  0.0000000  0  6 25 22 15 18 29 14
  23700325.526     2318595.725 6   2460699.416 2
  21550963.708     8537599.238 7  -1085971.888 6
  24628478.869    11568248.351 5   2648215.174 2
  23282907.728    15479597.252 6  -2377152.702 2
  21487092.475    16525619.179 9  -1288144.159 9
  20437035.185    -3900553.175 8    -89998.983 9
 94  3 22 16  4 30.0000000  0  6 25 22 15 18 29 14
  23717098.075     2406722.150 6   2529369.216 2
  21545951.808     8511265.058 7  -1106492.035 6
  24646984.548    11665515.783 4   2724007.835 2
  23267877.244    15400615.065 6  -2438697.231 2
  21478961.654    16482882.026 9  -1321445.851 9
  20438483.692    -3892945.944 8    -84071.299 9
 94  3 22 16  5  0.0000000  0  6 25 22 15 18 29 14
  23733879.347     2494912.765 6   2598089.115 2
  21541055.927     8485515.680 7  -1126556.460 6
  24665482.282    11762731.944 5   2799760.563 2
  23252859.890    15321693.613 6  -2500194.464 2
  21470858.954    16440309.351 9  -1354619.358 9
  20440033.469    -3884809.620 8    -77731.329 9
 94  3 22 16  5 30.0000000  0  6 25 22 15 18 29 14
  23750676.359     2583171.448 6   2666862.038 2
  21536262.546     8460348.255 7  -1146167.433 6
  24683975.160    11859890.928 5   2875468.744 2
  23237850.391    15242822.333 7  -2561652.535 2
  21462783.894    16397871.555 9  -1387687.765 8
  20441685.566    -3876122.391 8    -70962.079 9
 94  3 22 16  6  0.0000000  0  6 25 22 15 18 29 14
  23767486.801     2671498.499 6   2735688.189 2
  21531586.623     8435764.695 7  -1165323.465 6
  24702456.076    11956992.436 5   2951132.149 2
  23222852.614    15163997.795 7  -2623074.258 2
  21454727.721    16355551.953 9  -1420664.090 8
  20443448.315    -3866866.897 8    -63750.041 9
 94  3 22 16  6 30.0000000  0  6 25 22 15 18 29 14
  23784303.269     2759890.446 7   2804564.962 2
  21527019.914     8411757.193 7  -1184030.626 6
  24720923.531    12054030.823 5   3026746.275 1
  23207860.263    15085228.293 6  -2684453.080 2
  21446700.358    16313358.572 9  -1453542.048 8
  20445318.870    -3857034.741 8    -56088.648 9
 94  3 22 16  7  0.0000000  0  6 25 22 15 18 29 14
  23801135.297     2848340.106 6   2873486.636 2
  21522560.891     8388335.577 8  -1202281.238 6
  24739370.330    12151011.238 5   3102315.359 2
  23192880.923    15006516.458 6  -2745786.976 2
  21438696.829    16271306.974 9  -1486309.538 8
  20447300.019    -3846616.479 8    -47970.516 9
 94  3 22 16  7 30.0000000  0  6 25 22 15 18 29 14
  23817974.849     2936838.884 6   2942446.635 2
  21518214.650     8365495.734 8  -1220078.525 6
  24757821.117    12247927.209 5   3177834.166 1
  23177915.013    14927850.634 6  -2807085.016 2
  21430724.268    16229405.736 8  -1518959.863 8
  20449394.399    -3835623.538 8    -39404.618 9
 94  3 22 16  8  0.0000000  0  6 25 22 15 18 29 14
  23834825.074     3025385.141 6   3011443.638 2
  21513978.643     8343233.791 8  -1237425.513 6
  24776243.244    12344773.824 5   3253298.998 1
  23162951.083    14849234.957 7  -2868343.987 2
  21422783.426    16187670.255 8  -1551481.018 8
  20451587.561    -3824068.343 7    -30400.593 9
 94  3 22 16  8 30.0000000  0  6 25 22 15 18 29 14
  23851686.241     3113985.047 6   3080482.377 2
  21509856.196     8321558.962 8  -1254314.996 6
  24794661.953    12441550.773 4   3328709.505 1
  23148002.441    14770679.371 6  -2929556.106 2
  21414877.719    16146117.665 8  -1583859.662 8
  20453895.932    -3811957.016 7    -20963.220 9
 94  3 22 16  9  0.0000000  0  6 25 22 15 18 29 14
  23868561.109     3202654.070 6   3149575.042 2
  21505843.175     8300471.927 8  -1270746.442 7
  24813060.516    12538253.456 4   3404062.035 1
  23133065.672    14692188.418 7  -2990717.919 2
  21406998.363    16104731.038 8  -1616108.982 8
  20456305.095    -3799305.220 7    -11104.688 9
 94  3 22 16  9 30.0000000  0  6 25 22 15 18 29 14
  23885452.855     3291406.255 6   3218732.454 2
  21501939.277     8279976.837 9  -1286716.657 7
  24831450.535    12634881.237 4   3479356.257 1
  23118146.230    14613766.913 7  -3051825.574 2
  21399152.525    16063493.599 8  -1648242.050 8
  20458817.056    -3786104.186 7      -818.183 9
 94  3 22 16 10  0.0000000  0  6 25 22 15 18 29 14
  23902349.158     3380230.447 6   3287946.044 2
  21498151.130     8260074.968 9  -1302224.608 7
  24849832.459    12731431.206 5   3554589.945 2
  23103235.183    14535421.907 6  -3112873.602 3
  21391332.619    16022388.697 8  -1680271.853 8
  20461436.043    -3772347.598 8      9901.227 9
 94  3 22 16 10 30.0000000  0  6 25 22 15 18 29 14
  23919264.498     3469114.627 6   3357206.325 2
  21494477.833     8240760.880 8  -1317274.541 7
  24868182.935    12827895.170 4   3629756.460 2
  23088338.826    14457151.358 6  -3173863.677 3
  21383531.869    15981401.239 8  -1712210.139 8
  20464157.289    -3758042.877 8     21047.741 9
 94  3 22 16 11  0.0000000  0  6 25 22 15 18 29 14
  23936189.311     3558059.096 6   3426513.626 2
  21490916.868     8222042.957 8  -1331859.945 7
  24886524.028    12924279.782 4   3704861.233 2
  23073462.195    14378959.042 6  -3234792.730 3
  21375753.664    15940536.068 8  -1744053.170 8
  20466985.711    -3743169.759 9     32637.141 9
 94  3 22 16 11 30.0000000  0  6 25 22 15 18 29 14
  23953127.705     3647043.300 6   3495851.861 2
  21487472.612     8203930.070 8  -1345973.898 7
  24904845.874    13020586.711 4   3779905.531 2
  23058596.896    14300840.185 6  -3295664.595 3
  21368005.228    15899817.761 8  -1775781.711 8
  20469928.144    -3727715.743 9     44679.210 9
 94  3 22 16 12  0.0000000  0  6 25 22 15 18 29 14
  23970062.921     3736056.101 6   3565212.377 2
  21484136.912     8186412.254 8  -1359624.146 7
  24923162.324    13116805.118 4   3854880.766 2
  23043745.927    14222797.002 6  -3356477.487 3
  21360287.251    15859258.934 8  -1807386.005 9
  20472976.313    -3711694.411 9     57163.316 9
 94  3 22 16 12 30.0000000  0  6 25 22 15 18 29 14
  23987007.910     3825100.932 6   3634597.872 2
  21480912.434     8169489.658 8  -1372810.597 7
  24941454.730    13212931.680 4   3929784.415 2
  23028906.620    14144823.371 6  -3417236.127 4
  21352602.521    15818871.836 8  -1838856.490 9
  20476135.766    -3695108.101 9     70087.676 9
 94  3 22 16 13  0.0000000  0  6 25 22 15 18 29 14
  24003958.595     3914179.017 6   3704009.269 2
  21477809.132     8153164.535 8  -1385531.507 7
  24959725.851    13308963.214 4   4004614.028 2
  23014075.587    14066913.342 6  -3477945.280 4
  21344950.738    15778666.327 8  -1870185.479 9
  20479399.517    -3677948.584 9     83458.697 9
 94  3 22 16 13 30.0000000  0  6 25 22 15 18 29 14
  24020911.769     4003272.084 6   3773432.368 2
  21474817.473     8137426.330 8  -1397795.061 7
  24977982.882    13404889.151 4   4079361.429 2
  22999268.718    13989063.214 6  -3538607.695 4
  21337334.001    15738634.728 8  -1901378.942 9
  20482767.595    -3660227.986 9     97266.917 9
 94  3 22 16 14  0.0000000  0  6 25 22 15 18 29 14
  24037874.506     4092394.994 6   3842878.599 2
  21471932.241     8122280.823 8  -1409596.781 7
  24996218.448    13500711.494 4   4154028.027 2
  22984464.217    13911271.821 6  -3599224.375 4
  21329748.832    15698764.716 8  -1932446.499 9
  20486249.595    -3641943.625 9    111514.432 9
 94  3 22 16 14 30.0000000  0  5 25 22 18 29 14
  24054833.225     4181547.745 6   3912348.192 2
  21469163.987     8107732.274 8  -1420933.323 7
  22969670.568    13833531.388 6  -3659801.335 4
  21322193.343    15659056.479 8  -1963388.002 9
  20489836.132    -3623095.024 8    126201.621 9
 94  3 22 16 15  0.0000000  0  5 25 22 18 29 14
  24071811.432     4270741.230 6   3981849.508 2
  21466512.143     8093783.459 8  -1431802.568 7
  22954885.104    13755849.901 6  -3720332.363 4
  21314664.775    15619513.529 8  -1994200.693 9
  20493531.104    -3603680.082 8    141330.111 9
 94  3 22 16 15 30.0000000  0  5 25 22 18 29 14
  24088795.634     4359983.993 6   4051389.201 2
  21463969.003     8080433.762 7  -1442204.935 7
  22940120.415    13678232.386 6  -3780813.552 4
  21307172.152    15580128.479 8  -2024890.373 9
  20497330.913    -3583705.469 8    156894.740 9
 94  3 22 16 16  0.0000000  0  5 25 22 18 29 14
  24105786.191     4449296.640 6   4120983.417 2
  21461542.453     8067682.569 7  -1452140.965 7
  22925361.393    13600678.601 6  -3841245.074 4
  21299704.561    15540893.516 8  -2055463.090 9
  20501235.380    -3563170.086 8    172896.291 9
 94  3 22 16 16 30.0000000  0  5 25 22 18 29 14
  24122799.743     4538668.244 6   4190623.481 2
  21459226.706     8055519.821 7  -1461618.443 7
  22910613.432    13523201.746 6  -3901616.620 4
  21292270.848    15501817.225 8  -2085912.163 9
  20505253.348    -3542076.211 8    189333.065 9
 94  3 22 16 17  0.0000000  0  5 25 22 18 29 14
  24139809.967     4628088.546 6   4260301.578 2
  21457024.671     8043953.742 7  -1470630.981 7
  22895888.466    13445812.149 6  -3961920.214 5
  21284863.156    15462893.144 8  -2116242.632 9
  20509373.546    -3520423.711 8    206205.111 9
 94  3 22 16 17 30.0000000  0  5 25 22 18 29 14
  24156836.260     4717545.834 6   4330008.473 2
  21454944.771     8033001.225 7  -1479165.413 7
  22881178.430    13368516.989 6  -4022150.221 5
  21277486.133    15424128.761 8  -2146448.658 9
  20513604.007    -3498203.873 8    223519.259 9
 94  3 22 16 18  0.0000000  0  5 25 22 18 29 14
  24173859.885     4807013.715 6   4399723.604 2
  21452976.543     8022659.850 7  -1487223.633 7
  22866485.002    13291308.990 6  -4082312.292 5
  21270141.218    15385534.843 8  -2176521.856 9
  20517937.358    -3475425.754 8    241268.424 9
 94  3 22 16 18 30.0000000  0  5 25 22 18 29 14
  24190885.818     4896481.996 6   4469439.096 2
  21451126.194     8012938.752 7  -1494798.509 7
  22851812.859    13214188.553 6  -4142406.155 5
  21262833.267    15347131.091 8  -2206446.876 9
  20522377.704    -3452088.745 8    259453.073 9
 94  3 22 16 19  0.0000000  0  5 25 22 18 29 14
  24207912.471     4985964.729 6   4539165.702 2
  21449393.904     8003844.334 8  -1501885.074 7
  22837152.828    13137149.861 6  -4202436.306 5
  21255561.501    15308922.777 8  -2236219.610 9
  20526928.553    -3428180.855 8    278082.553 9
 94  3 22 16 19 30.0000000  0  5 25 22 18 29 14
  24224946.139     5075478.438 6   4608916.546 2
  21447780.151     7995357.419 8  -1508498.261 6
  22822507.967    13060180.379 6  -4262412.523 5
  21248331.047    15270919.455 8  -2265832.600 9
  20531586.728    -3403698.452 9    297159.714 9
 94  3 22 16 20  0.0000000  0  5 25 22 18 29 14
  24241992.308     5165049.656 6   4678712.167 2
  21446279.060     7987466.176 8  -1514647.278 6
  22807872.848    12983275.103 6  -4322338.717 5
  21241138.756    15233117.659 8  -2295288.567 9
  20536351.450    -3378647.232 9    316680.100 9
 94  3 22 16 20 30.0000000  0  5 25 22 18 29 14
  24259053.167     5254690.724 6   4748562.286 2
  21444888.263     7980167.839 8  -1520334.287 6
  22793250.531    12906439.170 6  -4382210.857 5
  21233978.842    15195493.043 9  -2324606.465 9
  20541228.923    -3353029.449 9    336641.974 9
 94  3 22 16 21  0.0000000  0  5 25 22 18 29 14
  24276117.114     5344387.036 6   4818455.388 2
  21443613.785     7973463.385 8  -1525558.535 6
  22778643.173    12829674.017 6  -4442027.896 4
  21226851.726    15158037.227 9  -2353792.831 9
  20546209.765    -3326845.917 9    357044.684 9
 94  3 22 16 21 30.0000000  0  5 25 22 18 29 14
  24293193.682     5434123.172 6   4888379.551 2
  21442453.828     7967362.315 8  -1530312.595 6
  22764049.726    12752989.800 6  -4501781.832 4
  21219755.249    15120739.945 9  -2382855.668 9
  20551300.631    -3300108.907 9    377878.671 9
 94  3 22 16 22  0.0000000  0  5 25 22 18 29 14
  24310277.055     5523864.906 6   4958308.106 2
  21441410.101     7961878.913 8  -1534585.383 6
  22749474.656    12676400.671 6  -4561461.683 4
  21212685.993    15083588.768 9  -2411804.659 9
  20556493.276    -3272824.891 8    399138.903 9
 94  3 22 16 22 30.0000000  0  5 25 22 18 29 14
  24327349.426     5613579.348 6   5028215.352 2
  21440486.260     7957024.948 8  -1538367.687 6
  22734921.681    12599922.720 7  -4621054.913 4
  21205644.618    15046594.363 9  -2440631.475 9
  20561787.581    -3244982.163 8    420834.519 9
 94  3 22 16 23  0.0000000  0  6 25 22 18 29 19 14
  24344413.553     5703260.228 6   5098096.496 2
  21439680.868     7952798.899 8  -1541660.700 6
  22720393.319    12523545.364 6  -4680569.731 4
  21198635.560    15009767.446 9  -2469327.785 9
  24329207.240    21808621.67315   -187448.661
  20567193.019    -3216580.721 8    442965.497 9
 94  3 22 16 23 30.0000000  0  6 25 22 18 29 19 14
  24361475.731     5792926.696 6   5167966.412 2
  21438997.101     7949196.025 8  -1544468.138 6
  22705871.882    12447271.988 6  -4740003.537 4
  21191657.261    14973101.218 9  -2497898.891 9
  24311769.542    21717006.111 5   -258837.530 1
  20572704.313    -3187622.098 7    465530.606 9
 94  3 22 16 24  0.0000000  0  6 25 22 18 29 19 14
  24378539.228     5882598.559 7   5237840.398 2
  21438425.757     7946217.167 8  -1546789.316 6
  22691379.225    12371097.712 7  -4799360.124 4
  21184714.667    14936610.637 9  -2526333.119 9
  24294377.862    21625588.928 5   -330071.538 1
  20578322.364    -3158100.667 7    488534.302 9
 94  3 22 16 24 30.0000000  0  6 25 22 18 29 19 14
  24395609.861     5972302.638 6   5307739.579 2
  21437977.357     7943852.415 8  -1548631.988 6
  22676899.849    12295010.877 7  -4858648.575 4
  21177807.059    14900300.187 9  -2554626.985 9
  24277020.359    21534371.657 5   -401149.895 1
  20584048.160    -3128011.888 8    511980.071 9
 94  3 22 16 25  0.0000000  0  6 25 22 18 29 19 14
  24412688.138     6062058.520 6   5377679.120 1
  21437643.748     7942089.081 8  -1550006.010 6
  22662434.023    12219005.068 7  -4917873.903 4
  21170926.612    14864163.951 9  -2582785.113 9
  24259694.423    21443345.241 6   -472079.502 1
  20589881.941    -3097357.168 7    535866.826 9
 94  3 22 16 25 30.0000000  0  6 25 22 18 29 19 14
  24429776.518     6151853.145 6   5447648.906 2
  21437422.291     7940921.588 8  -1550915.755 6
  22647980.789    12143083.758 6  -4977033.368 4
  21164089.096    14828215.523 9  -2610796.885 9
  24242402.094    21352495.923 5   -542871.074 1
  20595823.948    -3066132.661 7    560197.574 9
 94  3 22 16 26  0.0000000  0  6 25 22 18 29 19 14
  24446870.504     6241680.641 7   5517644.246 2
  21437311.638     7940347.453 8  -1551363.147 7
  22633556.905    12067251.795 6  -5036123.217 4
  21157288.304    14792477.015 9  -2638645.081 9
  24225147.270    21261824.798 5   -613523.806 1
  20601878.107    -3034331.538 7    584977.644 9
 94  3 22 16 26 30.0000000  0  6 25 22 18 29 19 14
  24463965.059     6331516.001 6   5587645.754 2
  21437311.098     7940359.454 8  -1551353.809 7
  22619142.853    11991507.446 6  -5095144.762 3
  21150527.055    14756948.879 9  -2666329.365 9
  24207931.418    21171321.137 5   -684046.076 2
  20608036.323    -3001958.326 8    610203.498 9
 94  3 22 16 27  0.0000000  0  6 25 22 18 29 19 14
  24481060.574     6421344.470 6   5657641.870 2
  21437428.377     7940966.288 8  -1550880.969 7
  22604750.777    11915856.440 6  -5154093.587 3
  21143803.609    14721629.710 9  -2693850.816 9
  24190750.042    21080995.351 5   -754429.725 2
  20614305.134    -2969026.951 8    635864.283 9
 94  3 22 16 27 30.0000000  0  6 25 22 18 29 19 14
  24498148.115     6511159.944 6   5727627.856 2
  21437659.367     7942185.122 8  -1549931.242 7
  22590369.313    11840304.240 6  -5212965.403 3
  21137122.914    14686513.042 9  -2721214.472 9
  24173590.791    20990861.521 5   -824663.833 2
  20620673.565    -2935547.953 9    661951.767 9
 94  3 22 16 28  0.0000000  0  6 25 22 18 29 19 14
  24515238.593     6600966.731 6   5797607.111 2
  21438013.302     7944023.962 8  -1548498.396 8
  22576012.072    11764849.388 6  -5271761.407 3
  21130474.027    14651572.427 9  -2748440.938 9
  24156472.792    20900933.475 5   -894737.588 2
  20627146.234    -2901534.621 9    688455.606 9
 94  3 22 16 28 30.0000000  0  6 25 22 18 29 19 14
  24532331.081     6690766.849 6   5867581.119 2
  21438482.238     7946499.522 8  -1546569.410 8
  22561675.307    11689493.856 6  -5330479.997 3
  21123857.428    14616791.953 9  -2775542.618 9
  24139409.085    20811206.304 5   -964654.789 2
  20633722.091    -2866976.922 9    715383.632 9
 94  3 22 16 29  0.0000000  0  6 25 22 18 29 19 14
  24549418.531     6780577.201 5   5937563.077 2
  21439077.206     7949619.314 8  -1544138.420 8
  22547354.431    11614245.237 6  -5389115.294 3
  21117266.221    14582165.742 9  -2802524.095 9
  24122365.524    20721677.018 5  -1034417.760 2
  20640403.416    -2831862.456 9    742745.514 9
 94  3 22 16 29 30.0000000  0  6 25 22 18 29 19 14
  24566507.091     6870391.634 5   6007548.220 2
  21439786.994     7953360.442 8  -1541223.265 8
  22533049.025    11539082.940 7  -5447683.303 3
  21110703.464    14547687.903 9  -2829389.962 9
  24105359.857    20632316.229 4  -1104049.504 2
  20647196.323    -2796186.999 9    770544.514 9
 94  3 22 16 30  0.0000000  0  7 25 22 18  4 29 19 14
  24583606.174     6960207.889 5   6077534.852 2
  21440613.402     7957707.343 8  -1537836.098 9
  22518762.835    11463997.228 7  -5506191.657 3
  25018305.627    -2838401.66915  -2148275.056 2
  21104173.595    14513376.161 9  -2856126.405 9
  24088379.882    20543105.252 5  -1173564.522 2
  20654092.959    -2759936.913 9    798791.289 9
 94  3 22 16 30 30.0000000  0  7 25 22 18  4 29 19 14
  24600694.554     7050022.573 5   6147520.223 2
  21441558.948     7962655.302 8  -1533980.559 9
  22504491.095    11388995.701 7  -5564634.413 3
  25014937.039    -2856089.655 5  -2162057.925 2
  21097680.150    14479245.384 9  -2882721.828 9
  24071440.678    20454036.313 5  -1242968.852 2
  20661097.850    -2723109.992 8    827487.562 9
 94  3 22 16 31  0.0000000  0  7 25 22 18  4 29 19 14
  24617783.773     7139825.304 5   6217496.243 3
  21442612.388     7968194.343 8  -1529664.435 9
  22490233.295    11314075.547 7  -5623013.766 3
  25011670.980    -2873275.881 5  -2175449.837 2
  21091224.719    14445314.953 9  -2909161.141 9
  24054512.747    20365110.071 5  -1312261.986 2
  20668211.745    -2685731.851 8    856613.360 9
 94  3 22 16 31 30.0000000  0  7 25 22 18  4 29 19 14
  24634866.877     7229606.030 5   6287455.180 3
  21443774.714     7974325.182 8  -1524887.186 9
  22475993.813    11239236.743 7  -5681329.713 3
  25008492.941    -2889950.569 5  -2188443.161 2
  21084808.021    14411596.024 9  -2935435.631 9
  24037618.633    20276337.367 5  -1381435.457 2
  20675429.248    -2647810.457 8    886162.475 9
 94  3 22 16 32  0.0000000  0  7 25 22 18  4 29 19 14
  24651945.933     7319362.220 5   6357394.967 3
  21445060.554     7981070.402 7  -1519631.179 9
  22461770.940    11164502.009 7  -5739564.592 3
  25005420.308    -2906111.462 5  -2201036.097 2
  21078433.474    14378097.199 9  -2961538.625 9
  24020765.740    20187738.347 5  -1450473.593 2
  20682746.103    -2609355.681 8    916127.206 9
 94  3 22 16 32 30.0000000  0  7 25 22 18  4 29 19 14
  24669026.129     7409104.134 5   6427323.661 3
  21446459.805     7988436.579 8  -1513891.325 9
  22447573.099    11089883.750 7  -5797708.667 3
  25002433.445    -2921756.546 5  -2213227.112 2
  21072100.658    14344813.316 9  -2987474.133 9
  24003940.758    20099325.003 5  -1519367.103 2
  20690163.808    -2570371.052 8    946504.781 9
 94  3 22 16 33  0.0000000  0  7 25 22 18  4 29 19 14
  24686102.817     7498835.554 6   6497244.163 3
  21447979.603     7996402.959 7  -1507683.769 9
  22433387.549    11015368.127 7  -5855772.797 3
  24999564.941    -2936910.036 5  -2225035.085 2
  21065805.586    14311731.886 9  -3013251.879 9
  23987151.151    20011098.376 5  -1588115.028 2
  20697681.433    -2530860.869 7    977291.908 9
 94  3 22 16 33 30.0000000  0  7 25 22 18  4 29 19 14
  24703170.091     7588560.427 6   6567159.531 2
  21449608.555     8004963.558 7  -1501013.188 9
  22419232.069    10940957.322 7  -5913755.268 3
  24996769.167    -2951583.853 5  -2236469.298 2
  21059545.470    14278845.567 9  -3038877.593 9
  23970399.018    19923067.216 5  -1656710.722 2
  20705303.956    -2490811.682 7   1008499.039 9
 94  3 22 16 34  0.0000000  0  7 25 22 18  4 29 19 14
  24720249.327     7678280.425 6   6637071.214 3
  21451349.540     8014111.183 7  -1493885.189 9
  22405093.047    10866653.488 7  -5971654.331 3
  24994066.508    -2965793.447 5  -2247541.757 2
  21053322.888    14246150.569 9  -3064354.224 9
  23953678.663    19835243.023 5  -1725145.168 2
  20713025.861    -2450228.896 7   1040121.944 9
 94  3 22 16 34 30.0000000  0  7 25 22 18  4 29 19 14
  24737323.617     7768015.457 6   6706994.533 2
  21453197.730     8023831.685 7  -1486310.790 9
  22390975.760    10792457.448 7  -6029469.454 3
  24991450.399    -2979519.643 5  -2258237.516 2
  21047141.017    14213651.382 9  -3089678.291 9
  23937016.228    19747643.869 4  -1793404.172 2
  20720855.091    -2409098.232 8   1072171.766 9
 94  3 22 16 35  0.0000000  0  7 25 22 18  4 29 19 14
  24754395.569     7857744.806 6   6776913.420 2
  21455158.973     8034125.952 7  -1478289.300 9
  22376873.943    10718356.925 7  -6087210.105 3
  24988928.245    -2992769.686 5  -2268562.277 2
  21040993.683    14181348.792 9  -3114849.157 9
  23920384.462    19660266.364 5  -1861490.506 2
  20728782.383    -2367430.804 8   1104639.853 9
 94  3 22 16 35 30.0000000  0  7 25 22 18  4 29 19 14
  24771469.469     7947464.241 6   6846824.562 2
  21457233.356     8045024.243 7  -1469797.134 9
  22362792.331    10644360.718 7  -6144869.485 4
  24986499.776    -3005520.163 5  -2278497.762 2
  21034886.101    14149254.639 9  -3139857.595 9
  23903799.824    19573114.337 5  -1929401.147 2
  20736815.531    -2325220.022 9   1137531.313 8
 94  3 22 16 36  0.0000000  0  7 25 22 18  4 29 19 14
  24788543.608     8037176.927 6   6916730.459 2
  21459419.983     8056526.476 7  -1460834.387 9
  22348732.155    10570468.574 7  -6202447.797 4
  24984167.631    -3017769.768 5  -2288042.958 2
  21028815.064    14117364.249 9  -3164707.276 9
  23887262.133    19486168.051 5  -1997151.472 2
  20744950.250    -2282472.194 9   1170841.247 8
 94  3 22 16 36 30.0000000  0  7 25 22 18  4 29 19 14
  24805614.181     8126885.144 5   6986632.945 2
  21461721.879     8068642.610 7  -1451393.271 9
  22334691.435    10496687.915 7  -6259939.229 4
  24981938.104    -3029501.962 5  -2297184.972 2
  21022790.585    14085685.930 9  -3189391.697 9
  23870750.943    19399407.432 5  -2064757.134 2
  20753186.508    -2239184.055 9   1204572.206 8
 94  3 22 16 37  0.0000000  0  6 22 18  4 29 19 14
  21464150.738     8081380.859 7  -1441467.400 8
  22320671.521    10423015.249 7  -6317346.504 4
  24979800.494    -3040729.836 5  -2305934.046 2
  21016799.982    14054212.534 9  -3213916.442 9
  23854267.334    19312813.211 5  -2132233.107 2
  20761525.745    -2195370.089 9   1238712.908 9
 94  3 22 16 37 30.0000000  0  6 22 18  4 29 19 14
  21466689.710     8094733.315 7  -1431062.901 8
  22306672.382    10349456.286 8  -6374665.180 5
  24977760.976    -3051451.045 5  -2314288.289 2
  21010848.083    14022941.140 8  -3238283.805 9
  23837821.739    19226381.886 5  -2199582.140 2
  20769962.594    -2151035.064 9   1273259.633 9
 94  3 22 16 38  0.0000000  0  6 22 18  4 29 19 14
  21469347.940     8108693.160 7  -1420185.133 8
  22292700.824    10276027.582 8  -6431882.363 5
  24975814.993    -3061678.021 5  -2322257.399 2
  21004937.404    13991871.624 8  -3262493.817 9
  23821409.302    19140121.258 5  -2266798.165 2
  20778499.334    -2106176.010 9   1308214.678 9
 94  3 22 16 38 30.0000000  0  6 22 18  4 29 19 14
  21472124.168     8123281.029 8  -1408817.988 7
  22278756.788    10202747.173 8  -6488983.978 5
  24973964.044    -3071392.588 5  -2329827.232 2
  20999064.800    13961009.216 8  -3286542.477 9
  23805034.817    19054070.218 5  -2333850.868 2
  20787138.873    -2060774.008 9   1343592.809 9
 94  3 22 16 39  0.0000000  0  6 22 18  4 29 19 14
  21475020.553     8138502.320 8  -1396957.258 7
  22264841.681    10129620.613 8  -6545965.704 5
  24972212.147    -3080602.649 5  -2337003.990 2
  20993231.168    13930358.394 8  -3310426.243 9
  23788701.615    18968252.643 6  -2400721.692 2
  20795884.359    -2014811.933 8   1379407.361 9
 94  3 22 16 39 30.0000000  0  6 22 18  4 29 19 14
  21478035.146     8154343.596 8  -1384613.457 7
  22250953.975    10056653.720 7  -6602823.007 5
  24970557.593    -3089320.816 5  -2343797.391 2
  20987438.339    13899921.648 9  -3334143.198 9
  23772412.601    18882664.587 5  -2467413.624 2
  20804738.849    -1968278.802 8   1415666.904 9
 94  3 22 16 40  0.0000000  0  6 22 18  4 29 19 14
  21481165.968     8170797.485 8  -1371792.262 7
  22237101.135     9983847.935 7  -6659554.803 5
  24968986.261    -3097548.916 5  -2350208.954 2
  20981688.170    13869701.345 8  -3357691.492 9
  23756174.313    18797317.226 6  -2533918.028 2
  20813703.723    -1921170.928 8   1452374.306 9
 94  3 22 16 40 30.0000000  0  6 22 18  4 29 19 14
  21484407.954     8187855.662 8  -1358500.187 6
  22223273.538     9911176.361 7  -6716181.986 5
  24967518.956    -3105286.863 5  -2356238.569 2
  20975978.742    13839700.149 8  -3381069.055 9
  23739976.676    18712189.786 6  -2600251.024 2
  20822774.273    -1873507.045 8   1489514.967 9
 94  3 22 16 41  0.0000000  0  6 22 18  4 29 19 14
  21487766.709     8205499.998 8  -1344751.387 6
  22209464.228     9838618.290 7  -6772720.732 5
  24966135.924    -3112545.942 5  -2361895.040 2
  20970317.551    13809934.451 8  -3404263.117 9
  23723815.734    18627258.080 6  -2666431.556 2
  20831947.353    -1825305.059 8   1527074.914 9
 94  3 22 16 41 30.0000000  0  6 22 18  4 29 19 14
  21491238.275     8223726.649 8  -1330548.823 6
  22195674.015     9766166.719 7  -6829176.514 6
  24964853.082    -3119309.861 5  -2367165.649 2
  20964697.342    13780408.320 8  -3427270.493 9
  23707685.191    18542518.679 6  -2732462.235 2
  20841219.874    -1776581.298 8   1565041.446 9
 94  3 22 16 42  0.0000000  0  6 22 18  4 29 19 14
  21494819.986     8242550.917 8  -1315880.603 6
  22181905.177     9693803.861 7  -6885563.164 6
  24963653.912    -3125565.592 5  -2372040.300 2
  20959126.119    13751121.840 8  -3450091.147 9
  23691589.784    18457962.505 6  -2798350.139 2
  20850584.371    -1727352.638 8   1603401.397 9
 94  3 22 16 42 30.0000000  0  6 22 18  4 29 19 14
  21498516.577     8261985.009 9  -1300737.159 6
  22168153.127     9621524.963 7  -6941884.380 6
  24962567.224    -3131305.073 5  -2376512.651 2
  20953598.276    13722078.786 8  -3472722.105 9
  23675539.405    18373579.845 6  -2864102.781 2
  20860051.457    -1677616.610 8   1642156.689 9
 94  3 22 16 43  0.0000000  0  6 22 18  4 29 19 14
  21502331.046     8282021.043 9  -1285124.693 6
  22154417.326     9549343.181 7  -6998129.927 6
  24961566.907    -3136545.300 5  -2380596.056 1
  20948112.374    13693267.349 8  -3495172.592 8
  23659515.708    18289378.214 6  -2929714.420 2
  20869608.361    -1627373.849 7   1681306.858 9
 94  3 22 16 43 30.0000000  0  6 22 18  4 29 19 14
  21506263.424     8302679.088 9  -1269027.534 6
  22140705.988     9477297.163 7  -7054269.689 6
  24960659.855    -3141291.447 5  -2384294.394 1
  20942673.569    13664685.648 8  -3517444.069 8
  23643531.614    18205373.630 6  -2995172.543 2
  20879273.280    -1576598.367 7   1720872.146 9
 94  3 22 16 44  0.0000000  0  6 22 18  4 29 19 14
  21510314.429     8323963.433 9  -1252442.338 6
  22127025.739     9405405.265 7  -7110289.353 6
  24959854.582    -3145551.458 5  -2387613.986 1
  20937280.512    13636342.962 7  -3539529.297 8
  23627584.244    18121572.093 6  -3060472.424 2
  20889039.499    -1525270.062 7   1760868.183 9
 94  3 22 16 44 30.0000000  0  6 22 18  4 29 19 14
  21514478.636     8345863.423 9  -1235377.457 6
  22113379.906     9333688.749 7  -7166172.354 6
  24959130.494    -3149326.646 5  -2390555.763 1
  20931938.151    13608249.693 7  -3561420.172 8
  23611676.746    18038004.889 6  -3125589.706 2
  20898918.890    -1473380.144 8   1801301.843 9
 94  3 22 16 45  0.0000000  0  6 22 18  4 29 19 14
  21518763.180     8368367.869 9  -1217841.509 5
  22099765.161     9262156.157 7  -7221912.018 6
  24958502.998    -3152637.967 4  -2393136.075 1
  20926636.141    13580396.949 7  -3583123.619 8
  23595825.580    17954669.865 6  -3190526.047 2
  20908891.486    -1420936.539 8   1842166.928 8
 94  3 22 16 45 30.0000000  0  6 22 18  4 29 19 14
  21523154.780     8391457.493 9  -1199849.627 5
  22086182.404     9190784.659 7  -7277526.195 6
  24957964.031    -3155475.717 4  -2395347.297 1
  20921383.088    13552777.776 7  -3604645.076 9
  23580009.759    17871546.653 6  -3255297.354 2
  20918978.572    -1367955.168 8   1883451.042 8
 94  3 22 16 46  0.0000000  0  6 22 18  4 29 19 14
  21527661.320     8415126.049 9  -1181406.599 5
  22072633.554     9119555.361 7  -7333029.548 6
  24957519.439    -3157805.845 4  -2397163.039 1
  20916172.305    13525398.973 7  -3625979.232 9
  23564230.063    17788629.225 6  -3319908.331 2
  20929156.676    -1314451.144 8   1925142.442 8
 94  3 22 16 46 30.0000000  0  6 22 18  4 29 19 14
  21532271.708     8439359.380 9  -1162523.500 5
  22059099.004     9048457.099 7  -7388430.809 6
  24957174.468    -3159631.763 5  -2398585.938 1
  20911003.823    13498235.427 7  -3647145.656 9
  23548483.074    17705897.672 6  -3384374.449 2
  20939432.962    -1260451.290 8   1967220.192 8
 94  3 22 16 47  0.0000000  0  6 22 18  4 29 19 14
  21536986.305     8464141.429 9  -1143212.835 5
  22045594.972     8977477.219 7  -7443739.799 6
  24956918.625    -3160962.467 4  -2399622.863 1
  20905869.967    13471269.334 7  -3668158.213 9
  23532765.286    17623319.648 5  -3448720.931 2
  20949806.351    -1205963.891 8   2009677.859 8
 94  3 22 16 47 30.0000000  0  6 22 18  4 29 19 14
  21541810.175     8489480.611 9  -1123468.023 5
  22032109.078     8906609.154 7  -7498961.661 6
  24956769.778    -3161772.342 5  -2400253.925 1
  20900775.324    13444507.118 7  -3689011.909 9
  23517087.399    17540905.101 5  -3512940.021 2
  20960265.570    -1150984.387 8   2052518.965 8
 94  3 22 16 48  0.0000000  0  6 22 18  4 29 19 14
  21546742.061     8515402.178 9  -1103269.438 5
  22018648.037     8835874.215 7  -7554079.799 6
  24956707.631    -3162060.726 4  -2400478.810 1
  20895727.539    13417969.303 7  -3709690.758 9
  23501441.051    17458693.015 5  -3577001.340 2
  20970825.909    -1095483.032 8   2095766.713 7
 94  3 22 16 48 30.0000000  0  6 22 18  4 29 19 14
  21551786.519     8541912.739 9  -1082611.881 5
  22005212.838     8765281.875 7  -7609086.835 6
  24956754.698    -3161853.946 5  -2400317.686 1
  20890721.544    13391662.087 7  -3730189.894 9
  23485842.100    17376712.257 5  -3640882.450 3
  20981486.289    -1039456.435 8   2139423.742 8
 94  3 22 16 49  0.0000000  0  6 22 18  4 29 19 14
  21556943.339     8569012.721 8  -1061495.038 6
  21991807.349     8694815.686 7  -7663995.558 7
  24956879.952    -3161178.439 5  -2399791.412 1
  20885756.682    13365589.423 7  -3750506.276 9
  23470282.961    17294975.472 5  -3704573.408 3
  20992251.327     -982915.984 8   2183481.180 8
 94  3 22 16 49 30.0000000  0  6 22 18  4 29 19 14
  21562212.701     8596709.612 8  -1039913.088 6
  21978416.429     8624467.574 7  -7718812.278 7
  24957099.609    -3160052.442 5  -2398914.010 1
  20880843.953    13339758.007 7  -3770634.666 9
  23454780.004    17213498.199 5  -3768062.127 3
  21003104.773     -925868.367 8   2227933.819 8
 94  3 22 16 50  0.0000000  0  6 22 18  4 29 19 14
  21567600.901     8625013.690 8  -1017858.000 6
  21965061.245     8554261.261 7  -7773518.501 7
  24957391.457    -3158492.124 5  -2397698.263 1
  20875975.983    13314177.455 7  -3790567.567 9
  23439331.399    17132282.648 6  -3831346.932 3
  21014057.031     -868320.243 8   2272776.462 8
 94  3 22 16 50 30.0000000  0  6 22 18  4 29 19 14
  21573103.351     8653938.553 8   -995319.177 6
  21951730.523     8484212.784 7  -7828101.737 7
  24957765.748    -3156488.654 5  -2396137.239 1
  20871155.380    13288848.366 7  -3810304.528 9
  23423914.661    17051311.450 5  -3894441.351 3
  21025100.006     -810278.119 8   2318004.043 8
 94  3 22 16 51  0.0000000  0  6 22 18  4 29 19 14
  21578725.659     8683472.156 8   -972306.017 6
  21938428.552     8414325.257 7  -7882559.549 7
  24958233.754    -3154039.533 5  -2394228.852 1
  20866382.054    13263767.680 7  -3829847.945 9
  23408554.525    16970552.304 5  -3957370.506 3
  21036238.735     -751741.551 8   2363616.892 8
 94  3 22 16 51 30.0000000  0  6 22 18  4 29 19 14
  21584456.492     8713596.300 8   -948832.691 6
  21925160.817     8344595.004 8  -7936894.815 7
  24958800.212    -3151126.408 5  -2391958.949 1
  20861656.066    13238922.293 7  -3849207.993 9
  23393215.044    16889975.969 5  -4020157.254 3
  21047469.320     -692710.566 7   2409615.019 8
 94  3 22 16 52  0.0000000  0  6 22 18  4 29 19 14
  21590301.635     8744311.740 7   -924898.611 6
  21911919.254     8275028.011 8  -7991102.847 6
  24959437.001    -3147718.706 5  -2389303.709 1
  20856972.259    13214312.811 8  -3868384.221 9
  23377917.355    16809580.488 6  -4082803.047 3
  21058802.884     -633177.499 7   2456004.384 9
 94  3 22 16 52 30.0000000  0  6 22 18  4 29 19 14
  21596256.203     8775608.459 7   -900511.582 6
  21898709.889     8205610.360 8  -8045194.529 6
  24960191.279    -3143804.593 4  -2386253.783 1
  20852338.606    13189950.124 8  -3887368.165 9
  23362658.998    16729380.809 6  -4145296.253 3
  21070228.904     -573136.373 8   2502789.635 9
 94  3 22 16 53  0.0000000  0  6 22 18  4 29 19 14
  21602319.745     8807464.760 7   -875688.523 7
  21885531.462     8136327.638 8  -8099181.054 6
  24961027.610    -3139384.345 4  -2382809.469 1
  20847746.356    13165831.257 8  -3906162.100 9
  23347435.477    16649391.613 5  -4207625.445 3
  21081748.070     -512593.469 8   2549965.876 9
 94  3 22 16 53 30.0000000  0  6 22 18  4 29 19 14
  21608488.005     8839881.297 7   -850428.904 7
  21872369.973     8067178.285 8  -8153063.670 6
  24961962.153    -3134450.632 4  -2378965.087 1
  20843201.862    13141948.020 8  -3924772.423 9
  23332257.464    16569626.712 5  -4269779.885 3
  21093363.199     -451558.422 8   2597525.604 9
 94  3 22 16 54  0.0000000  0  6 22 18  4 29 19 14
  21614764.040     8872858.161 7   -824732.671 7
  21859238.584     7998180.422 8  -8206828.242 6
  24962997.606    -3129025.076 5  -2374737.481 1
  20838703.656    13118305.217 8  -3943195.399 9
  23317115.667    16490093.890 5  -4331753.487 3
  21105069.434     -390040.699 8   2645461.430 8
 94  3 22 16 54 30.0000000  0  6 22 18  4 29 19 14
  21621143.504     8906384.901 7   -798607.968 7
  21846140.981     7929344.543 8  -8260466.584 6
  24964121.079    -3123129.666 5  -2370143.601 1
  20834250.808    13094900.169 8  -3961433.134 9
  23302028.641    16410780.547 6  -4393556.071 3
  21116866.807     -328040.038 8   2693773.570 8
 94  3 22 16 55  0.0000000  0  6 22 18  4 29 19 14
  21627626.696     8940454.253 7   -772060.441 7
  21833074.437     7860675.906 8  -8313974.617 6
  24965327.593    -3116777.909 5  -2365194.317 1
  20829836.604    13071715.605 8  -3979499.047 9
  23286967.818    16331662.730 6  -4455206.294 3
  21128758.495     -265554.542 8   2742463.504 8
 94  3 22 16 55 30.0000000  0  6 22 18  4 29 19 14
  21634212.896     8975074.868 7   -745083.353 8
  21820040.690     7792182.616 8  -8367346.023 6
  24966627.673    -3109986.889 5  -2359902.642 1
  20825468.328    13048756.280 8  -3997389.426 9
  23271960.147    16252731.648 6  -4516711.003 3
  21140744.257     -202584.696 8   2791530.850 8
 94  3 22 16 56  0.0000000  0  6 22 18  4 29 19 14
  21640906.692     9010248.890 7   -717675.065 8
  21807037.312     7723862.349 8  -8420582.580 6
  24968002.462    -3102771.198 5  -2354280.038 1
  20821145.201    13026044.634 8  -4015086.844 9
  23256965.278    16173987.344 6  -4578070.157 3
  21152814.441     -139122.201 8   2840982.083 7
 94  3 22 16 56 30.0000000  0  6 22 18  4 29 19 14
  21647708.233     9045979.271 7   -689833.225 8
  21794067.031     7655686.291 8  -8473706.810 6
  24969450.549    -3095128.260 5  -2348324.574 2
  20816871.959    13003580.631 7  -4032591.277 9
  23242023.052    16095434.721 6  -4639279.971 3
  21164985.805      -75170.027 8   2890814.894 7
 94  3 22 16 57  0.0000000  0  6 22 18  4 29 19 14
  21654614.163     9082275.479 7   -661550.505 8
  21781119.415     7587654.671 9  -8526718.470 6
  24970985.486    -3087047.587 5  -2342027.999 2
  20812648.243    12981379.763 7  -4049890.663 9
  23227116.112    16017090.870 6  -4700327.110 3
  21177247.077      -10743.156 8   2941017.596 7
 94  3 22 16 57 30.0000000  0  6 22 18  4 29 19 14
  21661630.655     9119133.757 7   -632829.805 9
  21768200.818     7519768.574 9  -8579616.737 6
  24972614.319    -3078514.263 5  -2335378.668 2
  20808472.554    12959451.145 7  -4066977.913 9
  23212244.218    15938966.766 6  -4761203.003 3
  21189593.460       54139.792 8   2991575.683 7
 94  3 22 16 58  0.0000000  0  6 22 18  4 29 19 14
  21668745.240     9156543.503 7   -603679.393 9
  21755308.244     7452018.396 9  -8632409.071 6
  24974323.795    -3069514.544 4  -2328365.947 2
  20804352.297    12937794.272 7  -4083853.422 9
  23197422.988    15861053.708 6  -4821914.423 3
  21202027.232      119476.481 8   3042487.306 7
 94  3 22 16 58 30.0000000  0  5 22 18 29 19 14
  21675972.217     9194511.108 7   -574094.285 9
  21742448.976     7384426.201 9  -8685078.305 6
  20800284.743    12916411.803 7  -4100515.102 9
  23182630.899    15783367.759 6  -4882448.919 2
  21214548.394      185272.701 8   3093757.025 7
 94  3 22 16 59  0.0000000  0  5 22 18 29 19 14
  21683302.742     9233033.671 7   -544076.759 9
  21729617.319     7317006.955 9  -8737612.790 5
  20796268.003    12895304.641 8  -4116962.273 9
  23167894.301    15705907.718 6  -4942807.370 2
  21227158.114      251534.948 8   3145389.870 7
 94  3 22 16 59 30.0000000  0  5 22 18 29 19 14
  21690739.813     9272123.072 7   -513617.528 9
  21716820.558     7249761.635 9  -8790011.726 5
  20792303.308    12874462.468 7  -4133202.938 9
  23153202.252    15628673.688 6  -5002989.688 2
  21239859.991      318286.966 8   3197404.359 7
 94  3 22 17  0  0.0000000  0  5 22 18 29 19 14
  21698288.527     9311797.807 7   -482702.187 9
  21704056.654     7182692.665 9  -8842273.249 5
  20788388.138    12853888.408 8  -4149234.691 9
  23138545.129    15551673.530 6  -5062989.753 2
  21252659.660      385546.302 7   3249814.168 7
 94  3 22 17  0 30.0000000  0  5 22 18 29 19 14
  21705952.872     9352068.074 7   -451322.810 9
  21691330.824     7115807.457 9  -8894391.592 5
  20784519.107    12833570.636 8  -4165066.732 9
  23123934.114    15474917.294 6  -5122799.788 2
  21265555.232      453301.539 7   3302610.405 8
 94  3 22 17  1  0.0000000  0  5 22 18 29 19 14
  21713729.338     9392929.524 7   -419482.764 9
  21678636.772     7049094.053 9  -8946376.062 5
  20780698.432    12813489.205 8  -4180714.637 9
  23109380.209    15398388.192 6  -5182432.819 3
  21278540.083      521541.102 7   3355784.054 8
 94  3 22 17  1 30.0000000  0  5 22 18 29 19 14
  21721616.068     9434360.473 7   -387198.944 9
  21665973.539     6982557.116 9  -8998223.031 6
  20776924.225    12793647.231 8  -4196175.930 9
  23094855.324    15322090.208 6  -5241885.751 3
  21291612.084      590248.422 7   3409322.188 8
 94  3 22 17  2  0.0000000  0  5 22 18 29 19 14
  21729603.229     9476345.427 8   -354483.425 9
  21653349.998     6916208.287 9  -9049923.426 6
  20773196.066    12774068.236 8  -4211432.316 9
  23080384.942    15246034.398 6  -5301149.984 3
  21304775.431      659417.564 7   3463220.199 8
 94  3 22 17  2 30.0000000  0  5 22 18 29 19 14
  21737694.867     9518862.965 8   -321352.912 9
  21640757.845     6850049.785 9  -9101475.507 6
  20769522.079    12754753.134 8  -4226483.065 9
  23065955.182    15170210.703 6  -5360233.342 3
  21318021.251      729040.270 7   3517471.603 8
 94  3 22 17  3  0.0000000  0  5 22 18 29 19 14
  21745886.156     9561910.018 8   -287809.780 9
  21628206.164     6784089.978 9  -9152872.754 6
  20765899.687    12735724.691 8  -4241310.450 9
  23051568.501    15094620.650 6  -5419134.639 3
  21331359.827      799119.483 8   3572078.748 8
 94  3 22 17  3 30.0000000  0  5 22 18 29 19 14
  21754181.024     9605492.942 8   -253849.093 9
  21615695.345     6718338.993 9  -9204107.301 6
  20762336.953    12717008.843 8  -4255894.259 9
  23037241.749    15019271.154 6  -5477848.509 3
  21344781.715      869662.802 8   3627047.522 8
 94  3 22 17  4  0.0000000  0  5 22 18 29 19 14
  21762580.249     9649628.334 8   -219457.909 9
  21603221.941     6652791.355 9  -9255183.388 6
  20758834.268    12698597.884 8  -4270240.468 9
  23022933.075    14944142.093 6  -5536390.594 3
  21358295.430      940669.522 8   3682377.383 8
 94  3 22 17  4 30.0000000  0  5 22 18 29 19 14
  21771087.370     9694330.956 8   -184624.721 9
  21590789.967     6587456.796 8  -9306093.434 6
  20755390.132    12680488.937 8  -4284351.363 9
  23008683.400    14869229.928 6  -5594763.626 3
  21371897.763     1012140.552 8   3738069.063 8
 94  3 22 17  5  0.0000000  0  5 22 18 29 19 14
  21779698.129     9739590.989 8   -149357.197 9
  21578392.949     6522321.568 8  -9356848.142 6
  20752002.568    12662674.968 8  -4298232.391 9
  22994473.387    14794527.351 6  -5652973.414 3
  21385582.809     1084063.412 8   3794112.765 8
 94  3 22 17  5 30.0000000  0  5 22 18 29 19 14
  21788414.505     9785399.174 8   -113662.518 9
  21566035.654     6457381.345 8  -9407450.913 6
  20748665.278    12645155.927 8  -4311883.605 9
  22980287.298    14720029.241 5  -5711023.893 3
  21399358.452     1156440.841 8   3850510.709 8
 94  3 22 17  6  0.0000000  0  5 22 18 29 19 14
  21797233.439     9831738.767 8    -77553.766 9
  21553717.152     6392632.637 8  -9457904.443 6
  20745386.268    12627918.561 8  -4325315.343 9
  22966149.296    14645738.837 6  -5768912.480 3
  21413215.489     1229266.503 8   3907257.930 8
 94  3 22 17  6 30.0000000  0  5 22 18 29 19 14
  21806150.916     9878594.693 8    -41042.668 9
  21541428.719     6328070.770 8  -9508212.379 6
  20742159.482    12610964.037 8  -4338526.678 9
  22952061.179    14571667.217 6  -5826630.595 3
  21427159.796     1302547.165 8   3964359.699 8
 94  3 22 17  7  0.0000000  0  5 22 18 29 19 14
  21815167.084     9925978.716 8     -4120.069 9
  21529178.720     6263698.230 8  -9558372.779 6
  20738988.937    12594304.027 8  -4351508.534 9
  22938000.313    14497832.147 6  -5884164.393 3
  21441189.154     1376284.171 8   4021817.042 8
 94  3 22 17  7 30.0000000  0  5 22 18 29 19 14
  21824282.693     9973886.218 8     33210.420 8
  21516966.914     6199519.800 8  -9608381.955 6
  20735872.954    12577922.429 8  -4364273.436 9
  22924000.964    14424238.601 6  -5941509.979 3
  21455307.580     1450470.620 8   4079624.615 7
 94  3 22 17  8  0.0000000  0  5 22 18 29 19 14
  21833498.194    10022309.340 8     70942.695 8
  21504790.034     6135530.314 8  -9658243.905 6
  20732802.959    12561791.636 8  -4376842.898 9
  22910044.336    14350891.527 6  -5998663.546 3
  21469508.988     1525095.184 8   4137773.550 7
 94  3 22 17  8 30.0000000  0  5 22 18 29 19 14
  21842814.634    10071266.437 9    109091.058 8
  21492648.319     6071730.332 8  -9707958.174 7
  20729780.811    12545913.955 8  -4389215.135 9
  22896129.859    14277792.796 6  -6055623.577 3
  21483790.082     1600152.441 8   4196259.677 7
 94  3 22 17  9  0.0000000  0  5 22 18 29 19 14
  21852231.775    10120750.651 9    147650.155 8
  21480543.689     6008121.427 8  -9757523.576 7
  20726808.069    12530294.378 8  -4401386.240 9
  22882279.448    14204939.149 6  -6112392.617 3
  21498151.819     1675629.072 7   4255072.578 7
 94  3 22 17  9 30.0000000  0  5 22 18 29 19 14
  21861745.778    10170746.088 9    186607.600 8
  21468476.623     5944703.874 8  -9806939.859 7
  20723887.371    12514942.293 8  -4413348.912 9
  22868454.129    14132322.870 6  -6168976.707 3
  21512598.638     1751536.644 7   4314221.277 6
 94  3 22 17 10  0.0000000  0  5 22 18 29 19 14
  21871358.294    10221263.690 9    225971.948 8
  21456446.821     5881481.832 8  -9856203.775 7
  20721020.486    12499886.684 8  -4425080.589 9
  22854677.166    14059931.004 6  -6225385.929 3
  21527129.998     1827885.620 7   4373713.947 6
 94  3 22 17 10 30.0000000  0  5 22 18 29 19 14
  21881070.640    10272302.568 9    265742.466 8
  21444454.073     5818466.937 8  -9905306.301 7
  20718221.414    12485161.508 8  -4436554.735 9
  22840944.303    13987752.890 6  -6281628.590 3
  21541745.390     1904683.615 7   4433556.486 6
 94  3 22 17 11  0.0000000  0  5 22 18 29 19 14
  21890878.590    10323850.261 9    305909.460 8
  21432505.845     5755677.218 8  -9954233.349 7
  20715483.709    12470778.818 8  -4447762.042 9
  22827246.246    13915789.956 6  -6337703.575 3
  21556444.964     1981935.401 7   4493752.625 6
 94  3 22 17 11 30.0000000  0  5 22 18 29 19 14
  21900787.360    10375918.783 9    346482.292 8
  21420601.146     5693121.208 7 -10002978.306 7
  20712809.560    12456729.615 7  -4458709.480 9
  22813590.340    13844041.931 6  -6393611.068 3
  21571227.040     2059636.407 7   4554298.812 6
 94  3 22 17 12  0.0000000  0  5 22 18 29 19 14
  21910795.602    10428516.721 9    387467.674 8
  21408743.156     5630807.628 7 -10051534.344 7
  20710199.927    12443003.154 7  -4469405.431 9
  22799986.298    13772519.958 6  -6449342.457 3
  21586099.834     2137785.635 7   4615194.250 6
 94  3 22 17 12 30.0000000  0  5 22 18 29 19 14
  21920904.663    10481633.342 9    428857.206 8
  21396930.913     5568727.902 8 -10099908.168 8
  20707641.798    12429577.546 7  -4479866.940 9
  22786429.383    13701236.830 7  -6504887.695 3
  21601050.094     2216354.353 7   4676416.571 6
 94  3 22 17 13  0.0000000  0  5 22 18 29 19 14
  21931110.798    10535265.036 8    470648.090 8
  21385157.014     5506855.638 8 -10148120.328 8
  20705139.011    12416420.040 7  -4490119.560 9
  22772906.735    13630185.089 7  -6560252.655 3
  21616077.011     2295319.101 7   4737947.472 6
 94  3 22 17 13 30.0000000  0  5 22 18 29 19 14
  21941415.294    10589419.083 8    512846.000 7
  21373420.439     5445175.383 8 -10196182.848 8
  20702688.147    12403531.193 7  -4500162.801 9
  22759420.091    13559360.062 6  -6615440.947 3
  21631179.806     2374676.393 7   4799784.264 6
 94  3 22 17 14  0.0000000  0  5 22 18 29 19 14
  21951820.431    10644104.224 8    555457.730 7
  21361723.317     5383701.270 8 -10244084.745 8
  20700291.247    12390927.330 7  -4509983.999 9
  22745980.695    13488769.774 6  -6670446.322 3
  21646354.281     2454430.249 7   4861930.046 6
 94  3 22 17 14 30.0000000  0  5 22 18 29 19 14
  21962327.197    10699312.240 8    598476.921 7
  21350063.908     5322426.189 8 -10291831.553 8
  20697946.630    12378623.684 7  -4519571.273 9
  22732594.063    13418406.081 7  -6725275.120 3
  21661604.873     2534556.890 7   4924366.322 6
 94  3 22 17 15  0.0000000  0  6 22 28 18 29 19 14
  21972929.447    10755027.919 8    641891.684 7
  25026367.077     -372922.08614  -1680592.939 1
  21338438.137     5261341.266 8 -10339430.188 8
  20695664.550    12366620.852 7  -4528924.125 9
  22719247.722    13348253.851 7  -6779939.153 3
  21676921.120     2615063.189 7   4987098.451 7
 94  3 22 17 15 30.0000000  0  6 22 28 18 29 19 14
  21983625.023    10811237.024 8    685690.941 7
  25012010.525     -448305.410 4  -1739333.032 1
  21326851.698     5200460.264 8 -10386869.925 8
  20693434.543    12354923.337 7  -4538039.062 9
  22705940.235    13278312.798 7  -6834438.620 3
  21692315.552     2695948.708 8   5050126.090 7
 94  3 22 17 16  0.0000000  0  6 22 28 18 29 19 14
  21994413.265    10867928.768 8    729866.286 7
  24997687.851     -523598.666 4  -1798003.069 1
  21315307.140     5139794.446 8 -10434142.001 8
  20691269.832    12343531.330 7  -4546915.934 9
  22692668.992    13208600.364 6  -6888759.967 3
  21707782.475     2777225.412 8   5113458.521 7
 94  3 22 17 16 30.0000000  0  6 22 28 18 29 19 14
  22005289.015    10925070.232 8    774392.064 7
  24983369.163     -598813.591 4  -1856611.958 1
  21303798.917     5079320.794 8 -10481264.337 9
  20689157.884    12332435.331 7  -4555562.186 9
  22679449.284    13139110.489 6  -6942907.910 4
  21723322.217     2858893.636 8   5177096.036 7
 94  3 22 17 17  0.0000000  0  6 22 28 18 29 19 14
  22016246.790    10982652.863 8    819261.608 6
  24969074.130     -673949.818 4  -1915159.544 2
  21292333.324     5019052.965 7 -10528226.284 9
  20687098.760    12321612.590 7  -4563995.486 9
  22666263.392    13069837.388 6  -6996886.893 4
  21738940.655     2940969.647 8   5241051.281 7
 94  3 22 17 17 30.0000000  0  6 22 28 18 29 19 14
  22027290.454    11040691.704 8    864486.634 6
  24954790.548     -748991.028 4  -1973633.102 2
  21280907.065     4959018.113 7 -10575006.689 9
  20685090.030    12311064.808 7  -4572214.535 9
  22653125.438    13000786.538 7  -7050692.742 4
  21754639.077     3023459.589 8   5305329.099 7
 94  3 22 17 18  0.0000000  0  6 22 28 18 29 19 14
  22038423.937    11099200.587 8    910077.936 6
  24940525.943     -823921.936 4  -2032020.755 2
  21269527.992     4899219.989 8 -10621602.638 9
  20683140.870    12300808.269 8  -4580206.660 9
  22640028.255    12931959.001 7  -7104324.549 4
  21770414.785     3106365.450 7   5369930.991 7
 94  3 22 17 18 30.0000000  0  6 22 28 18 29 19 14
  22049650.265    11158186.391 8    956040.864 6
  24926298.902     -898736.936 4  -2090318.114 2
  21258195.358     4839664.236 8 -10668009.705 9
  20681243.273    12290842.854 8  -4587971.923 9
  22626970.764    12863339.748 7  -7157794.074 4
  21786269.849     3189667.129 7   5434841.317 7
 94  3 22 17 19  0.0000000  0  6 22 28 18 29 19 14
  22060968.929    11217662.794 8   1002386.054 6
  24912085.112     -973415.561 3  -2148509.229 2
  21246909.910     4780360.077 8 -10714220.740 9
  20679400.029    12281168.930 8  -4595510.043 9
  22613952.606    12794928.253 7  -7211101.707 4
  21802192.486     3273347.388 7   5500046.645 7
 94  3 22 17 19 30.0000000  0  6 22 28 18 29 19 14
  22072377.891    11277634.213 8   1049116.997 6
  24897905.798    -1047955.257 4  -2206592.036 2
  21235669.432     4721286.480 8 -10760252.107 9
  20677619.892    12271804.107 8  -4602807.331 9
  22600976.659    12726732.930 7  -7264240.882 4
  21818181.437     3357385.678 7   5565530.936 7
 94  3 22 17 20  0.0000000  0  6 22 28 18 29 19 14
  22083882.936    11338083.670 8   1096220.420 6
  24883744.292    -1122364.523 4  -2264573.209 2
  21224466.667     4662420.859 8 -10806121.395 9
  20675894.646    12262750.535 8  -4609862.064 9
  22588041.424    12658759.046 6  -7317207.518 4
  21834242.159     3441762.569 7   5631279.104 7
 94  3 22 17 20 30.0000000  0  6 22 28 18 29 19 14
  22095473.842    11399004.193 8   1143690.878 5
  24869607.849    -1196648.597 4  -2322456.891 2
  21213306.324     4603772.354 8 -10851821.523 8
  20674233.586    12254010.237 8  -4616672.699 9
  22575153.976    12591027.770 6  -7369985.126 4
  21850360.470     3526480.184 7   5697292.783 6
 94  3 22 17 21  0.0000000  0  6 22 28 18 29 19 14
  22107158.313    11460389.155 8   1191523.291 5
  24855498.596    -1270813.343 5  -2380247.541 2
  21202183.304     4545328.423 8 -10897362.251 8
  20672629.127    12245582.578 9  -4623239.729 9
  22562313.685    12523542.621 6  -7422570.919 5
  21866546.085     3611544.997 7   5763576.976 6
 94  3 22 17 21 30.0000000  0  6 22 28 18 29 19 14
  22118926.306    11522243.732 8   1239721.593 5
  24841400.346    -1344851.392 4  -2437939.423 2
  21191105.013     4487107.994 8 -10942728.810 8
  20671091.281    12237487.279 9  -4629547.771 9
  22549515.575    12456313.751 6  -7474957.044 5
  21882802.871     3696974.819 6   5830145.586 6
 94  3 22 17 22  0.0000000  0  6 22 28 18 29 19 14
  22130785.526    11584556.719 8   1288277.109 5
  24827338.791    -1418750.045 4  -2495522.709 2
  21180072.861     4429130.802 8 -10987905.838 8
  20669614.833    12229721.486 9  -4635599.050 9
  22536774.426    12389333.945 6  -7527149.058 5
  21899133.196     3782782.074 6   5897008.343 6
 94  3 22 17 22 30.0000000  0  7 22 28 27 18 29 19 14
  22142728.298    11647326.375 8   1337188.467 5
  24813301.789    -1492510.004 4  -2552997.933 2
  25073009.597    -3281097.89913  -1595187.146 1
  21169088.405     4371405.444 8 -11032886.633 8
  20668197.415    12222282.681 9  -4641395.545 9
  22524066.104    12322593.214 6  -7579154.803 5
  21915532.503     3868971.555 7   5964168.902 6
 94  3 22 17 23  0.0000000  0  7 22 28 27 18 29 19 14
  22154762.507    11710552.534 8   1386455.547 5
  24799290.089    -1566125.917 5  -2610360.934 2
  25056211.146    -3369284.109 3  -1663903.592 1
  21158150.177     4313921.792 9 -11077679.073 8
  20666839.805    12215160.646 9  -4646945.196 9
  22511409.765    12256068.511 6  -7630992.222 5
  21932008.466     3955541.581 6   6031625.996 6
 94  3 22 17 23 30.0000000  0  7 22 28 27 18 29 19 14
  22166878.260    11774221.046 8   1436067.315 5
  24785315.233    -1639604.959 4  -2667617.227 2
  25039470.016    -3457375.859 4  -1732546.594 1
  21147255.720     4256681.981 9 -11122281.528 8
  20665546.290    12208351.668 9  -4652250.906 9
  22498794.259    12189750.443 6  -7682668.622 5
  21948556.800     4042490.928 6   6099378.657 6
 94  3 22 17 24  0.0000000  0  7 22 28 27 18 29 19 14
  22179074.446    11838314.279 8   1486010.014 5
  24771346.374    -1712972.249 5  -2724786.406 2
  25022715.634    -3545383.903 4  -1801124.239 1
  21136406.860     4199666.728 9 -11166708.993 8
  20664306.618    12201836.614 9  -4657327.596 9
  22486208.312    12123622.461 6  -7734196.862 5
  21965166.322     4129807.371 7   6167417.392 6
 94  3 22 17 24 30.0000000  0  7 22 28 27 18 29 19 14
  22191350.558    11902839.135 7   1536289.046 5
  24757415.018    -1786240.374 5  -2781878.313 2
  25005990.213    -3633302.138 4  -1869631.859 1
  21125599.852     4142872.399 9 -11210964.295 8
  20663121.149    12195618.818 9  -4662172.633 9
  22473660.529    12057690.915 6  -7785572.084 4
  21981853.579     4217479.463 7   6235733.223 6
 94  3 22 17 25  0.0000000  0  7 22 28 27 18 29 19 14
  22203711.121    11967797.758 7   1586906.081 5
  24743495.415    -1859387.422 5  -2838875.913 2
  24989269.409    -3721123.182 4  -1938063.829 1
  21114835.564     4086303.970 9 -11255043.594 8
  20661997.916    12189708.695 9  -4666777.944 9
  22461158.883    11991961.816 7  -7836789.539 4
  21998605.382     4305500.846 7   6304321.235 5
 94  3 22 17 25 30.0000000  0  7 22 28 27 18 29 19 14
  22216160.752    12033210.245 7   1637876.806 5
  24729603.782    -1932393.245 5  -2895763.467 2
  24972578.674    -3808836.220 4  -2006411.582 2
  21104120.172     4029990.730 9 -11298924.047 8
  20660934.583    12184129.532 9  -4671125.363 9
  22448692.793    11926468.121 7  -7887823.570 4
  22015419.302     4393873.905 7   6373183.248 5
 94  3 22 17 26  0.0000000  0  7 22 28 27 18 29 19 14
  22228699.482    12099096.001 7   1689216.296 5
  24715739.759    -2005234.558 5  -2952522.791 2
  24955913.660    -3896444.755 4  -2074677.901 2
  21093452.447     3973940.090 9 -11342599.846 8
  20659937.923    12178889.036 9  -4675208.863 9
  22436270.413    11861230.093 6  -7938658.360 4
  22032301.305     4482585.463 7   6442309.087 5
 94  3 22 17 26 30.0000000  0  7 22 28 27 18 29 19 14
  22241330.847    12165463.226 7   1740930.952 5
  24701912.132    -2077883.992 5  -3009132.679 2
  24939255.872    -3983944.513 4  -2142859.464 2
  21082837.305     3918151.207 9 -11386071.709 8
  20659004.909    12173981.620 8  -4679032.831 9
  22423916.805    11796254.864 7  -7989288.364 4
  22049247.224     4571630.896 7   6511695.031 5
 94  3 22 17 27  0.0000000  0  7 22 28 27 18 29 19 14
  22254042.347    12232291.588 7   1793004.951 5
  24688124.797    -2150339.566 5  -3065591.405 2
  24922622.068    -4071353.220 4  -2210970.028 2
  21072268.272     3862616.688 9 -11429345.338 8
  20658131.973    12169394.106 8  -4682607.512 9
  22411594.586    11731531.086 6  -8039722.418 4
  22066256.848     4661006.054 7   6581337.939 5
 94  3 22 17 27 30.0000000  0  7 22 28 27 18 29 19 14
  22266849.271    12299570.781 7   1845430.228 4
  24674372.537    -2222619.585 5  -3121913.395 2
  24906011.257    -4158666.525 5  -2279006.297 2
  21061747.206     3807334.531 9 -11472422.330 8
  20657317.886    12165118.703 8  -4685938.997 9
  22399325.610    11667054.096 7  -8089964.203 4
  22083325.382     4750714.269 7   6651240.355 5
 94  3 22 17 28  0.0000000  0  7 22 28 27 18 29 19 14
  22279731.173    12367278.052 7   1898189.087 4
  24660651.756    -2294727.419 5  -3178101.229 2
  24889416.755    -4245888.962 5  -2346971.760 2
  21051275.245     3752301.539 9 -11515305.174 8
  20656563.129    12161153.509 8  -4689028.777 9
  22387100.643    11602806.160 7  -8140027.491 4
  22100462.328     4840756.729 7   6721403.234 5
 94  3 22 17 28 30.0000000  0  7 22 28 27 18 29 19 14
  22292696.597    12435405.261 7   1951275.170 4
  24646958.765    -2366662.453 5  -3234154.408 2
  24872835.444    -4333005.234 4  -2414854.413 2
  21040852.811     3697532.922 9 -11557982.004 8
  20655869.979    12157509.252 8  -4691868.455 9
  22374916.538    11538778.571 7  -8189919.067 4
  22117660.342     4931142.621 7   6791833.720 5
 94  3 22 17 29  0.0000000  0  7 22 28 27 18 29 19 14
  22305738.738    12503942.731 7   2004680.948 4
  24633300.131    -2438432.246 5  -3290078.851 2
  24856276.528    -4420023.224 4  -2482660.560 2
  21030482.510     3643026.323 9 -11600454.661 8
  20655242.063    12154200.216 8  -4694446.946 9
  22362770.956    11474968.805 7  -8239640.937 4
  22134924.611     5021862.048 7   6862524.108 5
 94  3 22 17 29 30.0000000  0  7 22 28 27 18 29 19 14
  22318859.425    12572890.668 7   2058406.566 3
  24619675.463    -2510030.911 4  -3345869.957 2
  24839721.778    -4506954.500 3  -2550399.089 2
  21020156.279     3588770.121 9 -11642732.207 8
  20654672.997    12151222.792 8  -4696767.025 9
  22350673.011    11411358.509 7  -8289207.344 4
  22152246.379     5112895.078 7   6933458.845 5
 94  3 22 17 30  0.0000000  0  7 22 28 27 18 29 19 14
  22332058.598    12642261.666 7   2112461.831 3
  24606087.430    -2581431.464 4  -3401506.626 2
  24823210.589    -4593789.752 4  -2618062.857 2
  21009881.222     3534775.996 9 -11684805.535 8
  20654175.162    12148585.596 8  -4698821.990 9
  22338607.324    11347960.679 7  -8338608.200 4
  22169633.142     5204255.627 7   7004648.797 5
 94  3 22 17 30 30.0000000  0  7 22 28 27 18 29 19 14
  22345344.140    12712063.453 7   2166852.778 3
  24592541.818    -2652632.215 4  -3456987.649 2
  24806703.057    -4680528.078 4  -2685651.108 2
  20999659.049     3481047.288 9 -11726672.042 8
  20653735.636    12146297.463 8  -4700604.963 9
  22326583.548    11284782.946 7  -8387837.536 4
  22187078.635     5295948.378 7   7076097.607 5
 94  3 22 17 31  0.0000000  0  7 22 28 27 18 29 19 14
  22358706.939    12782289.752 7   2221574.533 3
  24579030.411    -2723636.556 4  -3512315.580 2
  24790216.001    -4767188.963 5  -2753179.005 2
  20989483.553     3427577.024 9 -11768337.184 8
  20653365.483    12144353.164 8  -4702120.009 9
  22314600.094    11221825.225 7  -8436895.463 4
  22204593.919     5387971.833 7   7147804.116 6
 94  3 22 17 31 30.0000000  0  7 22 28 27 18 29 19 14
  22372149.034    12852932.822 7   2276621.075 3
  24565552.822    -2794463.566 4  -3567505.421 1
  24773735.750    -4853766.203 4  -2820641.768 2
  20979362.230     3374381.374 9 -11809788.324 8
  20653057.596    12142745.336 9  -4703372.856 9
  22302662.808    11159078.625 7  -8485788.896 4
  22222170.661     5480328.372 7   7219770.142 6
 94  3 22 17 32  0.0000000  0  7 22 28 27 18 29 19 14
  22385671.352    12923984.957 7   2331986.342 4
  24552094.748    -2865133.386 4  -3622572.760 1
  24757277.773    -4940242.794 4  -2888026.047 2
  20969290.672     3321465.485 9 -11851021.455 8
  20652818.331    12141472.847 9  -4704364.407 9
  22290767.133    11096552.636 7  -8534510.404 4
  22239805.083     5573016.551 7   7291994.626 6
 94  3 22 17 32 30.0000000  0  7 22 28 27 18 29 19 14
  22399268.469    12995453.623 7   2387676.184 4
  24538684.192    -2935633.939 4  -3677508.118 1
  24740844.560    -5026620.037 4  -2955332.930 2
  20959274.546     3268825.743 9 -11892039.437 9
  20652642.893    12140552.523 9  -4705081.559 9
  22278907.223    11034246.921 7  -8583060.274 4
  22257510.016     5666027.414 7   7364470.515 6
 94  3 22 17 33  0.0000000  0  7 22 28 27 18 29 19 14
  22412951.237    13067340.338 7   2443691.772 4
  24525308.592    -3005955.311 4  -3732303.934 1
  24724435.300    -5112895.714 4  -3022560.628 2
  20949308.845     3216453.805 9 -11932848.727 9
  20652536.556    12139972.364 9  -4705533.641 9
  22267091.114    10972162.417 7  -8631437.774 4
  22275261.357     5759346.775 6   7437186.839 6
 94  3 22 17 33 30.0000000  0  7 22 28 27 18 29 19 14
  22426707.394    13139636.474 7   2500026.374 4
  24511950.979    -3076094.407 4  -3786957.618 1
  24708043.877    -5199054.065 3  -3089696.998 2
  20939391.591     3164342.962 9 -11973454.565 9
  20652486.341    12139727.771 9  -4705724.248 9
  22255320.212    10910292.234 7  -8679648.277 4
  22293073.616     5852961.977 6   7510133.647 6
 94  3 22 17 34  0.0000000  0  7 22 28 27 18 29 19 14
  22440545.604    13212340.372 7   2556678.721 5
  24498648.678    -3146018.760 4  -3841444.051 1
  24691643.821    -5285094.844 3  -3156741.707 2
  20929522.303     3112480.481 9 -12013866.897 9
  20652505.228    12139821.790 9  -4705650.999 9
  22243588.524    10848642.984 7  -8727686.612 4
  22310947.572     5946864.054 6   7583304.030 6
 94  3 22 17 34 30.0000000  0  7 22 28 27 18 29 19 14
  22454455.464    13285445.078 7   2613643.388 5
  24485377.256    -3215722.718 4  -3895758.751 1
  24675311.277    -5371029.617 4  -3223703.774 2
  20919701.882     3060872.164 9 -12054081.155 9
  20652582.305    12140239.390 9  -4705325.606 9
  22231893.560    10787205.761 7  -8775559.758 4
  22328870.365     6041041.628 6   7656689.062 6
 94  3 22 17 35  0.0000000  0  7 22 28 27 18 29 19 14
  22468442.401    13358950.611 7   2670920.378 5
  24472170.829    -3285213.803 4  -3949907.561 1
  24658972.828    -5456841.387 3  -3290570.022 2
  20909933.474     3009540.859 9 -12094079.576 9
  20652725.246    12140972.216 9  -4704754.592 9
  22220248.242    10725993.993 7  -8823257.192 5
  22346843.282     6135492.617 6   7730287.169 6
 94  3 22 17 35 30.0000000  0  7 22 28 27 18 29 19 14
  22482501.888    13432843.256 7   2728499.030 5
  24458973.755    -3354498.424 4  -4003895.471 1
  24642655.065    -5542536.036 3  -3357345.008 2
  20900219.629     2958493.413 9 -12133856.804 9
  20652923.139    12142020.762 9  -4703937.578 9
  22208640.008    10665001.898 7  -8870783.493 5
  22364865.366     6230211.521 6   7804093.990 5
 94  3 22 17 36  0.0000000  0  7 22 28 27 18 29 19 14
  22496633.475    13507119.773 6   2786376.797 5
  24445830.104    -3423575.429 4  -4057721.649 1
  24626373.007    -5628133.378 4  -3424044.136 2
  20890559.297     2907727.616 9 -12173414.562 9
  20653180.900    12143381.768 9  -4702877.044 9
  22197075.275    10604240.686 7  -8918129.873 5
  22382932.838     6325186.350 6   7878100.270 5
 94  3 22 17 36 30.0000000  0  7 22 28 27 18 29 19 14
  22510840.579    13581780.992 7   2844554.313 5
  24432726.475    -3492457.450 5  -4111395.808 2
  24610099.882    -5713640.081 3  -3490672.620 2
  20880956.315     2857258.570 9 -12212741.074 9
  20653501.289    12145061.640 8  -4701568.082 9
  22185563.994    10543718.457 6  -8965290.047 5
  22401058.440     6420422.333 6   7952310.038 5
 94  3 22 17 37  0.0000000  0  7 22 28 27 18 29 19 14
  22525122.662    13656809.998 7   2903018.424 5
  24419656.454    -3561143.406 5  -4164917.257 2
  24593846.155    -5799072.953 3  -3557243.665 2
  20871401.629     2807060.737 9 -12251856.253 9
  20653882.924    12147069.955 8  -4700003.167 9
  22174094.204    10483432.602 6  -9012266.011 5
  22419229.550     6515914.029 6   8026719.070 5
 94  3 22 17 37 30.0000000  0  7 22 28 27 18 29 19 14
  22539468.930    13732203.325 7   2961766.426 4
  24406625.585    -3629616.564 5  -4218272.895 2
  24577602.770    -5884435.834 3  -3623760.103 1
  20861902.405     2757127.669 9 -12290765.119 9
  20654331.534    12149429.385 8  -4698164.660 9
  22162659.640    10423376.441 7  -9059063.016 5
  22437460.349     6611677.660 7   8101339.978 5
 94  3 22 17 38  0.0000000  0  7 22 28 27 18 29 19 14
  22553890.117    13807969.979 7   3020805.329 4
  24393636.837    -3697866.800 5  -4271454.812 2
  24561379.441    -5969729.238 4  -3690222.436 1
  20852450.999     2707466.988 9 -12329461.743 9
  20654850.235    12152151.534 8  -4696043.528 9
  22151271.754    10363546.366 7  -9105683.859 5
  22455734.469     6707726.235 7   8176182.884 5
 94  3 22 17 38 30.0000000  0  7 22 28 27 18 29 19 14
  22568375.908    13884113.487 7   3080137.881 5
  24380694.736    -3765893.167 4  -4324462.303 2
  24545163.277    -6054946.913 4  -3756625.797 2
  20843053.824     2658082.314 9 -12367943.291 9
  20655437.408    12155241.564 8  -4693635.721 9
  22139933.363    10303922.300 7  -9152144.148 5
  22474069.445     6804074.846 7   8251259.643 5
 94  3 22 17 39  0.0000000  0  7 22 28 27 18 29 19 14
  22582937.967    13960629.530 7   3139760.712 5
  24367787.742    -3833681.248 5  -4377284.078 2
  24528957.816    -6140086.661 4  -3822968.363 2
  20833707.404     2608968.018 9 -12406214.163 9
  20656097.311    12158696.341 8  -4690943.711 9
  22128617.637    10244483.377 7  -9198460.185 5
  22492458.865     6900718.116 7   8326565.999 5
 94  3 22 17 39 30.0000000  0  7 22 28 27 18 29 19 14
  22597571.527    14037535.492 7   3199687.392 5
  24354941.935    -3901217.231 4  -4429909.418 2
  24512776.398    -6225130.311 3  -3889236.072 2
  20824420.464     2560166.682 9 -12444241.150 9
  20656825.327    12162521.254 8  -4687963.257 9
  22117345.470    10185235.629 7  -9244627.253 5
  22510907.013     6997666.455 7   8402110.040 4
 94  3 22 17 40  0.0000000  0  8 31 22 28 27 18 29 19 14
  24778469.772   -18064455.27615  -3286474.061 2
  22612279.015    14114825.821 7   3259913.586 5
  24342137.679    -3968505.403 5  -4482341.709 2
  24496611.709    -6310078.686 3  -3955429.615 1
  20815194.201     2511687.429 9 -12482017.179 9
  20657622.356    12166699.386 7  -4684707.578 9
  22106105.502    10126184.799 7  -9290640.875 5
  22529408.825     7094902.578 7   8477878.349 4
 94  3 22 17 40 30.0000000  0  8 31 22 28 27 18 29 19 14
  24761380.133   -18154237.808 4  -3356434.324 2
  22627059.832    14192481.311 6   3320424.286 5
  24329373.385    -4035542.504 5  -4534578.297 2
  24480466.716    -6394920.060 4  -4021539.724 1
  20806030.685     2463526.496 9 -12519545.162 9
  20658480.721    12171226.621 7  -4681179.874 9
  22094909.482    10067347.207 7  -9336488.314 5
  22547966.638     7192410.860 7   8553858.720 4
 94  3 22 17 41  0.0000000  0  8 31 22 28 27 18 29 19 14
  24744290.134   -18244032.385 5  -3426404.010 2
  22641901.658    14270490.775 6   3381210.820 5
  24316669.830    -4102324.191 5  -4586615.880 2
  24464350.563    -6479645.697 4  -4087559.652 1
  20796926.048     2415685.069 9 -12556824.198 9
  20659406.810    12176099.831 8  -4677382.562 9
  22083757.083    10008740.320 7  -9382156.014 4
  22566568.849     7290173.079 7   8630036.971 4
 94  3 22 17 41 30.0000000  0  8 31 22 28 27 18 29 19 14
  24727211.498   -18333842.133 4  -3496385.480 2
  22656813.095    14348840.220 6   3442262.300 5
  24304007.825    -4168869.912 5  -4638469.584 2
  24448252.757    -6564249.554 4  -4153484.641 1
  20787880.110     2368147.722 9 -12593866.261 9
  20660398.524    12181312.517 8  -4673320.738 9
  22072653.100     9950379.348 8  -9427632.042 4
  22585221.816     7388176.129 7   8706402.875 4
 94  3 22 17 42  0.0000000  0  8 31 22 28 27 18 29 19 14
  24710110.317   -18423670.011 4  -3566381.032 2
  22671779.723    14427522.721 6   3503573.303 4
  24291391.000    -4235177.009 5  -4690137.309 2
  24432172.579    -6648724.249 4  -4219309.017 1
  20778887.865     2320888.178 9 -12630691.866 9
  20661457.990    12186870.239 8  -4668990.052 9
  22061593.337     9892272.272 8  -9472910.229 4
  22603916.005     7486416.172 7   8782953.453 4
 94  3 22 17 42 30.0000000  0  8 31 22 28 27 18 29 19 14
  24693014.202   -18513512.383 5  -3636387.889 2
  22686819.981    14506534.225 6   3565140.639 4
  24278817.914    -4301234.275 5  -4741610.395 2
  24416117.434    -6733072.802 5  -4285035.063 1
  20769947.634     2273898.101 9 -12667307.506 9
  20662580.503    12192779.832 8  -4664385.172 9
  22050585.168     9834412.023 8  -9517996.113 4
  22622654.622     7584891.937 7   8859687.702 4
 94  3 22 17 43  0.0000000  0  8 31 22 28 27 18 29 19 14
  24675921.745   -18603379.203 4  -3706413.847 2
  22701922.986    14585893.193 6   3626978.732 4
  24266298.461    -4367048.277 5  -4792893.913 2
  24400094.366    -6817307.970 4  -4350672.838 1
  20761054.681     2227176.024 9 -12703714.305 9
  20663776.825    12199045.289 8  -4659503.009 9
  22039618.190     9776786.430 8  -9562899.142 4
  22641440.487     7683603.371 7   8936605.580 4
 94  3 22 17 43 30.0000000  0  8 31 22 28 27 18 29 19 14
  24658803.026   -18693265.654 4  -3776455.107 2
  22717089.366    14665608.665 6   3689094.625 4
  24253814.654    -4432605.656 5  -4843977.451 2
  24384081.132    -6901435.042 5  -4416226.331 1
  20752217.938     2180734.993 9 -12739902.123 9
  20665034.784    12205677.783 8  -4654334.841 9
  22028697.140     9719396.132 8  -9607618.814 4
  22660269.342     7782562.726 7   9013716.685 4
 94  3 22 17 44  0.0000000  0  8 31 22 28 27 18 29 19 14
  24641707.361   -18783164.977 5  -3846506.355 2
  22732329.376    14745683.946 7   3751490.897 4
  24241402.796    -4497887.472 5  -4894846.310 2
  24368093.440    -6985467.852 4  -4481706.412 1
  20743437.377     2134592.747 9 -12775857.109 9
  20666373.687    12212692.009 8  -4648869.213 9
  22017821.299     9662241.663 8  -9652154.718 4
  22679144.755     7881774.300 7   9091024.274 4
 94  3 22 17 44 30.0000000  0  8 31 22 28 27 18 29 19 14
  24624586.843   -18873083.163 5  -3916572.326 2
  22747637.198    14826122.393 7   3814170.151 4
  24229027.603    -4562897.981 5  -4945503.765 2
  24352113.153    -7069417.426 5  -4547121.544 1
  20734716.205     2088766.782 9 -12811565.636 9
  20667778.725    12220085.038 8  -4643108.435 8
  22006989.528     9605317.953 8  -9696510.837 4
  22698074.820     7981233.658 7   9168524.970 4
 94  3 22 17 45  0.0000000  0  8 31 22 28 27 18 29 19 14
  24607483.354   -18963005.878 5  -3986641.842 2
  22763013.554    14906937.055 6   3877142.578 5
  24216709.461    -4627642.978 5  -4995954.294 2
  24336149.115    -7153268.658 4  -4612460.105 1
  20726057.329     2043270.445 9 -12847017.316 9
  20669259.280    12227854.936 9  -4637053.979 8
  21996203.205     9548626.833 8  -9740685.687 4
  22717053.151     8080947.692 7   9246224.116 4
 94  3 22 17 45 30.0000000  0  8 31 22 28 27 18 29 19 14
  24590363.376   -19052924.092 5  -4056707.842 2
  22778464.377    14988112.879 6   3940396.428 5
  24204437.427    -4692120.235 5  -5046196.187 2
  24320225.818    -7237011.770 5  -4677714.386 2
  20717466.776     1998110.712 9 -12882206.694 9
  20670805.339    12235992.277 9  -4630713.211 8
  21985455.496     9492162.912 7  -9784683.494 4
  22736075.912     8180922.749 6   9324126.653 4
 94  3 22 17 46  0.0000000  0  8 31 22 28 27 18 29 19 14
  24573261.355   -19142831.841 5  -4126765.729 2
  22793979.506    15069648.553 6   4003930.677 5
  24192218.935    -4756333.794 5  -5096232.663 2
  24304312.624    -7320642.160 5  -4742880.884 2
  20708932.135     1953279.724 9 -12917139.935 9
  20672422.030    12244482.375 9  -4624097.568 8
  21974750.867     9435907.558 7  -9828518.814 4
  22755148.079     8281146.262 6   9402222.795 4
 94  3 22 17 46 30.0000000  0  8 31 22 28 27 18 29 19 14
  24556144.195   -19232734.668 5  -4196819.752 2
  22809559.990    15151542.471 6   4067744.080 5
  24180051.019    -4820281.812 5  -5146062.203 2
  24288415.470    -7404149.576 5  -4807951.506 2
  20700463.058     1908774.210 9 -12951819.549 9
  20674098.589    12253301.486 9  -4617225.534 8
  21964081.673     9379839.600 7  -9872208.080 4
  22774263.895     8381613.971 6   9480509.201 4
 94  3 22 17 47  0.0000000  0  8 31 22 28 27 18 29 19 14
  24539041.275   -19322625.176 5  -4266864.177 2
  22825210.596    15233779.014 6   4131824.479 5
  24167931.010    -4883960.270 5  -5195681.688 2
  24272552.522    -7487532.895 6  -4872925.468 2
  20692056.757     1864584.849 9 -12986252.799 9
  20675840.324    12262450.422 9  -4610096.520 9
  21953452.831     9323963.002 7  -9915748.253 4
  22793428.997     8482322.364 6   9558983.186 4
 94  3 22 17 47 30.0000000  0  8 31 22 28 27 18 29 19 14
  24521938.175   -19412507.931 5  -4336902.563 2
  22840922.179    15316338.539 6   4196156.522 5
  24155868.320    -4947356.956 5  -5245081.624 2
  24256702.734    -7570807.700 5  -4937814.844 2
  20683705.349     1820708.948 9 -13020441.802 9
  20677648.882    12271939.955 9  -4602702.094 9
  21942854.448     9268285.375 7  -9959133.375 4
  22812637.570     8583255.271 6   9637632.075 4
 94  3 22 17 48  0.0000000  0  8 31 22 28 27 18 29 19 14
  24504836.395   -19502382.420 5  -4406934.540 2
  22856694.739    15399219.284 6   4260738.831 5
  24143858.904    -5010455.051 5  -5294248.897 2
  24240879.568    -7653974.721 5  -5002620.225 2
  20675416.147     1777145.960 9 -13054386.968 9
  20679520.096    12281788.902 9  -4595027.587 9
  21932301.184     9212829.083 7 -10002346.022 4
  22831883.466     8684400.214 6   9716446.212 4
 94  3 22 17 48 30.0000000  0  8 31 22 28 27 18 29 19 14
  24487732.276   -19592254.373 5  -4476964.606 2
  22872521.833    15482397.690 6   4325553.119 5
  24131904.140    -5073272.597 5  -5343197.547 2
  24225061.169    -7737049.302 5  -5067353.638 2
  20667186.215     1733887.918 9 -13088094.530 9
  20681462.451    12292000.874 9  -4587070.230 9
  21921796.156     9157609.330 7 -10045374.372 4
  22851166.327     8785742.202 6   9795413.905 4
 94  3 22 17 49  0.0000000  0  8 31 22 28 27 18 29 19 14
  24470631.574   -19682107.567 5  -4546979.952 2
  22888405.077    15565865.878 6   4390593.196 5
  24120006.577    -5135824.272 5  -5391939.059 2
  24209273.049    -7820047.179 5  -5132027.242 2
  20659010.695     1690930.677 9 -13121567.704 9
  20683480.115    12302585.104 9  -4578822.787 9
  21911334.779     9102632.720 7 -10088213.281 5
  22870484.173     8887264.012 6   9874521.698 4
 94  3 22 17 49 30.0000000  0  8 31 22 28 27 18 29 19 14
  24453539.897   -19771933.627 5  -4616974.210 2
  22904344.982    15649631.830 6   4455865.291 5
  24108155.601    -5198094.863 5  -5440461.522 2
  24193492.334    -7902964.615 5  -5196638.166 2
  20650894.323     1648280.433 9 -13154801.655 9
  20685560.375    12313537.808 9  -4570288.224 9
  21900911.924     9047894.470 6 -10130866.439 5
  22889838.954     8988965.090 6   9953769.208 4
 94  3 22 17 50  0.0000000  0  8 31 22 28 27 18 29 19 14
  24436452.926   -19861719.876 5  -4686937.413 2
  22920342.207    15733701.466 6   4521374.018 5
  24096353.761    -5260076.457 5  -5488758.830 2
  24177736.981    -7985787.755 6  -5261175.602 2
  20642838.091     1605945.888 9 -13187789.614 9
  20687712.525    12324846.734 9  -4561476.087 9
  21890540.005     8993393.571 6 -10173334.635 5
  22909224.764     9090855.773 6  10033164.438 4
 94  3 22 17 50 30.0000000  0  8 31 22 28 27 18 29 19 14
  24419380.884   -19951445.815 5  -4756853.776 2
  22936400.470    15818086.908 6   4587128.842 5
  24084622.223    -5321753.547 5  -5536818.805 2
  24161988.973    -8068521.474 5  -5325643.386 2
  20634846.313     1563944.100 9 -13220518.294 9
  20689931.888    12336503.715 9  -4552392.724 9
  21880212.934     8939116.962 7 -10215628.113 5
  22928656.172     9192945.136 6  10112714.473 4
 94  3 22 17 51  0.0000000  0  8 31 22 28 27 18 29 19 14
  24402324.972   -20041102.552 5  -4826716.066 2
  22952515.214    15902799.373 6   4653138.501 5
  24072949.774    -5383095.939 6  -5584617.970 2
  24146270.795    -8151145.288 5  -5390025.569 2
  20626918.691     1522291.676 9 -13252974.725 9
  20692217.776    12348521.575 8  -4543028.180 9
  21869925.765     8885064.885 6 -10257746.596 5
  22948122.026     9295249.616 6  10192432.128 4
 94  3 22 17 51 30.0000000  0  8 31 22 28 27 18 29 19 14
  24385267.740   -20130710.488 5  -4896540.406 2
  22968702.778    15987828.684 6   4719395.042 5
  24061342.679    -5444085.332 6  -5632142.092 2
  24130565.987    -8233642.260 5  -5454308.872 2
  20619060.981     1480995.543 9 -13285153.538 9
  20694573.425    12360903.072 8  -4533380.274 9
  21859681.348     8831234.205 7 -10299692.581 6
  22967640.463     9397777.195 6  10272323.677 4
 94  3 22 17 52  0.0000000  0  8 31 22 28 27 18 29 19 14
  24368229.216   -20220275.398 5  -4966331.169 1
  22984939.957    16073166.185 6   4785891.730 5
  24049799.380    -5504741.630 6  -5679406.717 2
  24114892.148    -8316023.027 5  -5518501.619 2
  20611270.394     1440054.569 9 -13317055.594 9
  20696999.735    12373653.650 8  -4523444.757 9
  21849487.145     8777619.797 7 -10341470.019 6
  22987182.765     9500522.438 6  10352384.835 4
 94  3 22 17 52 30.0000000  0  8 31 22 28 27 18 29 19 14
  24351192.700   -20309794.944 5  -5036086.682 1
  23001239.253    16158814.525 6   4852630.628 5
  24038312.383    -5565076.855 5  -5726421.109 2
  24099238.065    -8398286.783 5  -5582603.201 2
  20603544.803     1399462.232 9 -13348685.997 9
  20699504.141    12386798.251 7  -4513202.231 9
  21839324.360     8724225.184 7 -10383076.191 6
  23006782.356     9603486.839 6  10432616.717 4
 94  3 22 17 53  0.0000000  0  8 31 22 28 27 18 29 19 14
  24334155.615   -20399278.503 5  -5105813.984 1
  23017596.619    16244772.541 6   4919610.776 5
  24026894.697    -5625110.053 5  -5773200.145 2
  24083607.396    -8480420.201 5  -5646603.190 3
  20595884.956     1359208.492 9 -13380052.550 9
  20702082.866    12400347.790 7  -4502644.154 9
  21829205.196     8671051.554 7 -10424510.164 6
  23026420.381     9706661.466 6  10513012.394 4
 94  3 22 17 53 30.0000000  0  8 31 22 28 27 18 29 19 14
  24317144.431   -20488713.738 5  -5175503.741 1
  23034016.972    16331047.810 6   4986838.175 5
  24015524.079    -5684848.242 5  -5819749.199 2
  24067988.778    -8562431.054 5  -5710507.696 3
  20588288.185     1319291.155 9 -13411156.966 9
  20704740.197    12414299.257 7  -4491772.891 9
  21819125.154     8618101.968 7 -10465769.565 6
  23046091.563     9810050.307 6  10593575.013 4
 94  3 22 17 54  0.0000000  0  8 31 22 28 27 18 29 19 14
  24300139.543   -20578075.386 5  -5245136.143 1
  23050493.326    16417651.811 6   5054321.730 4
  24004212.939    -5744299.458 5  -5866074.756 2
  24052415.579    -8644330.288 5  -5774325.190 3
  20580757.458     1279712.266 9 -13441997.666 9
  20707471.156    12428665.967 7  -4480578.043 9
  21809099.644     8565391.622 8 -10506842.543 6
  23065807.774     9913644.985 6  10674298.051 4
 94  3 22 17 54 30.0000000  0  8 31 22 28 27 18 29 19 14
  24283145.448   -20667374.422 5  -5314719.767 1
  23067031.496    16504569.177 6   5122049.471 4
  23992960.199    -5803455.220 5  -5912170.118 2
  24036855.391    -8726113.485 4  -5838052.320 3
  20573289.568     1240465.997 9 -13472579.180 9
  20710279.552    12443441.310 7  -4469064.787 9
  21799110.860     8512904.292 8 -10547741.752 6
  23085549.227    10017425.659 6  10755165.992 4
 94  3 22 17 55  0.0000000  0  8 31 22 28 27 18 29 19 14
  24266157.139   -20756629.422 5  -5384268.971 1
  23083626.598    16591779.257 6   5190005.300 5
  23981756.146    -5862310.786 5  -5958031.560 2
  24021305.696    -8807787.902 4  -5901694.641 3
  20565882.536     1201544.812 9 -13502907.386 9
  20713166.583    12458601.446 7  -4457251.718 9
  21789163.866     8460624.681 8 -10588479.081 6
  23105329.563    10121364.115 6  10836156.890 4
 94  3 22 17 55 30.0000000  0  8 31 22 28 27 18 29 19 14
  24249177.764   -20845823.321 5  -5453770.592 1
  23100273.893    16679267.181 6   5258177.620 5
  23970614.599    -5920842.836 5  -6003640.889 2
  24005797.102    -8889351.249 5  -5965250.385 2
  20558542.267     1162967.842 9 -13532967.357 9
  20716127.034    12474149.544 7  -4445136.304 9
  21779254.376     8408571.681 8 -10629039.842 6
  23125138.889    10225459.861 6  10917270.349 4
 94  3 22 17 56  0.0000000  0  8 31 22 28 27 18 29 19 14
  24232220.903   -20934955.498 5  -5523224.177 1
  23116979.738    16767025.231 6   5326560.461 5
  23959539.246    -5979029.279 5  -6048980.889 2
  23990288.509    -8970792.682 4  -6028711.122 2
  20551270.322     1124747.464 9 -13562749.473 9
  20719161.263    12490092.041 7  -4432713.594 9
  21769393.992     8356749.397 8 -10669420.818 6
  23144975.797    10329702.863 6  10998498.559 4
 94  3 22 17 56 30.0000000  0  8 31 22 28 27 18 29 19 14
  24215275.973   -21024026.753 5  -5592630.361 1
  23133727.344    16855043.656 6   5395146.174 4
  23948542.529    -6036861.283 5  -6094044.756 2
  23974819.458    -9052111.239 4  -6092076.144 2
  20544062.382     1086881.186 9 -13592255.647 9
  20722264.355    12506410.274 8  -4419998.087 9
  21759573.151     8305147.342 8 -10709630.190 6
  23164840.165    10434095.583 6  11079843.431 4
 94  3 22 17 57  0.0000000  0  8 31 22 28 27 18 29 19 14
  24198341.657   -21113015.940 5  -5661972.476 1
  23150527.233    16943324.067 6   5463936.012 5
  23937605.620    -6094342.411 5  -6138835.169 2
  23959367.015    -9133319.632 4  -6155355.355 2
  20536927.981     1049377.923 9 -13621478.958 9
  20725438.318    12523094.260 8  -4406997.600 9
  21749800.127     8253788.560 8 -10749650.000 6
  23184735.562    10538643.453 6  11161309.189 4
 94  3 22 17 57 30.0000000  0  8 31 22 28 27 18 29 19 14
  24181426.827   -21201908.155 5  -5731238.990 1
  23167381.416    17031860.287 6   5532925.195 5
  23926730.379    -6151478.324 5  -6183356.638 2
  23943934.209    -9214426.965 4  -6218555.808 2
  20529861.752     1012249.272 9 -13650410.377 9
  20728683.421    12540140.450 8  -4393714.878 9
  21740074.799     8202677.510 8 -10789476.749 6
  23204661.207    10643359.932 6  11242906.324 4
 94  3 22 17 58  0.0000000  0  8 31 22 28 27 18 29 19 14
  24164532.682   -21290706.056 4  -5800432.048 1
  23184273.701    17120664.457 6   5602123.199 5
  23915919.324    -6208283.304 5  -6227620.247 2
  23928509.108    -9295434.681 4  -6281678.616 2
  20522866.305      975481.802 9 -13679060.336 9
  20731994.179    12557541.155 8  -4380155.899 9
  21730392.822     8151793.561 8 -10829126.557 5
  23224625.676    10748248.016 6  11324637.187 4
 94  3 22 17 58 30.0000000  0  8 31 22 28 27 18 29 19 14
  24147647.651   -21379418.172 4  -5869558.200 1
  23201223.217    17209740.979 6   5671533.417 5
  23905172.244    -6264772.930 5  -6271638.077 2
  23913114.915    -9376343.223 4  -6344724.167 2
  20515937.472      939078.292 9 -13707426.700 9
  20735367.983    12575290.872 8  -4366324.969 9
  21720752.996     8101131.433 8 -10868603.529 5
  23244618.505    10853306.946 6  11406501.161 4
 94  3 22 17 59  0.0000000  0  8 31 22 28 27 18 29 19 14
  24130782.047   -21468055.958 5  -5938626.552 1
  23218229.484    17299092.715 6   5741158.088 5
  23894487.371    -6320935.870 5  -6315401.421 2
  23897736.701    -9457146.620 4  -6407687.761 2
  20509079.150      903034.711 9 -13735512.611 9
  20738819.974    12593404.116 8  -4352210.788 9
  21711152.592     8050684.587 8 -10907912.711 5
  23264643.113    10958534.420 6  11488496.469 4
 94  3 22 17 59 30.0000000  0  8 31 22 28 27 18 29 19 14
  24113923.308   -21556623.040 4  -6007639.742 1
  23235286.476    17388735.287 6   5811009.366 5
  23883863.355    -6376744.355 5  -6358888.454 2
  23882397.490    -9537827.643 4  -6470556.037 2
  20502283.125      867338.385 9 -13763327.919 9
  20742338.338    12611889.684 8  -4337806.475 9
  21701592.150     8000437.946 8 -10947065.919 5
  23284697.789    11063944.658 6  11570634.168 4
 94  3 22 18  0  0.0000000  0  8 31 22 28 27 18 29 19 14
  24097086.124   -21645117.962 5  -6076596.724 1
  23252398.420    17478679.578 6   5881095.733 5
  23873315.398    -6432176.941 5  -6402082.555 2
  23867064.245    -9618382.284 5  -6533325.844 2
  20495558.600      831987.189 9 -13790874.296 9
  20745927.753    12630753.583 8  -4323107.358 9
  21692063.997     7950376.530 8 -10986074.773 5
  23304793.477    11169532.383 6  11652910.212 4
 94  3 22 18  0 30.0000000  0  8 31 22 28 27 18 29 19 14
  24080252.868   -21733542.410 5  -6145498.741 1
  23269568.913    17568897.427 6   5951395.274 5
  23862842.298    -6487220.736 4  -6444973.766 2
  23851748.658    -9698823.257 5  -6596007.076 2
  20488896.612      796976.735 9 -13818155.164 9
  20749587.559    12649995.342 8  -4308113.814 8
  21682571.968     7900499.342 8 -11024940.075 5
  23324912.729    11275291.274 6  11735319.629 4
 94  3 22 18  1  0.0000000  0  8 31 22 28 27 18 29 19 14
  24063452.049   -21821865.703 5  -6214321.989 1
  23286789.051    17659374.668 6   6021896.955 5
  23852447.294    -6541855.183 5  -6487546.035 2
  23836463.080    -9779150.133 5  -6658599.407 2
  20482300.788      762303.022 9 -13845173.652 9
  20753324.922    12669633.833 8  -4292811.134 8
  21673119.991     7850811.177 8 -11063658.079 5
  23345078.149    11381227.010 6  11817866.807 3
 94  3 22 18  1 30.0000000  0  8 31 22 28 27 18 29 19 14
  24046674.104   -21910066.238 5  -6283049.510 2
  23304051.161    17750108.238 6   6092598.375 5
  23842121.663    -6596088.297 5  -6529805.496 2
  23821199.896    -9859359.246 5  -6721099.932 2
  20475770.199      727995.351 9 -13871906.908 9
  20757140.411    12689673.292 8  -4277195.995 7
  21663699.793     7801331.870 8 -11102213.362 4
  23365266.113    11487329.134 6  11900543.624 3
 94  3 22 18  2  0.0000000  0  8 31 22 28 27 18 29 19 14
  24029907.671   -21998143.230 5  -6351680.825 2
  23321364.475    17841072.330 6   6163479.408 5
  23831875.176    -6649952.807 5  -6571777.734 2
  23805955.570    -9939470.684 5  -6783524.419 2
  20469314.199      694066.561 9 -13898344.916 9
  20761030.158    12710121.133 8  -4261262.644 7
  21654330.019     7752068.887 7 -11140600.060 4
  23385481.478    11593558.673 6  11983319.798 3
 94  3 22 18  2 30.0000000  0  8 31 22 28 27 18 29 19 14
  24013168.849   -22086101.102 5  -6420219.259 2
  23338717.692    17932253.458 6   6234529.549 5
  23821685.440    -6703475.804 5  -6613483.830 2
  23790729.830   -10019497.405 5  -6845882.748 2
  20462931.018      660510.612 9 -13924492.418 9
  20764999.230    12730979.823 8  -4245009.147 7
  21644994.122     7703042.707 7 -11178802.246 4
  23405717.709    11699898.190 6  12066181.635 3
 94  3 22 18  3  0.0000000  0  8 31 22 28 27 18 29 19 14
  23996456.829   -22173931.693 5  -6488658.577 2
  23356113.449    18023676.214 6   6305767.984 5
  23811564.117    -6756659.209 5  -6654925.386 2
  23775516.383   -10099431.655 5  -6908169.163 2
  20456616.219      627344.640 9 -13950336.034 9
  20769047.657    12752253.121 8  -4228432.569 7
  21635717.225     7654261.329 7 -11216813.673 5
  23425972.826    11806337.406 6  12149121.125 3
 94  3 22 18  3 30.0000000  0  8 31 22 28 27 18 29 19 14
  23979765.314   -22261638.473 5  -6557001.385 2
  23373560.651    18115357.642 6   6377207.981 5
  23801510.817    -6809502.905 5  -6696102.181 2
  23760317.774   -10179277.180 5  -6970386.362 1
  20450382.755      594586.420 9 -13975861.913 9
  20773170.553    12773921.064 8  -4211548.473 7
  21626479.240     7605734.915 7 -11254626.443 5
  23446241.075    11912876.889 6  12232138.730 3
 94  3 22 18  4  0.0000000  0  8 31 22 28 27 18 29 19 14
  23963098.622   -22349225.411 5  -6625250.837 2
  23391050.723    18207297.359 6   6448849.280 5
  23791521.253    -6862001.566 5  -6737010.195 2
  23745144.319   -10259035.155 5  -7032535.338 1
  20444224.778      562220.976 9 -14001081.736 9
  20777366.389    12795967.059 8  -4194369.788 7
  21617294.319     7557452.310 8 -11292249.219 5
  23466539.723    12019537.431 5  12315250.723 3
 94  3 22 18  4 30.0000000  0  8 31 22 28 27 18 29 19 14
  23946453.575   -22436691.663 5  -6693406.220 2
  23408597.995    18299500.488 6   6520695.775 5
  23781602.559    -6914134.880 5  -6777633.449 2
  23729990.140   -10338687.411 6  -7094601.997 1
  20438139.081      530241.502 9 -14026000.809 9
  20781632.645    12818384.127 8  -4176901.955 8
  21608151.818     7509401.492 8 -11329691.400 5
  23486866.910    12126340.285 6  12398473.605 3
 94  3 22 18  5  0.0000000  0  8 31 22 28 27 18 29 19 14
  23929831.462   -22524038.750 5  -6761468.728 2
  23426200.879    18391961.766 6   6592743.440 5
  23771751.349    -6965881.401 5  -6817955.307 2
  23714855.897   -10418218.208 6  -7156573.989 1
  20432126.473      498653.921 9 -14050614.507 9
  20785966.925    12841161.254 8  -4159153.552 8
  21599047.451     7461567.902 8 -11366964.301 6
  23507214.214    12233286.401 6  12481808.096 3
 94  3 22 18  5 30.0000000  0  8 31 22 28 27 18 29 19 14
  23913233.723   -22611270.179 5  -6829441.097 2
  23443829.005    18484662.740 6   6664977.863 5
  23761974.757    -7017248.565 5  -6857981.574 2
  23699749.025   -10497628.554 6  -7218452.095 2
  20426189.173      467451.086 9 -14074928.394 9
  20790369.287    12864300.181 8  -4141123.243 9
  21589986.373     7413951.947 8 -11404067.635 6
  23527589.189    12340375.085 6  12565253.698 2
 94  3 22 18  6  0.0000000  0  8 31 22 28 27 18 29 19 14
  23896652.142   -22698383.231 6  -6897321.259 2
  23461520.357    18577592.842 6   6737390.817 5
  23752277.251    -7068232.237 5  -6897708.988 2
  23684660.381   -10576907.396 6  -7280227.734 2
  20420323.045      436617.677 9 -14098954.423 9
  20794848.396    12887829.027 8  -4122789.092 9
  21580967.177     7366550.278 8 -11441003.977 6
  23548002.627    12447601.560 6  12648806.640 2
 94  3 22 18  6 30.0000000  0  8 31 22 28 27 18 29 19 14
  23880105.307   -22785354.654 5  -6965091.065 2
  23479243.248    18670751.286 6   6809981.704 5
  23742645.429    -7118820.669 5  -6937128.425 2
  23669592.272   -10656046.620 6  -7341894.592 2
  20414527.906      406164.785 9 -14122683.949 9
  20799404.162    12911774.271 8  -4104130.481 9
  21571986.534     7319376.274 8 -11477762.950 6
  23568430.605    12554959.841 6  12732462.271 2
 94  3 22 18  7  0.0000000  0  8 31 22 28 27 18 29 19 14
  23863578.858   -22872183.619 5  -7032749.822 3
  23497013.596    18764134.900 6   6882748.072 5
  23733093.411    -7169019.919 6  -6976244.641 2
  23654560.229   -10735052.996 6  -7403457.923 2
  20408806.397      376096.308 9 -14146113.925 9
  20804037.245    12936136.219 8  -4085147.154 9
  21563055.867     7272439.872 8 -11514336.732 7
  23588884.035    12662440.038 6  12816212.896 2
 94  3 22 18  7 30.0000000  0  8 31 22 28 27 18 29 19 14
  23847088.174   -22958859.850 5  -7100289.595 3
  23514828.913    18857738.034 6   6955685.498 5
  23723614.903    -7218833.348 6  -7015060.202 2
  23639552.318   -10813937.318 6  -7464926.171 2
  20403156.209      346397.313 9 -14169255.989 9
  20808757.777    12960922.420 7  -4065833.253 9
  21554169.719     7225735.446 8 -11550729.784 7
  23609359.321    12770043.572 5  12900059.657 2
 94  3 22 18  8  0.0000000  0  8 31 22 28 27 18 29 19 14
  23830625.671   -23045368.720 6  -7167698.938 3
  23532685.151    18951558.326 6   7028792.147 5
  23714215.031    -7268242.941 6  -7053561.145 2
  23624570.430   -10892692.947 6  -7526294.140 2
  20397574.523      317068.882 9 -14192109.312 9
  20813553.856    12986132.868 7  -4046188.748 9
  21545322.963     7179251.516 8 -11586951.000 7
  23629851.994    12877770.284 5  12984002.417 2
 94  3 22 18  8 30.0000000  0  8 31 22 28 27 18 29 19 14
  23814199.683   -23131712.014 5  -7234979.263 3
  23550576.195    19045594.385 6   7102066.907 5
  23704886.509    -7317250.423 6  -7091748.717 2
  23609603.082   -10971325.851 6  -7587566.455 2
  20392064.547      288125.785 9 -14214662.379 9
  20818425.334    13011750.652 7  -4026226.853 9
  21536523.545     7132980.371 8 -11623006.430 7
  23650372.728    12985607.146 5  13068030.976 2
 94  3 22 18  9  0.0000000  0  8 31 22 28 27 18 29 19 14
  23797789.403   -23217905.477 5  -7302142.846 3
  23568516.705    19139838.788 6   7175504.023 5
  23695640.280    -7365845.972 6  -7129615.331 2
  23594660.856   -11049838.629 6  -7648745.212 2
  20386629.850      259563.668 9 -14236918.573 9
  20823381.443    13037766.574 8  -4005954.708 9
  21527752.127     7086910.342 8 -11658905.148 7
  23670923.711    13093534.950 6  13152130.409 2
 94  3 22 18  9 30.0000000  0  8 31 22 28 27 18 29 19 14
  23781420.135   -23303937.649 5  -7369180.720 3
  23586486.685    19234292.784 6   7249104.445 5
  23686473.795    -7414019.370 6  -7167153.048 2
  23579737.308   -11128229.876 6  -7709829.196 2
  20381270.340      231394.914 8 -14258868.247 9
  20828404.915    13064183.364 8  -3985370.215 9
  21519021.421     7041036.115 8 -11694651.272 7
  23691470.376    13201545.442 5  13236294.218 2
 94  3 22 18 10  0.0000000  0  8 31 22 28 27 18 29 19 14
  23765079.918   -23389811.676 5  -7436095.419 2
  23604496.867    19328968.898 6   7322877.931 5
  23677386.127    -7461781.559 6  -7204370.339 2
  23564844.877   -11206501.902 6  -7770820.350 2
  20375987.847      203640.269 8 -14280495.246 9
  20833510.051    13090998.029 8  -3964475.691 9
  21510327.890     6995358.687 8 -11730244.076 7
  23712046.392    13309624.839 5  13320511.774 2
 94  3 22 18 10 30.0000000  0  8 31 22 28 27 18 29 19 14
  23748764.912   -23475535.874 5  -7502893.346 2
  23622559.243    19423867.513 6   7396824.847 5
  23668373.796    -7509136.543 6  -7241270.282 2
  23549974.782   -11284660.641 6  -7831723.202 2
  20370785.639      176300.726 8 -14301798.771 9
  20838686.597    13118211.589 9  -3943270.326 9
  21501675.460     6949883.516 8 -11765679.239 7
  23732624.176    13417771.683 5  13404781.892 2
 94  3 22 18 11  0.0000000  0  8 31 22 28 27 18 29 19 14
  23732483.783   -23561088.302 5  -7569557.424 2
  23640662.960    19518985.698 6   7470942.823 4
  23659438.212    -7556077.953 6  -7277848.044 2
  23535120.425   -11362700.673 5  -7892533.564 2
  20365658.768      149375.961 8 -14322779.119 9
  20843943.428    13145830.331 9  -3921749.265 9
  21493063.981     6904614.361 8 -11800953.900 7
  23753202.230    13526000.850 5  13489116.115 2
 94  3 22 18 11 30.0000000  0  8 31 22 28 27 18 29 19 14
  23716238.899   -23646453.995 5  -7636076.061 2
  23658802.442    19614331.667 6   7545238.291 4
  23650581.563    -7602621.257 6  -7314115.587 2
  23520303.812   -11440629.099 6  -7953256.945 2
  20360618.747      122873.037 8 -14343430.752 9
  20849276.646    13173854.136 9  -3899912.564 9
  21484488.478     6859563.418 8 -11836058.521 7
  23773831.039    13634327.900 5  13573526.594 2
 94  3 22 18 12  0.0000000  0  8 31 22 28 27 18 29 19 14
  23700031.010   -23731640.262 5  -7702454.825 2
  23676988.092    19709890.670 6   7619699.797 4
  23641804.689    -7648769.718 6  -7350075.379 2
  23505486.750   -11518452.855 6  -8013898.777 3
  20355652.895       96781.835 8 -14363761.561 9
  20854685.712    13202284.938 9  -3877758.728 9
  21475958.543     6814738.776 8 -11870986.809 7
  23794467.613    13742762.743 5  13658021.125 2
 94  3 22 18 12 30.0000000  0  8 31 22 28 27 18 29 19 14
  23683854.239   -23816647.082 5  -7768693.797 2
  23695209.178    19805632.951 6   7694304.094 4
  23633100.965    -7694511.039 6  -7385718.045 2
  23490699.667   -11596173.170 6  -8074460.008 3
  20350764.779       71088.542 8 -14383782.314 9
  20860170.804    13231111.553 9  -3855296.466 9
  21467474.267     6770153.922 8 -11905728.252 7
  23815118.906    13851312.489 5  13742605.176 2
 94  3 22 18 13  0.0000000  0  8 31 22 28 27 18 29 19 14
  23667706.428   -23901481.233 5  -7834798.162 2
  23713462.821    19901561.709 6   7769053.718 5
  23624474.197    -7739840.437 6  -7421039.623 2
  23475923.766   -11673792.714 6  -8134942.690 3
  20345952.090       45794.573 8 -14403491.891 9
  20865729.166    13260319.329 9  -3832537.188 9
  21459036.998     6725814.362 8 -11940278.547 7
  23835794.123    13959964.711 5  13827269.048 2
 94  3 22 18 13 30.0000000  0  8 31 22 28 27 18 29 19 14
  23651593.632   -23986167.500 5  -7900787.380 2
  23731757.086    19997676.659 6   7843948.382 5
  23615924.146    -7784762.281 6  -7456043.673 2
  23461175.086   -11751321.908 5  -8195355.029 3
  20341211.262       20887.311 8 -14422900.169 9
  20871358.819    13289896.959 9  -3809489.718 9
  21450644.668     6681722.748 8 -11974635.637 7
  23856472.428    14068701.330 5  13911998.699 2
 94  3 22 18 14  0.0000000  0  8 31 22 28 27 18 29 19 14
  23635509.557   -24070702.528 5  -7966658.765 2
  23750077.344    20093975.633 6   7918986.485 5
  23607462.864    -7829250.011 6  -7490709.438 2
  23446434.591   -11828747.459 5  -8255686.564 3
  20336543.914       -3630.068 8 -14442004.621 9
  20877057.844    13319847.461 9  -3786151.685 9
  21442301.234     6637871.071 8 -12008805.768 7
  23877197.920    14177520.938 5  13996792.996 2
 94  3 22 18 14 30.0000000  0  8 31 22 28 27 18 29 19 14
  23619457.380   -24155065.653 5  -8032396.242 2
  23768441.820    20190467.620 6   7994174.953 5
  23599078.748    -7873289.779 6  -7525026.148 2
  23431729.501   -11906057.211 5  -8315927.869 3
  20331956.969      -27752.648 8 -14460801.438 9
  20882825.731    13350157.598 8  -3762533.422 9
  21433999.051     6594251.226 8 -12042795.246 6
  23897919.245    14286411.757 5  14081642.832 2
 94  3 22 18 15  0.0000000  0  8 31 22 28 27 18 29 19 14
  23603428.646   -24239253.950 5  -8097997.385 2
  23786844.760    20287173.135 6   8069529.818 5
  23590781.122    -7916886.279 6  -7558997.413 2
  23417042.129   -11983246.931 5  -8376075.650 3
  20327442.844      -51477.190 8 -14479288.091 9
  20888664.219    13380844.202 8  -3738621.810 9
  21425735.572     6550838.163 8 -12076623.594 6
  23918648.874    14395357.038 5  14166535.064 2
 94  3 22 18 15 30.0000000  0  8 31 22 28 27 18 29 19 14
  23587453.995   -24323244.035 5  -8163444.147 2
  23805280.197    20384073.745 6   8145036.695 4
  23582571.875    -7960047.741 6  -7592629.733 2
  23402369.687   -12060316.992 5  -8436130.214 3
  20323001.839      -74806.572 8 -14497466.835 8
  20894581.162    13411923.779 8  -3714403.997 8
  21417513.854     6507616.117 8 -12110303.114 6
  23939390.285    14504356.147 5  14251469.225 2
 94  3 22 18 16  0.0000000  0  8 31 22 28 27 18 29 19 14
  23571515.200   -24406999.350 5  -8228707.922 2
  23823762.373    20481169.281 6   8220695.510 4
  23574439.435    -8002752.338 6  -7625905.989 2
  23387729.742   -12137243.288 5  -8496072.726 3
  20318643.906      -97714.277 8 -14515316.985 8
  20900570.926    13443411.071 8  -3689868.461 8
  21409328.230     6464591.988 8 -12143828.398 6
  23960148.155    14613419.961 5  14336453.845 2
 94  3 22 18 16 30.0000000  0  8 31 22 28 27 18 29 19 14
  23555616.906   -24490514.714 5  -8293784.814 2
  23842273.807    20578457.836 6   8296504.717 4
  23566400.530    -8045007.584 6  -7658832.088 2
  23373117.288   -12214019.655 5  -8555898.438 3
  20314364.668     -120194.337 8 -14532833.912 8
  20906646.730    13475325.049 8  -3665000.466 7
  21401179.572     6421770.457 8 -12177195.800 6
  23980910.221    14722537.471 5  14421480.245 2
 94  3 22 18 17  0.0000000  0  8 31 22 28 27 18 29 19 14
  23539773.444   -24573799.488 5  -8358681.998 2
  23860824.515    20675928.466 6   8372455.777 4
  23558446.707    -8086819.057 6  -7691412.416 2
  23358540.299   -12290647.270 5  -8615608.272 3
  20310166.314     -142237.973 7 -14550010.780 8
  20912803.208    13507693.201 8  -3639778.587 7
  21393068.837     6379159.448 8 -12210399.173 5
  24001683.290    14831714.249 5  14506552.930 3
 94  3 22 18 17 30.0000000  0  8 31 22 28 27 18 29 19 14
  23523967.966   -24656842.604 5  -8423390.829 2
  23879396.987    20773558.710 6   8448531.208 4
  23550572.808    -8128178.938 6  -7723640.837 2
  23343984.806   -12367136.428 5  -8675210.130 3
  20306056.340     -163846.974 7 -14566848.961 8
  20919048.394    13540505.085 8  -3614210.923 7
  21385007.148     6336778.665 8 -12243423.138 5
  24022467.512    14940949.345 5  14591670.966 3
 94  3 22 18 18  0.0000000  0  8 31 22 28 27 18 29 19 14
  23508210.994   -24739654.043 6  -8487919.191 2
  23898011.911    20871352.655 6   8524734.215 4
  23542791.005    -8169086.455 6  -7755516.755 2
  23329461.030   -12443492.091 6  -8734708.027 3
  20302027.609     -185017.984 7 -14583345.865 8
  20925376.773    13573758.487 8  -3588299.192 7
  21376988.809     6294634.014 8 -12276263.090 5
  24043262.826    15050235.269 5  14676828.660 3
 94  3 22 18 18 30.0000000  0  8 31 22 28 27 18 29 19 14
  23492495.124   -24822253.375 6  -8552282.293 2
  23916653.485    20969312.969 6   8601066.853 4
  23535084.390    -8209555.234 6  -7787050.798 2
  23314951.345   -12519730.114 6  -8794114.224 3
  20298078.563     -205762.937 7 -14599510.758 9
  20931786.875    13607456.057 8  -3562041.388 7
  21369009.233     6252724.593 8 -12308919.755 5
  24064074.688    15159571.354 5  14762025.364 3
 94  3 22 18 19  0.0000000  0  8 31 22 28 27 18 29 19 14
  23476814.510   -24904631.008 6  -8616472.647 2
  23935320.722    21067437.416 6   8677527.384 5
  23527472.480    -8249581.416 6  -7818239.914 2
  23300460.667   -12595864.241 6  -8853439.533 3
  20294214.028     -226086.457 7 -14615347.280 9
  20938279.601    13641575.479 8  -3535454.848 8
  21361080.472     6211052.302 8 -12341391.654 5
  24084892.036    15268964.443 5  14847266.539 3
 94  3 22 18 19 30.0000000  0  8 31 22 28 27 18 29 19 14
  23461188.247   -24986786.319 6  -8680489.740 2
  23954030.050    21165735.389 6   8754123.124 5
  23519936.926    -8289161.521 6  -7849081.526 2
  23285991.993   -12671897.420 6  -8912686.135 3
  20290426.060     -245995.528 7 -14630860.862 9
  20944847.874    13676090.098 8  -3508560.365 8
  21353194.731     6169598.799 8 -12373693.091 5
  24105720.237    15378405.263 5  14932544.923 3
 94  3 22 18 20  0.0000000  0  8 31 22 28 27 18 29 19 14
  23445589.866   -25068736.003 6  -8744346.611 2
  23972766.419    21264211.913 6   8830858.010 5
  23512493.020    -8328301.260 6  -7879579.933 2
  23271541.217   -12747820.476 6  -8971846.890 3
  20286717.238     -265479.090 7 -14646042.851 9
  20951490.825    13710991.307 8  -3481364.646 9
  21345344.276     6128347.901 9 -12405836.617 6
  24126555.363    15487892.717 5  15017859.584 2
 94  3 22 18 20 30.0000000  0  8 31 22 28 27 18 29 19 14
  23430033.965   -25150472.438 6  -8808037.268 2
  23991539.663    21362855.047 6   8907722.735 5
  23505130.297    -8366983.305 6  -7909721.770 2
  23257120.810   -12823627.784 6  -9030917.498 2
  20283089.539     -284538.091 7 -14660894.032 9
  20958205.336    13746278.469 8  -3453868.161 9
  21337532.044     6087296.081 8 -12437825.045 6
  24147401.432    15597433.043 5  15103215.471 2
 94  3 22 18 21  0.0000000  0  8 31 22 28 27 18 29 19 14
  23414525.251   -25231984.293 5  -8871552.948 2
  24010336.410    21461645.600 6   8984702.296 4
  23497859.610    -8405197.883 6  -7939499.283 2
  23242714.134   -12899316.534 6  -9089895.707 2
  20279547.192     -303168.559 7 -14675411.274 9
  20964992.068    13781948.364 8  -3426073.475 9
  21329757.016     6046441.115 8 -12469660.082 6
  24168247.051    15707021.501 5  15188608.945 2
 94  3 22 18 21 30.0000000  0  8 31 22 28 27 18 29 19 14
  23399051.644   -25313279.229 5  -8934899.636 2
  24029165.565    21560580.598 6   9061794.401 4
  23490675.414    -8442945.725 5  -7968913.076 3
  23228343.612   -12974879.927 6  -9148776.216 2
  20276080.811     -321372.387 7 -14689596.086 9
  20971854.347    13818008.895 8  -3397974.393 9
  21322018.324     6005785.613 8 -12501339.685 6
  24189113.985    15816639.807 6  15274025.569 2
 94  3 22 18 22  0.0000000  0  8 31 22 28 27 18 29 19 14
  23383629.240   -25394352.203 5  -8998073.323 2
  24048018.673    21659638.183 6   9138982.041 4
  23483578.277    -8480226.398 6  -7997962.950 3
  23213979.087   -13050325.184 6  -9207564.671 2
  20272696.814     -339154.372 7 -14703452.193 9
  20978793.883    13854477.519 9  -3369557.321 9
  21314324.150     5965351.050 8 -12532847.130 6
  24209981.219    15926286.263 6  15359464.139 2
 94  3 22 18 22 30.0000000  0  8 31 22 28 27 18 29 19 14
  23368250.187   -25475181.084 6  -9061056.759 2
  24066890.039    21758821.401 6   9216267.589 4
  23476574.825    -8517041.529 5  -8026650.006 3
  23199645.739   -13125662.112 6  -9266268.759 2
  20269391.422     -356523.438 7 -14716986.530 9
  20985812.235    13891358.238 9  -3340819.129 9
  21306675.366     5925146.461 8 -12564175.383 7
  24230848.363    16035962.736 5  15444926.107 2
 94  3 22 18 23  0.0000000  0  8 31 22 28 27 18 29 19 14
  23352909.717   -25555773.786 6  -9123856.193 2
  24085786.317    21858145.562 5   9293662.993 4
  23469653.397    -8553416.743 5  -8054994.279 3
  23185329.630   -13200899.604 6  -9324895.312 2
  20266168.054     -373469.601 7 -14730191.330 9
  20992905.774    13928628.367 8  -3311777.516 9
  21299069.391     5885175.133 9 -12595321.857 7
  24251717.395    16145644.407 6  15530392.145 2
 94  3 22 18 23 30.0000000  0  8 31 22 28 27 18 29 19 14
  23337617.094   -25636119.478 6  -9186463.145 3
  24104725.766    21957631.264 5   9371184.247 4
  23462818.699    -8589350.621 5  -8082994.633 3
  23171024.943   -13276036.695 6  -9383443.657 2
  20263022.152     -389989.210 7 -14743063.763 9
  21000072.252    13966289.861 8  -3282430.922 9
  21291506.557     5845434.086 9 -12626288.898 7
  24272589.786    16255321.260 6  15615854.438 2
 94  3 22 18 24  0.0000000  0  8 31 22 28 27 18 29 19 14
  23322379.543   -25716205.968 6  -9248868.109 3
  24123685.060    22057276.567 5   9448829.919 4
  23456058.768    -8624836.498 5  -8110645.925 3
  23156750.805   -13351075.022 6  -9441915.016 2
  20259965.917     -406061.399 7 -14755587.556 8
  21007311.371    14004336.580 8  -3252784.177 9
  21283988.331     5805916.961 9 -12657081.460 7
  24293463.375    16365007.757 6  15701324.196 2
 94  3 22 18 24 30.0000000  0  8 31 22 28 27 18 29 19 14
  23307189.419   -25796035.798 6  -9311073.046 3
  24142678.591    22157081.431 5   9526599.846 4
  23449396.421    -8659882.905 6  -8137954.789 3
  23142490.247   -13426013.009 6  -9500308.222 3
  20256994.674     -421674.100 7 -14767753.288 8
  21014622.350    14042752.130 8  -3222850.033 9
  21276504.852     5766601.079 9 -12687717.217 8
  24314339.603    16474698.351 6  15786797.216 2
 94  3 22 18 25  0.0000000  0  8 31 22 28 27 18 29 19 14
  23292042.135   -25875606.417 6  -9373075.983 3
  24161696.256    22257036.182 5   9604486.552 4
  23442811.599    -8694464.248 6  -8164901.251 3
  23128248.727   -13500834.365 6  -9558610.529 3
  20254110.431     -436825.221 7 -14779559.381 8
  21022005.159    14081549.067 8  -3192618.700 9
  21269060.046     5727473.555 8 -12718206.200 8
  24335211.094    16584395.470 5  15872275.271 2
 94  3 22 18 25 30.0000000  0  8 31 22 28 27 18 29 19 14
  23276957.688   -25954901.313 6  -9434864.076 3
  24180745.578    22357120.692 5   9682474.411 4
  23436326.459    -8728551.450 6  -8191462.648 4
  23114038.474   -13575529.759 6  -9616814.659 3
  20251312.318     -451524.175 7 -14791013.110 8
  21029464.655    14120755.955 8  -3162067.922 9
  21261650.735     5688528.537 8 -12748552.973 8
  24356100.303    16694125.410 5  15957778.834 2
 94  3 22 18 26  0.0000000  0  8 31 22 28 27 18 29 19 14
  23261912.243   -26033932.157 6  -9496446.387 3
  24199807.072    22457310.296 5   9760544.131 4
  23429930.267    -8762143.373 6  -8217638.116 4
  23099846.959   -13650094.931 6  -9674917.326 3
  20248602.734     -465778.029 7 -14802120.007 8
  21037003.625    14160369.188 8  -3131200.504 8
  21254272.273     5649769.016 8 -12778755.175 9
  24376983.276    16803889.836 5  16043309.365 2
 94  3 22 18 26 30.0000000  0  8 31 22 28 27 18 29 19 14
  23246926.428   -26112717.232 6  -9557837.209 3
  24218890.241    22557597.459 5   9838689.883 4
  23423635.495    -8795244.409 6  -8243431.100 4
  23085683.534   -13724529.252 6  -9732918.042 3
  20245967.588     -479611.174 7 -14812899.076 8
  21044621.082    14200398.800 7  -3100008.627 8
  21246932.245     5611193.931 8 -12808813.678 9
  24397866.908    16913675.207 5  16128856.165 2
 94  3 22 18 27  0.0000000  0  8 31 22 28 27 18 29 19 14
  23231984.022   -26191245.449 6  -9619027.886 3
  24237992.597    22657980.608 5   9916910.440 4
  23417432.099    -8827848.902 6  -8268837.163 4
  23071536.148   -13798830.832 6  -9790815.346 3
  20243414.496     -493037.997 7 -14823361.564 8
  21052321.011    14240851.463 8  -3068487.123 8
  21239629.630     5572822.766 8 -12838713.286 9
  24418773.985    17023480.407 5  16214418.401 2
 94  3 22 18 27 30.0000000  0  8 31 22 28 27 18 29 19 14
  23217088.024   -26269525.987 6  -9680025.555 3
  24257108.233    22758452.188 5   9995199.914 4
  23411318.731    -8859980.886 7  -8293875.024 4
  23057425.936   -13873011.025 6  -9848618.044 3
  20240936.171     -506052.515 7 -14833502.757 7
  21060096.099    14281720.206 8  -3036641.387 8
  21232371.445     5534677.803 8 -12868436.624 9
  24439663.943    17133287.999 5  16299982.527 2
 94  3 22 18 28  0.0000000  0  8 31 22 28 27 18 29 19 14
  23202236.546   -26347562.990 6  -9740833.459 4
  24276247.584    22859021.088 5  10073565.196 3
  23405294.492    -8891649.891 6  -8318552.113 4
  23043334.432   -13947078.282 6  -9906332.738 3
  20238541.579     -518650.176 7 -14843319.120 7
  21067948.353    14322992.669 8  -3004481.052 8
  21225155.890     5496763.821 8 -12897980.007 9
  24460557.139    17243072.351 5  16385528.509 2
 94  3 22 18 28 30.0000000  0  8 31 22 28 27 18 29 19 14
  23187429.646   -26425347.635 6  -9801444.727 4
  24295408.189    22959695.238 5  10152012.527 3
  23399349.457    -8922866.213 6  -8342876.493 4
  23029263.283   -14021040.796 6  -9963965.858 4
  20236225.383     -530822.424 7 -14852804.016 7
  21075882.720    14364670.572 8  -2972004.807 7
  21217985.364     5459073.823 8 -12927348.819 8
  24481440.831    17352826.727 5  16471051.171 2
 94  3 22 18 29  0.0000000  0  8 31 22 28 27 18 29 19 14
  23172684.984   -26502860.137 6  -9861843.976 4
  24314586.092    23060482.253 5  10230547.849 3
  23393495.470    -8953623.051 6  -8366842.834 4
  23015204.396   -14094901.243 6 -10021519.396 4
  20233993.098     -542541.931 7 -14861936.104 7
  21083887.718    14406745.787 8  -2939218.982 7
  21210853.542     5421605.365 8 -12956545.020 8
  24502321.196    17462546.756 5  16556547.005 2
 94  3 22 18 29 30.0000000  0  8 31 22 28 27 18 29 19 14
  23157983.851   -26580102.049 6  -9922032.380 3
  24333788.639    23161389.818 6  10309177.061 3
  23387734.478    -8983907.931 6  -8390441.395 4
  23001171.860   -14168658.442 6 -10078992.512 4
  20231849.342     -553804.834 7 -14870712.397 7
  21091968.834    14449215.120 8  -2906126.044 7
  21203764.709     5384342.521 8 -12985580.992 8
  24523195.655    17572220.117 5  16642006.560 2
 94  3 22 18 30  0.0000000  0  8 31 22 28 27 18 29 19 14
  23143339.170   -26657059.519 6  -9981999.136 3
  24353017.057    23262437.269 6  10387915.304 3
  23382063.244    -9013703.099 6  -8413658.395 4
  22987153.055   -14242303.018 6 -10136377.873 4
  20229797.623     -564603.312 7 -14879126.798 7
  21100125.287    14492075.395 8  -2872728.476 7
  21196713.860     5347281.145 8 -13014459.977 8
  24544046.520    17681856.731 5  16727437.393 2
 94  3 22 18 30 30.0000000  0  8 31 22 28 27 18 29 19 14
  23128751.658   -26733714.122 6 -10041729.900 3
  24372272.667    23363625.113 6  10466762.941 2
  23376490.402    -9043004.743 6  -8436490.817 4
  22973164.799   -14315817.612 6 -10193661.922 4
  20227832.303     -574922.473 7 -14887167.701 7
  21108356.539    14535331.031 8  -2839022.820 7
  21189697.728     5310424.302 8 -13043179.590 8
  24564912.705    17791475.839 5  16812854.642 2
 94  3 22 18 31  0.0000000  0  8 31 22 28 27 18 29 19 14
  23114224.256   -26810064.670 6 -10101223.763 3
  24391557.596    23464950.405 6  10545717.609 2
  23371008.727    -9071801.476 6  -8458929.849 4
  22959198.158   -14389208.598 6 -10250849.695 4
  20225958.270     -584783.659 7 -14894851.749 7
  21116662.888    14578977.298 8  -2805012.790 7
  21182723.296     5273778.674 8 -13071734.628 8
  24585773.373    17901071.182 5  16898253.359 2
 94  3 22 18 31 30.0000000  0  8 31 22 28 27 18 29 19 14
  23099759.060   -26886095.227 6 -10160468.283 3
  24410864.380    23566408.170 5  10624775.511 2
  23365622.656    -9100095.048 6  -8480976.750 4
  22945258.108   -14462474.771 5 -10307940.189 4
  20224164.792     -594193.400 7 -14902184.030 7
  21125044.876    14623027.702 8  -2770687.839 8
  21175791.585     5237355.219 8 -13100116.539 8
  24606620.461    18010650.860 5  16983639.886 2
 94  3 22 18 32  0.0000000  0  8 31 22 28 27 18 29 19 14
  23085342.310   -26961812.315 6 -10219468.577 3
  24430183.486    23667970.260 5  10703914.765 2
  23360328.621    -9127913.504 6  -8502653.483 4
  22931328.402   -14535642.595 5 -10364954.052 4
  20222462.211     -603148.176 7 -14909161.774 7
  21133504.869    14667476.914 8  -2736052.126 8
  21168902.594     5201142.595 8 -13128334.179 7
  24627469.947    18120216.414 5  17069015.388 2
 94  3 22 18 32 30.0000000  0  8 31 22 28 27 18 29 19 14
  23070999.280   -27037209.485 6 -10278219.556 3
  24449532.061    23769614.845 5  10783118.317 2
  23355124.314    -9155270.170 6  -8523970.375 4
  22917422.529   -14608723.407 6 -10421900.141 4
  20220843.331     -611661.103 7 -14915795.230 7
  21142038.072    14712324.479 8  -2701106.024 8
  21162046.700     5165126.697 9 -13156398.499 7
  24648317.635    18229756.440 5  17154371.055 2
 94  3 22 18 33  0.0000000  0  8 31 22 28 27 18 29 19 14
  23056710.092   -27112297.437 6 -10336729.601 2
  24468887.172    23871330.248 5  10862377.000 3
  23350009.345    -9182158.982 6  -8544922.705 4
  22903535.003   -14681727.617 6 -10478786.507 4
  20219303.657     -619742.951 7 -14922092.795 7
  21150647.152    14757564.871 8  -2665853.821 9
  21155232.417     5129306.442 9 -13184310.365 7
  24669148.774    18339253.201 5  17239692.900 2
 94  3 22 18 33 30.0000000  0  8 31 22 28 27 18 29 19 14
  23042481.702   -27187078.784 6 -10395000.768 2
  24488255.503    23973099.887 6  10941677.979 3
  23344979.457    -9208584.135 6  -8565513.754 4
  22889658.599   -14754641.179 6 -10535602.269 4
  20217849.874     -627382.867 7 -14928045.988 7
  21159327.163    14803182.342 8  -2630307.768 9
  21148450.332     5093666.809 9 -13212081.515 7
  24689980.452    18448702.340 5  17324977.620 2
 94  3 22 18 34  0.0000000  0  8 31 22 28 27 18 29 19 14
  23028307.694   -27261559.302 6 -10453037.472 2
  24507630.341    24074924.118 5  11021021.412 3
  23340039.537    -9234524.312 6  -8585726.880 4
  22875804.080   -14827448.808 6 -10592335.446 4
  20216475.715     -634592.429 7 -14933663.833 7
  21168079.034    14849165.669 8  -2594476.660 9
  21141703.893     5058210.280 9 -13239709.950 7
  24710794.743    18558097.216 5  17410220.100 2
 94  3 22 18 34 30.0000000  0  7 31 22 28 27 18 29 19
  23014193.076   -27335740.025 6 -10510840.623 2
  24527019.478    24176808.751 5  11100411.946 4
  23335199.148    -9259965.567 6  -8605551.245 4
  22861975.164   -14900125.401 6 -10648966.509 4
  20215185.618     -641386.983 7 -14938958.295 7
  21176896.650    14895506.227 8  -2558367.180 8
  21134989.651     5022945.531 9 -13267188.978 7
 94  3 22 18 35  0.0000000  0  7 31 22 28 27 18 29 19
  23000131.131   -27409636.456 6 -10568422.143 2
  24546416.499    24278750.290 4  11179846.862 4
  23330459.669    -9284898.716 6  -8624979.696 4
  22848172.419   -14972669.656 6 -10705494.472 4
  20213972.028     -647763.525 7 -14943927.038 7
  21185784.447    14942209.331 8  -2521975.177 8
  21128318.879     4987877.043 9 -13294515.063 7
 94  3 22 18 35 30.0000000  0  7 31 22 28 27 18 29 19
  22986123.808   -27483241.643 6 -10625776.838 2
  24565828.091    24380762.352 4  11259336.681 5
  23325811.177    -9309318.959 6  -8644008.501 3
  22834388.442   -15045077.684 6 -10761916.285 3
  20212836.654     -653718.513 7 -14948567.289 8
  21194745.123    14989302.091 8  -2485279.573 8
  21121682.793     4953004.807 9 -13321688.222 7
 94  3 22 18 36  0.0000000  0  7 31 22 28 27 18 29 19
  22972170.777   -27556550.863 6 -10682900.854 2
  24585257.071    24482846.503 3  11338882.658 5
  23321258.589    -9333233.861 6  -8662643.455 3
  22820633.304   -15117367.266 6 -10818245.787 3
  20211787.411     -659245.858 7 -14952874.325 8
  21203788.183    15036815.624 8  -2448256.093 8
  21115083.792     4918332.808 9 -13348705.344 6
 94  3 22 18 36 30.0000000  0  7 31 22 28 27 18 29 19
  22958275.187   -27629571.555 6 -10739800.098 2
  24604693.935    24584997.927 3  11418481.093 5
  23316803.343    -9356657.679 6  -8680895.789 3
  22806896.034   -15189552.447 6 -10874493.934 3
  20210817.942     -664320.966 7 -14956828.957 8
  21212910.867    15084758.874 8  -2410897.754 8
  21108523.973     4883850.749 9 -13375574.462 6
 94  3 22 18 37  0.0000000  0  7 31 22 28 27 18 29 19
  22944442.913   -27702281.017 6 -10796456.785 2
  24624133.677    24687226.144 3  11498139.308 5
  23312439.294    -9379575.093 6  -8698753.538 3
  22793179.360   -15261644.704 6 -10930669.665 3
  20209944.676     -668924.880 7 -14960416.420 8
  21222119.832    15133154.950 8  -2373186.570 8
  21101996.562     4849556.511 9 -13402297.219 6
 94  3 22 18 37 30.0000000  0  7 31 22 28 27 18 29 19
  22930670.327   -27774653.085 6 -10852850.578 2
  24643613.801    24789529.907 3  11577856.423 5
  23308172.498    -9401990.830 6  -8716220.318 2
  22779479.624   -15333645.490 6 -10986774.132 3
  20209158.261     -673061.054 7 -14963639.419 8
  21231410.281    15181978.354 7  -2335142.415 7
  21095503.747     4815436.319 9 -13428884.376 6
 94  3 22 18 38  0.0000000  0  7 31 22 28 27 18 29 19
  22916964.086   -27846669.111 6 -10908966.866 2
  24663091.497    24891902.397 4  11657627.067 5
  23304009.220    -9423898.489 6  -8733291.222 2
  22765794.968   -15405539.239 6 -11042795.210 3
  20208462.413     -676716.598 7 -14966487.901 8
  21240776.337    15231196.833 7  -2296790.400 7
  21089044.538     4781491.763 9 -13455334.641 6
 94  3 22 18 38 30.0000000  0  7 31 22 28 27 18 29 19
  22903324.638   -27918328.415 6 -10964805.232 2
  24682592.936    24994342.830 5  11737450.715 5
  23299938.428    -9445283.776 6  -8749955.093 2
  22752141.160   -15477317.135 7 -11098726.001 3
  20207858.601     -679890.001 7 -14968960.686 8
  21250210.475    15280769.728 7  -2258162.214 7
  21082617.228     4747720.646 9 -13481649.779 6
 94  3 22 18 39  0.0000000  0  7 31 22 28 27 18 29 19
  22889764.486   -27989616.136 6 -11020354.029 2
  24702100.911    25096848.062 5  11817324.823 5
  23295968.307    -9466139.640 6  -8766206.417 2
  22738502.312   -15548976.775 7 -11154564.636 3
  20207340.739     -682601.203 7 -14971073.329 8
  21259708.560    15330688.696 7  -2219264.357 7
  21076225.862     4714130.343 9 -13507824.024 6
 94  3 22 18 39 30.0000000  0  7 31 22 28 27 18 29 19
  22876262.043   -28060549.371 6 -11075626.656 2
  24721617.850    25199397.527 5  11897233.397 5
  23292099.605    -9486479.880 6  -8782055.890 2
  22724889.606   -15620508.548 7 -11210303.647 3
  20206915.693     -684853.530 7 -14972828.387 8
  21269273.918    15380944.868 7  -2180103.752 7
  21069872.001     4680737.344 9 -13533844.544 6
 94  3 22 18 40  0.0000000  0  7 31 22 28 27 18 29 19
  22862826.844   -28131152.740 6 -11130642.190 2
  24741131.791    25301988.977 5  11977174.771 5
  23288322.820    -9506313.423 6  -8797510.617 2
  22711301.783   -15691924.785 7 -11265952.630 2
  20206575.759     -686629.625 7 -14974212.374 8
  21278903.761    15431564.464 7  -2140659.946 7
  21063559.541     4647557.985 9 -13559698.587 7
 94  3 22 18 40 30.0000000  0  7 31 22 28 27 18 29 19
  22849451.784   -28201439.582 6 -11185411.076 3
  24760658.773    25404620.592 5  12057147.373 5
  23284643.916    -9525654.590 6  -8812581.628 2
  22697726.071   -15763248.259 7 -11321529.319 2
  20206328.820     -687935.985 7 -14975230.317 8
  21288612.510    15482572.708 8  -2100913.328 6
  21057289.172     4614605.071 9 -13585376.169 7
 94  3 22 18 41  0.0000000  0  7 31 22 28 27 18 29 19
  22836139.020   -28271407.934 6 -11239931.807 3
  24780205.151    25507290.938 6  12137150.193 4
  23281053.212    -9544513.159 6  -8827276.560 2
  22684173.294   -15834477.621 7 -11377032.683 3
  20206166.332     -688781.237 7 -14975888.971 8
  21298396.687    15534000.907 8  -2060839.451 6
  21051063.862     4581889.045 9 -13610869.184 7
 94  3 22 18 41 30.0000000  0  7 31 22 28 27 18 29 19
  22822888.613   -28341041.161 6 -11294191.377 3
  24799750.300    25610016.927 6  12217196.360 4
  23277556.133    -9562873.843 6  -8841583.513 2
  22670638.264   -15905596.953 7 -11432450.306 3
  20206097.890     -689140.076 7 -14976168.595 8
  21308267.623    15585862.775 8  -2020427.656 6
  21044884.210     4549415.928 9 -13636172.897 7
 94  3 22 18 42  0.0000000  0  7 31 22 28 27 18 29 19
  22809702.901   -28410328.806 6 -11348181.693 4
  24819316.645    25712808.709 6  12297293.798 3
  23274165.630    -9580722.128 6  -8855491.259 2
  22657125.538   -15976610.418 6 -11487785.446 3
  20206121.513     -689017.017 8 -14976072.714 8
  21318215.367    15638143.332 8  -1979689.616 6
  21038746.859     4517171.248 9 -13661298.632 7
 94  3 22 18 42 30.0000000  0  7 31 22 28 27 18 29 19
  22796589.050   -28479255.278 6 -11401890.558 4
  24838877.443    25815666.106 6  12377442.359 3
  23270865.815    -9598035.963 6  -8868982.515 2
  22643640.814   -16047495.089 7 -11543020.215 3
  20206231.807     -688437.201 8 -14975620.938 8
  21328242.105    15690825.900 8  -1938638.324 6
  21032651.358     4485148.894 9 -13686251.114 7
 94  3 22 18 43  0.0000000  0  6 31 28 27 18 29 19
  22783541.542   -28547809.328 6 -11455309.210 4
  23267675.244    -9614804.891 6  -8882049.156 2
  22630174.976   -16118244.479 6 -11598149.572 3
  20206429.040     -687398.566 8 -14974811.630 8
  21338341.633    15743898.610 8  -1897283.016 7
  21026598.759     4453333.818 8 -13711042.069 8
 94  3 22 18 43 30.0000000  0  6 31 28 27 18 29 19
  22770563.137   -28615984.552 6 -11508432.663 4
  23264589.210    -9631016.645 6  -8894681.643 2
  22616736.119   -16188851.948 6 -11653168.372 3
  20206714.802     -685885.570 8 -14973632.686 9
  21348513.951    15797348.073 8  -1855634.136 7
  21020582.494     4421724.110 8 -13735673.001 8
 94  3 22 18 44  0.0000000  0  6 31 28 27 18 29 19
  22757665.706   -28683774.541 6 -11561255.980 4
  23261606.665    -9646675.156 6  -8906883.073 2
  22603321.606   -16259314.872 6 -11708074.525 3
  20207096.978     -683888.248 8 -14972076.344 9
  21358757.950    15851191.595 8  -1813678.196 7
  21014607.870     4390336.043 8 -13760131.248 8
 94  3 22 18 44 30.0000000  0  6 31 28 27 18 29 19
  22744838.756   -28751173.305 5 -11613774.384 4
  23258733.094    -9661789.957 6  -8918660.827 2
  22589943.637   -16329642.561 6 -11762875.313 4
  20207570.980     -681398.860 8 -14970136.586 9
  21369081.273    15905438.125 8  -1771408.231 7
  21008679.564     4359167.571 8 -13784418.376 8
 94  3 22 18 45  0.0000000  0  6 31 28 27 18 29 19
  22732089.272   -28818179.628 6 -11665987.048 4
  23255964.211    -9676370.457 6  -8930022.206 2
  22576587.134   -16399844.076 6 -11817577.771 4
  20208140.585     -678404.552 8 -14967803.373 9
  21379481.763    15960094.093 8  -1728819.211 7
  21002788.762     4328214.843 8 -13808537.378 9
 94  3 22 18 45 30.0000000  0  6 31 28 27 18 29 19
  22719410.989   -28884804.697 6 -11717902.572 4
  23253285.475    -9690416.975 6  -8940967.505 2
  22563251.316   -16469920.381 6 -11872182.666 4
  20208803.906     -674910.025 8 -14965080.385 9
  21389957.111    16015147.452 8  -1685920.557 7
  20996938.612     4297470.866 8 -13832493.740 9
 94  3 22 18 46  0.0000000  0  6 31 28 27 18 29 19
  22706812.960   -28951027.010 6 -11769504.297 4
  23250719.132    -9703919.288 6  -8951488.767 2
  22549940.861   -16539867.205 6 -11926686.682 4
  20209567.058     -670908.434 8 -14961962.276 9
  21400513.613    16070619.964 8  -1642695.291 7
  20991127.195     4266934.851 8 -13856288.046 9
 94  3 22 18 46 30.0000000  0  6 31 28 27 18 29 19
  22694282.205   -29016846.290 6 -11820791.989 4
  23248256.517    -9716866.082 6  -8961577.160 2
  22536656.607   -16609676.313 6 -11981083.343 4
  20210421.616     -666405.333 8 -14958453.380 9
  21411148.121    16126501.813 8  -1599151.055 7
  20985354.601     4236590.340 8 -13879933.118 9
 94  3 22 18 47  0.0000000  0  6 31 28 27 18 29 19
  22681839.949   -29082263.442 6 -11871766.325 4
  23245894.062    -9729269.444 6  -8971242.074 3
  22523405.001   -16679335.076 6 -12035362.884 4
  20211376.006     -661400.865 9 -14954553.817 9
  21421860.185    16182797.236 7  -1555284.542 7
  20979616.274     4206440.798 8 -13903426.278 9
 94  3 22 18 47 30.0000000  0  6 31 28 27 18 29 19
  22669463.347   -29147263.826 6 -11922415.920 4
  23243639.293    -9741129.754 6  -8980483.826 3
  22510173.361   -16748848.349 6 -12089529.052 5
  20212423.301     -655895.441 9 -14950263.907 9
  21432651.844    16239505.120 7  -1511096.623 7
  20973914.491     4176480.125 8 -13926772.247 9
 94  3 22 18 48  0.0000000  0  7 31 28 27 18  2 29 19
  22657180.850   -29211831.840 6 -11972728.586 4
  23241482.646    -9752448.611 6  -8989303.719 3
  22496969.062   -16818220.986 6 -12143585.622 5
  20213564.161     -649895.387 9 -14945588.559 9
  25003290.672    -1937160.72314   -899439.646 2
  21443520.730    16296636.288 7  -1466578.868 7
  20968252.971     4146716.232 8 -13949964.895 9
 94  3 22 18 48 30.0000000  0  7 31 28 27 18  2 29 19
  22644973.871   -29275974.094 6 -12022709.474 4
  23239435.124    -9763227.760 6  -8997703.062 3
  22483796.032   -16887459.751 6 -12197537.858 5
  20214800.535     -643407.312 9 -14940532.933 9
  24984139.840    -2037819.208 4   -977874.600 2
  21454469.690    16354170.836 7  -1421746.785 7
  20962627.785     4117169.948 8 -13972987.974 9
 94  3 22 18 49  0.0000000  0  7 31 28 27 18  2 29 19
  22632851.733   -29339693.790 6 -12072361.120 3
  23237481.706    -9773465.606 6  -9005680.617 4
  22470641.918   -16956576.892 6 -12251395.364 5
  20216125.737     -636439.340 9 -14935103.365 9
  24965003.608    -2138380.510 4  -1056233.874 2
  21465494.168    16412097.134 7  -1376609.451 7
  20957050.176     4087853.430 9 -13995832.007 9
 94  3 22 18 49 30.0000000  0  7 31 28 27 18  2 29 19
  22620803.074   -29403002.402 6 -12121692.412 3
  23235646.317    -9783141.751 6  -9013220.440 4
  22457514.366   -17025583.644 6 -12305166.814 5
  20217541.297     -629002.029 9 -14929308.073 9
  24945885.513    -2238831.001 4  -1134506.831 2
  21476588.227    16470398.016 7  -1331180.238 7
  20951511.720     4058759.999 9 -14018502.195 9
 94  3 22 18 50  0.0000000  0  7 31 28 27 18  2 29 19
  22608832.061   -29465923.227 6 -12170721.535 3
  23233906.201    -9792266.192 6  -9020330.429 4
  22444404.682   -17094481.056 6 -12358853.080 5
  20219048.384     -621096.552 9 -14923147.978 9
  24926788.553    -2339174.035 4  -1212696.069 2
  21487754.627    16529064.656 7  -1285466.026 7
  20946022.071     4029902.964 9 -14040988.195 9
 94  3 22 18 50 30.0000000  0  7 31 28 27 18  2 29 19
  22596925.804   -29528455.646 6 -12219448.011 3
  23232281.476    -9800842.496 6  -9027013.287 4
  22431313.225   -17163245.977 6 -12412436.110 5
  20220643.250     -612711.781 9 -14916614.415 9
  24907716.866    -2439387.290 4  -1290784.203 2
  21498985.632    16588098.395 7  -1239465.760 7
  20940575.052     4001285.929 9 -14063287.188 9
 94  3 22 18 51  0.0000000  0  7 31 28 27 18  2 29 19
  22585107.595   -29590588.401 6 -12267863.095 3
  23230751.815    -9808868.600 6  -9033267.398 4
  22418256.484   -17231863.409 7 -12465904.198 5
  20222329.013     -603843.798 9 -14909704.312 9
  24888667.184    -2539460.158 4  -1368762.932 3
  21510293.384    16647519.895 7  -1193163.353 6
  20935173.211     3972890.728 9 -14085413.331 9
 94  3 22 18 51 30.0000000  0  7 31 28 27 18  2 29 19
  22573360.977   -29652308.661 6 -12315956.795 3
  23229324.653    -9816347.910 6  -9039095.457 4
  22405230.292   -17300333.183 7 -12519257.241 5
  20224110.350     -594482.265 9 -14902409.630 9
  24869658.274    -2639401.118 4  -1446638.884 3
  21521678.512    16707349.322 7  -1146543.072 6
  20929814.121     3944719.833 9 -14107364.677 9
 94  3 22 18 52  0.0000000  0  7 31 28 27 18  2 29 19
  22561699.440   -29713594.705 6 -12363712.094 3
  23228008.774    -9823284.871 6  -9044500.908 5
  22392231.021   -17368653.363 7 -12572493.700 5
  20225986.541     -584626.711 9 -14894729.993 9
  24850661.505    -2739207.161 4  -1524409.700 3
  21533143.835    16767592.584 7  -1099600.318 6
  20924495.683     3916775.710 9 -14129139.310 9
 94  3 22 18 52 30.0000000  0  7 31 28 27 18  2 29 19
  22550120.347   -29774441.251 6 -12411124.951 3
  23226791.917    -9829665.377 6  -9049472.748 5
  22379257.892   -17436834.341 7 -12625621.714 5
  20227953.989     -574297.017 8 -14886680.908 9
  24831691.418    -2838875.084 3  -1602072.874 3
  21544683.446    16828238.276 7  -1052343.972 6
  20919214.419     3889031.314 9 -14150758.329 9
 94  3 22 18 53  0.0000000  0  7 31 28 27 18  2 29 19
  22538622.706   -29834849.353 6 -12458196.159 3
  23225687.871    -9835482.052 6  -9054005.245 5
  22366301.372   -17504899.505 7 -12678659.467 5
  20230007.927     -563496.505 8 -14878264.939 9
  24812755.297    -2938412.988 4  -1679634.748 3
  21556300.614    16889277.878 7  -1004780.720 6
  20913973.028     3861480.574 9 -14172226.433 9
 94  3 22 18 53 30.0000000  0  7 31 28 27 18  2 29 19
  22527214.524   -29894807.102 6 -12504916.467 3
  23224683.536    -9840716.408 6  -9058083.958 5
  22353367.216   -17572849.152 7 -12731607.225 5
  20232156.989     -552207.039 8 -14869467.972 9
  24793851.973    -3037801.664 4  -1757080.327 3
  21567991.110    16950708.004 8   -956913.154 6
  20908768.871     3834133.791 9 -14193535.612 9
 94  3 22 18 54  0.0000000  0  7 31 28 27 18  2 29 19
  22515890.973   -29954308.252 6 -12551280.963 3
  23223801.157    -9845367.457 6  -9061708.207 5
  22340468.376   -17640660.078 7 -12784446.861 5
  20234397.038     -540430.232 8 -14860291.264 9
  24774961.301    -3137032.391 4  -1834402.842 2
  21579752.238    17012523.123 8   -908745.604 5
  20903602.307     3806987.805 9 -14214688.341 9
 94  3 22 18 54 30.0000000  0  7 31 28 27 18  2 29 19
  22504657.720   -30013367.164 6 -12597300.863 3
  23223032.459    -9849443.695 6  -9064884.507 5
  22327589.112   -17708332.312 7 -12837178.427 4
  20236733.441     -528148.878 8 -14850721.411 9
  24756096.171    -3236125.561 4  -1911618.115 2
  21591589.813    17074724.041 8   -860277.422 5
  20898476.336     3780040.024 9 -14235686.602 9
 94  3 22 18 55  0.0000000  0  7 31 28 27 18  2 29 19
  22493500.134   -30071984.435 6 -12642976.680 3
  23222358.166    -9852970.677 6  -9067632.861 5
  22314737.369   -17775865.854 6 -12889801.966 4
  20239173.302     -515344.301 8 -14840743.845 9
  24737271.034    -3335096.082 4  -1988737.803 2
  21603499.369    17137307.352 8   -811511.273 6
  20893385.560     3753298.305 9 -14256524.308 8
 94  3 22 18 55 30.0000000  0  7 31 28 27 18  2 29 19
  22482426.250   -30130167.266 6 -12688313.888 3
  23221788.440    -9855975.260 6  -9069974.118 5
  22301912.907   -17843266.611 7 -12942322.020 4
  20241705.139     -502033.075 8 -14830371.475 9
  24718450.393    -3433961.204 4  -2065775.360 2
  21615479.045    17200267.972 8   -762451.101 6
  20888336.366     3726754.149 9 -14277208.057 8
 94  3 22 18 56  0.0000000  0  7 31 28 27 18  2 29 19
  22471440.655   -30187918.457 6 -12733314.826 3
  23221306.104    -9858476.713 6  -9071923.338 5
  22289109.311   -17910541.668 7 -12994744.124 4
  20244331.261     -488219.474 8 -14819607.657 9
  24699653.466    -3532730.627 3  -2142738.371 2
  21627529.983    17263594.639 8   -713105.718 6
  20883320.868     3700406.467 9 -14297738.709 8
 94  3 22 18 56 30.0000000  0  7 31 28 27 18  2 29 19
  22460533.816   -30245232.229 6 -12777974.906 3
  23220929.085    -9860466.443 6  -9073473.788 5
  22276331.437   -17977701.830 7 -13047076.667 4
  20247057.304     -473897.781 8 -14808447.918 9
  24680885.469    -3631404.413 3  -2219626.851 2
  21639652.390    17327286.775 8   -663475.556 6
  20878346.981     3674264.008 9 -14318109.458 8
 94  3 22 18 57  0.0000000  0  7 31 28 27 18  2 29 19
  22449711.818   -30302085.082 6 -12822275.810 3
  23220647.280    -9861942.060 6  -9074623.632 4
  22263569.961   -18044749.093 7 -13099321.268 4
  20249877.961     -459086.722 8 -14796906.852 9
  24662117.741    -3729968.828 4  -2296430.105 2
  21651842.401    17391356.854 8   -613550.914 6
  20873412.577     3648335.452 9 -14338313.522 8
 94  3 22 18 57 30.0000000  0  7 31 28 27 18  2 29 19
  22438983.145   -30358480.453 6 -12866220.257 3
  23220467.435    -9862881.278 6  -9075355.489 4
  22250832.589   -18111687.166 7 -13151480.754 4
  20252786.548     -443797.304 8 -14784993.041 9
  24643403.077    -3828408.607 4  -2373136.265 2
  21664109.009    17455811.720 8   -563326.412 6
  20868519.515     3622616.120 9 -14358354.543 8
 94  3 22 18 58  0.0000000  0  7 31 28 27 18  2 29 19
  22428333.618   -30414428.476 6 -12909816.139 4
  23220395.605    -9863273.573 6  -9075661.202 4
  22238118.751   -18178517.845 7 -13203556.594 3
  20255786.301     -428034.541 8 -14772710.393 9
  24624693.629    -3926708.741 4  -2449733.559 2
  21676442.801    17520634.587 8   -512815.153 6
  20863662.367     3597100.627 9 -14378236.754 8
 94  3 22 18 58 30.0000000  0  7 31 28 27 18  2 29 19
  22417774.987   -30469933.573 6 -12953066.810 4
  23220428.732    -9863108.070 6  -9075532.228 4
  22225419.602   -18245238.210 7 -13255546.455 3
  20258874.793     -411801.121 8 -14760060.997 9
  24606010.204    -4024862.927 4  -2526217.125 2
  21688853.249    17585841.984 7   -462004.271 6
  20858848.360     3571793.524 9 -14397956.567 8
 94  3 22 18 59  0.0000000  0  7 31 28 27 18  2 29 19
  22407296.491   -30524992.856 6 -12995970.134 4
  23220573.292    -9862370.864 6  -9074957.787 4
  22212749.833   -18311835.595 7 -13307440.471 3
  20262053.732     -395085.588 8 -14747035.930 9
  24587376.154    -4122835.990 4  -2602559.584 2
  21701335.918    17651446.023 7   -410884.303 6
  20854071.377     3546702.965 9 -14417507.654 8
 94  3 22 18 59 30.0000000  0  7 31 28 27 18  2 29 19
  22396902.897   -30579608.738 6 -13038527.965 4
  23220825.927    -9861053.348 6  -9073931.147 4
  22200101.559   -18378292.293 7 -13359224.869 3
  20265334.451     -377864.782 8 -14733617.148 9
  24568754.575    -4220606.832 4  -2678744.572 2
  21713895.183    17717437.005 7   -359462.826 6
  20849339.752     3521837.967 9 -14436882.982 8
 94  3 22 19  0  0.0000000  0  7 31 28 27 18  2 29 19
  22386594.233   -30633770.394 6 -13080731.831 4
  23221175.725    -9859170.987 6  -9072464.371 4
  22187482.426   -18444602.019 7 -13410894.765 4
  20268705.977     -360131.198 8 -14719798.790 9
  24550189.777    -4318178.235 4  -2754774.118 2
  21726523.910    17783809.977 6   -307743.681 6
  20844654.206     3497204.376 9 -14456077.972 8
 94  3 22 19  0 30.0000000  0  7 31 28 27 18  2 29 19
  22376379.045   -30687462.598 6 -13122569.906 4
  23221641.452    -9856721.684 6  -9070555.850 4
  22174888.804   -18510763.155 7 -13462448.873 4
  20272181.621     -341874.985 8 -14705573.185 9
  24531667.700    -4415569.178 4  -2830663.072 2
  21739229.205    17850573.128 6   -255720.497 6
  20840007.123     3472797.748 9 -14475096.122 8
 94  3 22 19  1  0.0000000  0  7 31 28 27 18  2 29 19
  22366250.287   -30740685.740 6 -13164042.467 4
  23222215.585    -9853715.719 7  -9068213.514 4
  22162328.279   -18576780.380 7 -13513890.842 4
  20275756.046     -323101.950 8 -14690944.880 9
  24513161.062    -4512801.554 5  -2906428.493 2
  21752001.713    17917702.795 6   -203411.742 6
  20835405.729     3448609.151 9 -14493944.374 9
 94  3 22 19  1 30.0000000  0  7 31 28 27 18  2 29 19
  22356213.955   -30793430.610 6 -13205142.360 4
  23222892.306    -9850159.734 6  -9065442.603 4
  22149792.877   -18642662.752 7 -13565227.721 4
  20279423.377     -303819.700 8 -14675919.767 9
  24494676.848    -4609905.232 5  -2982093.617 2
  21764842.633    17985191.764 6   -150822.985 6
  20830840.159     3424618.213 9 -14512638.601 9
 94  3 22 19  2  0.0000000  0  7 31 28 27 18  2 29 19
  22346269.240   -30845694.359 6 -13245867.287 4
  23223668.889    -9846053.264 7  -9062242.781 4
  22137279.510   -18708423.451 7 -13616469.795 4
  20283183.105     -284039.622 8 -14660506.757 9
  24476216.198    -4706903.502 5  -3057676.569 2
  21777755.594    18053030.992 7    -97961.345 6
  20826310.146     3400803.603 9 -14531195.445 9
 94  3 22 19  2 30.0000000  0  7 31 28 27 18  2 29 19
  22336411.524   -30897490.295 6 -13286227.735 3
  23224556.664    -9841392.865 6  -9058611.310 3
  22124786.079   -18774074.183 7 -13667626.164 4
  20287041.284     -263789.243 9 -14644727.284 9
  24457779.951    -4803808.473 5  -3133186.853 2
  21790729.832    18121210.506 7    -44834.538 6
  20821805.224     3377152.578 9 -14549624.810 9
 94  3 22 19  3  0.0000000  0  7 31 28 27 18  2 29 19
  22326646.414   -30948829.823 6 -13326232.535 3
  23225548.258    -9836185.022 6  -9054553.237 3
  22112312.734   -18839625.241 7 -13718704.887 5
  20290979.807     -243081.339 9 -14628591.301 9
  24439355.396    -4900613.724 4  -3208619.458 2
  21803768.585    18189726.264 7      8554.278 6
  20817340.895     3353664.487 9 -14567927.222 9
 94  3 22 19  3 30.0000000  0  7 31 28 27 18  2 29 19
  22316956.403   -30999717.576 6 -13365885.326 3
  23226644.389    -9830432.243 6  -9050070.510 3
  22099854.769   -18905074.179 7 -13769704.033 5
  20295006.739     -221918.810 9 -14612101.073 9
  24420959.831    -4997306.451 5  -3283964.339 2
  21816869.336    18258576.906 7     62204.043 6
  20812898.690     3330328.607 9 -14586111.023 9
 94  3 22 19  4  0.0000000  0  7 31 28 27 18  2 29 19
  22307360.496   -31050142.422 6 -13405177.367 3
  23227840.860    -9824131.205 6  -9045160.624 3
  22087426.123   -18970409.749 7 -13820614.837 5
  20299122.350     -200294.450 9 -14595250.965 9
  24402581.834    -5093872.758 4  -3359210.738 2
  21830036.550    18327770.521 7    116121.054 6
  20808490.602     3307171.737 9 -14604155.339 9
 94  3 22 19  4 30.0000000  0  7 31 28 27 18  2 29 19
  22297854.826   -31100091.253 6 -13444098.484 3
  23229149.994    -9817284.255 6  -9039825.322 2
  22075013.006   -19035628.304 7 -13871434.454 5
  20303327.029     -178206.860 9 -14578039.918 9
  24384231.628    -5190301.410 4  -3434349.944 2
  21843272.987    18397326.720 7    170320.613 6
  20804121.187     3284204.197 8 -14622052.130 9
 94  3 22 19  5  0.0000000  0  7 31 28 27 18  2 29 19
  22288446.590   -31149541.466 6 -13482631.060 3
  23230546.487    -9809896.586 6  -9034068.661 2
  22062629.180   -19100714.189 7 -13922150.716 5
  20307622.396     -155634.585 8 -14560451.180 9
  24365919.225    -5286575.897 4  -3509368.995 2
  21856579.935    18467246.405 7    224803.375 5
  20799784.719     3261429.418 8 -14639798.719 9
 94  3 22 19  5 30.0000000  0  7 31 28 27 18  2 29 19
  22279132.218   -31198479.549 6 -13520764.578 3
  23232063.707    -9801964.893 6  -9027888.122 2
  22050270.206   -19165650.510 7 -13972750.418 5
  20312012.197     -132562.815 8 -14542473.215 9
  24347628.138    -5382676.812 5  -3584252.765 2
  21869954.755    18537533.045 8    279572.088 5
  20795490.192     3238854.152 8 -14657389.840 9
 94  3 22 19  6  0.0000000  0  7 31 28 27 18  2 29 19
  22269919.506   -31246899.939 6 -13558494.684 3
  23233675.781    -9793485.447 6  -9021280.785 2
  22037942.980   -19230440.587 7 -14023236.173 6
  20316498.051     -108987.209 8 -14524102.645 9
  24329374.165    -5478596.316 5  -3658995.117 2
  21883400.687    18608193.452 8    334632.045 5
  20791237.756     3216500.057 9 -14674808.612 9
 94  3 22 19  6 30.0000000  0  7 31 28 27 18  2 29 19
  22260804.376   -31294820.672 6 -13595835.460 3
  23235394.521    -9784447.502 6  -9014238.166 2
  22025640.966   -19295078.291 7 -14073603.194 6
  20321081.038      -84899.433 8 -14505332.983 9
  24311159.554    -5574325.050 5  -3733588.867 2
  21896918.089    18679222.065 8    389978.892 5
  20787027.440     3194371.555 9 -14692051.611 9
 94  3 22 19  7  0.0000000  0  8 31 28 27 18  2 16 29 19
  22251770.880   -31342260.824 6 -13632801.754 3
  23237226.223    -9774844.726 6  -9006755.458 2
  22013368.572   -19359557.151 7 -14123846.449 6
  20325764.966      -60294.180 8 -14486160.068 9
  24292977.771    -5669862.602 4  -3808033.610 2
  24781481.487    -5008797.37615  -4430799.892 2
  21910500.276    18750607.698 8    445603.947 5
  20782859.576     3172473.849 9 -14709114.765 9
 94  3 22 19  7 30.0000000  0  8 31 28 27 18  2 16 29 19
  22242837.424   -31389234.756 6 -13669404.752 3
  23239155.987    -9764680.529 6  -8998835.345 2
  22001128.616   -19423904.206 7 -14173987.005 6
  20330542.788      -35181.026 8 -14466591.389 9
  24274822.400    -5765233.338 4  -3882348.366 2
  24768034.327    -5079473.075 5  -4485871.942 2
  21924153.275    18822342.977 8    501501.473 4
  20778736.470     3150808.171 9 -14725997.116 9
 94  3 22 19  8  0.0000000  0  8 31 28 27 18  2 16 29 19
  22233987.791   -31435725.457 6 -13705631.230 3
  23241199.642    -9753943.307 6  -8990468.643 2
  21988904.608   -19488132.199 7 -14224034.780 6
  20335418.763       -9562.373 7 -14446628.829 9
  24256704.263    -5860450.410 4  -3956543.458 2
  24754666.221    -5149740.072 5  -4540625.419 2
  21937870.129    18894433.570 8    557675.847 4
  20774659.383     3129375.587 9 -14742697.830 9
 94  3 22 19  8 30.0000000  0  8 31 28 27 18  2 16 29 19
  22225232.082   -31481713.521 6 -13741466.023 3
  23243354.970    -9742631.591 6  -8981654.319 2
  21976702.725   -19552242.640 7 -14273990.964 6
  20340386.264       16552.496 7 -14426279.587 9
  24238623.840    -5955520.604 5  -4030623.965 2
  24741369.526    -5219589.777 5  -4595053.762 2
  21951660.851    18966883.408 8    614130.157 4
  20770621.778     3108159.860 9 -14759229.583 9
 94  3 22 19  9  0.0000000  0  8 31 28 27 18  2 16 29 19
  22216580.461   -31527177.184 6 -13776892.210 4
  23245611.058    -9730760.125 6  -8972403.872 2
  21964527.464   -19616234.485 7 -14323854.720 6
  20345448.649       43154.296 8 -14405550.940 9
  24220559.366    -6050431.825 5  -4104580.629 2
  24728159.112    -5289026.322 5  -4649160.166 2
  21965512.462    19039695.117 7    670866.465 5
  20766625.814     3087153.135 9 -14775598.486 9
 94  3 22 19  9 30.0000000  0  8 31 28 27 18  2 16 29 19
  22208042.402   -31572097.883 6 -13811895.295 4
  23247970.725    -9718336.140 6  -8962722.882 2
  21952367.882   -19680113.984 7 -14373630.922 6
  20350604.779       70247.382 8 -14384439.463 9
  24202531.916    -6145164.961 5  -4178398.580 2
  24715025.444    -5358037.453 5  -4702935.031 2
  21979437.792    19112866.229 7    727882.811 5
  20762668.943     3066363.677 9 -14791798.066 9
 94  3 22 19 10  0.0000000  0  8 31 28 27 18  2 16 29 19
  22199592.872   -31616471.853 6 -13846472.376 4
  23250448.509    -9705355.344 6  -8952607.968 2
  21940242.686   -19743854.408 7 -14423298.780 6
  20355855.734       97830.322 8 -14362946.293 9
  24184534.685    -6239689.830 4  -4252054.145 2
  24701985.341    -5426592.709 5  -4756354.726 2
  21993428.147    19186401.810 7    785183.172 5
  20758753.504     3045793.240 9 -14807826.987 9
 94  3 22 19 10 30.0000000  0  8 31 28 27 18  2 16 29 19
  22191244.821   -31660324.013 6 -13880642.839 4
  23253020.009    -9691839.604 6  -8942076.265 2
  21928144.322   -19807437.145 7 -14472843.751 6
  20361196.927      125901.569 9 -14341072.618 9
  24166596.993    -6334002.014 4  -4325544.018 2
  24689016.500    -5494701.960 5  -4809426.927 2
  22007487.933    19260279.725 7    842750.297 5
  20754881.235     3025440.813 9 -14823686.038 9
 94  3 22 19 11  0.0000000  0  8 31 28 27 18  2 16 29 19
  22182996.271   -31703673.638 6 -13914421.719 4
  23255692.239    -9677793.830 6  -8931131.533 2
  21916073.598   -19870861.056 7 -14522264.970 6
  20366634.292      154473.059 9 -14318809.159 9
  24148687.122    -6428102.842 4  -4398869.214 2
  24676142.872    -5562378.883 5  -4862162.145 2
  22021609.507    19334490.920 6    900577.084 5
  20751044.941     3005303.203 9 -14839377.697 9
 94  3 22 19 11 30.0000000  0  8 31 28 27 18  2 16 29 19
  22174846.983   -31746526.104 6 -13947813.220 4
  23258469.457    -9663205.473 6  -8919763.981 3
  21904032.074   -19934140.046 7 -14571573.258 6
  20372166.093      183545.290 9 -14296155.510 9
  24130816.284    -6522022.259 4  -4472053.046 2
  24663341.944    -5629617.319 5  -4914555.769 2
  22035797.215    19409036.864 6    958664.728 5
  20747251.816     2985363.956 9 -14854914.778 9
 94  3 22 19 12  0.0000000  0  8 31 28 27 18  2 16 29 19
  22166783.645   -31788887.109 6 -13980821.756 4
  23261345.935    -9648064.993 6  -8907966.298 3
  21892021.519   -19997269.392 7 -14620764.956 6
  20377793.347      213107.604 9 -14273119.990 9
  24112972.007    -6615784.366 4  -4545114.297 2
  24650630.414    -5696419.938 5  -4966609.754 2
  22050050.188    19483934.635 6   1017026.520 5
  20743493.198     2965604.788 9 -14870311.547 9
 94  3 22 19 12 30.0000000  0  8 31 28 27 18  2 16 29 19
  22158818.309   -31830756.626 6 -14013447.329 4
  23264334.087    -9632369.706 5  -8895736.227 3
  21880032.219   -20060269.470 7 -14669855.887 6
  20383513.687      243169.812 9 -14249694.934 9
  24095164.545    -6709400.175 4  -4618061.514 2
  24638005.194    -5762801.253 5  -5018335.451 2
  22064368.396    19559183.310 6   1075661.760 5
  20739763.001     2946016.141 9 -14885575.450 9
 94  3 22 19 13  0.0000000  0  8 31 28 27 18  2 16 29 19
  22150946.809   -31872120.677 7 -14045679.059 4
  23267430.403    -9616106.582 5  -8883063.686 3
  21868061.926   -20123158.115 7 -14718860.000 6
  20389327.472      273734.044 9 -14225878.694 9
  24077369.794    -6802866.005 4  -4690891.913 2
  24625453.243    -5828745.243 5  -5069720.378 2
  22078753.817    19634805.503 7   1134588.030 5
  20736072.766     2926599.306 9 -14900705.465 9
 94  3 22 19 13 30.0000000  0  8 31 28 27 18  2 16 29 19
  22143171.451   -31912959.003 7 -14077501.093 4
  23270642.020    -9599260.727 6  -8869937.111 3
  21856121.342   -20185918.793 7 -14767764.409 6
  20395240.009      304798.619 9 -14201672.579 9
  24059615.395    -6896167.035 5  -4763593.910 2
  24612986.914    -5894249.121 5  -5120762.353 2
  22093222.700    19710803.491 6   1193807.177 5
  20732412.599     2907376.709 9 -14915684.110 9
 94  3 22 19 14  0.0000000  0  8 31 28 27 18  2 16 29 19
  22135506.718   -31953260.626 7 -14108904.961 4
  23273948.731    -9581839.859 5  -8856362.408 3
  21844205.881   -20248534.496 7 -14816555.839 6
  20401248.060      336372.824 8 -14177069.363 9
  24041905.785    -6989270.221 5  -4836141.708 2
  24600607.704    -5959322.332 5  -5171468.728 2
  22107754.360    19787170.301 6   1253313.662 5
  20728795.454     2888373.883 9 -14930491.512 9
 94  3 22 19 14 30.0000000  0  8 31 28 27 18  2 16 29 19
  22127940.256   -31993006.126 7 -14139875.467 4
  23277372.660    -9563842.899 5  -8842338.856 3
  21832318.900   -20310997.997 7 -14865228.668 6
  20407355.852      368467.345 8 -14152060.674 8
  24024229.422    -7082155.596 5  -4908519.815 2
  24588308.568    -6023960.681 5  -5221836.298 2
  22122352.964    19863885.271 6   1313091.467 6
  20725226.125     2869607.996 9 -14945114.279 9
 94  3 22 19 15  0.0000000  0  8 31 28 27 18  2 16 29 19
  22120483.938   -32032200.707 7 -14170416.688 4
  23280902.027    -9545288.226 5  -8827880.752 3
  21820464.477   -20373300.834 7 -14913776.331 6
  20413555.829      401057.477 8 -14126665.814 8
  24006585.437    -7174840.715 4  -4980741.961 2
  24576086.419    -6088174.532 5  -5271873.072 2
  22137013.534    19940934.670 6   1373129.856 6
  20721700.355     2851078.591 9 -14959552.792 9
 94  3 22 19 15 30.0000000  0  8 31 28 27 18  2 16 29 19
  22113128.919   -32070842.193 7 -14200526.925 4
  23284542.916    -9526174.733 5  -8812987.136 4
  21808637.005   -20435436.685 7 -14962193.847 5
  20419851.471      434134.246 8 -14100891.751 8
  23988993.525    -7267324.777 5  -5052807.398 2
  24563948.242    -6151961.288 5  -5321577.032 2
  22151736.462    20018308.060 6   1433420.708 5
  20718217.576     2832779.214 9 -14973812.045 9
 94  3 22 19 16  0.0000000  0  8 31 28 27 18  2 16 29 19
  22105877.420   -32108953.999 7 -14230224.429 4
  23288283.157    -9506528.482 5  -8797678.418 4
  21796843.919   -20497435.461 7 -15010504.579 5
  20426235.761      467685.192 8 -14074748.176 8
  23971426.827    -7359628.425 5  -5124732.199 2
  24551889.960    -6215317.571 5  -5370945.561 2
  22166522.886    20095993.990 6   1493955.097 5
  20714774.250     2814681.356 9 -14987914.273 9
 94  3 22 19 16 30.0000000  0  8 31 28 27 18  2 16 29 19
  22098727.369   -32146541.817 7 -14259513.602 4
  23292123.708    -9486334.272 5  -8781942.751 4
  21785067.262   -20559297.028 7 -15058708.360 5
  20432710.229      501703.223 7 -14048240.649 8
  23953893.644    -7451757.582 5  -5196521.051 2
  24539919.307    -6278228.356 5  -5419966.901 2
  22181366.929    20174009.256 7   1554746.103 5
  20711365.640     2796777.921 9 -15001865.001 9
 94  3 22 19 17  0.0000000  0  8 31 28 27 18  2 16 29 19
  22091672.803   -32183602.668 7 -14288392.182 4
  23296072.245    -9465591.083 5  -8765779.239 5
  21773323.432   -20621023.447 7 -15106806.830 5
  20439272.686      536195.346 8 -14021363.711 9
  23936389.123    -7543711.790 5  -5268173.652 2
  24528040.151    -6340680.834 6  -5468631.164 2
  22196279.955    20252370.181 7   1615806.438 5
  20707996.692     2779063.479 9 -15015668.477 9
 94  3 22 19 17 30.0000000  0  8 31 28 27 18  2 16 29 19
  22084720.616   -32220132.234 7 -14316856.777 4
  23300127.148    -9444296.309 6  -8749185.935 5
  21761595.821   -20682641.112 7 -15154820.568 5
  20445928.138      571166.561 8 -13994113.450 9
  23918927.771    -7635487.469 5  -5339687.107 2
  24516242.329    -6402663.259 5  -5516929.148 2
  22211255.338    20331068.527 7   1677129.696 5
  20704662.221     2761536.731 9 -15029325.686 9
 94  3 22 19 18  0.0000000  0  8 31 28 27 18  2 16 29 19
  22077874.136   -32256114.709 7 -14344895.064 4
  23304284.220    -9422442.222 6  -8732156.824 5
  21749891.623   -20744146.943 7 -15202747.136 4
  20452678.625      606632.321 8 -13966477.810 9
  23901506.022    -7727079.716 5  -5411057.640 3
  24504536.183    -6464166.037 5  -5564853.428 2
  22226295.985    20410104.062 7   1738715.700 5
  20701363.784     2744208.699 9 -15042828.042 9
 94  3 22 19 18 30.0000000  0  8 31 28 27 18  2 16 29 19
  22071132.613   -32291539.527 7 -14372498.810 4
  23308545.440    -9400034.439 6  -8714696.206 5
  21738210.540   -20805533.191 7 -15250580.566 4
  20459516.112      642589.779 8 -13938459.051 9
  23884105.138    -7818490.460 5  -5482286.759 3
  24492924.801    -6525191.279 5  -5612405.503 2
  22241397.431    20489465.753 7   1800555.881 5
  20698103.781     2727081.691 9 -15056173.767 9
 94  3 22 19 19  0.0000000  0  8 31 28 27 18  2 16 29 19
  22064500.664   -32326395.006 7 -14399658.899 4
  23312913.356    -9377085.618 6  -8696813.988 5
  21726553.620   -20866794.547 7 -15298316.660 4
  20466458.825      679057.083 8 -13910042.997 9
  23866753.001    -7909718.429 5  -5553373.439 3
  24481399.460    -6585736.602 5  -5659583.700 2
  22256558.685    20569140.120 7   1862639.677 5
  20694885.899     2710166.800 9 -15069354.186 9
 94  3 22 19 19 30.0000000  0  8 31 28 27 18  2 16 29 19
  22057977.780   -32360684.565 7 -14426378.026 4
  23317387.728    -9353584.139 6  -8678501.209 5
  21714922.722   -20927908.876 7 -15345938.178 4
  20473496.273      716031.294 9 -13881231.958 9
  23849416.303    -8000747.575 5  -5624305.203 3
  24469967.474    -6645800.612 5  -5706386.802 2
  22271784.035    20649133.847 7   1924972.337 5
  20691709.208     2693479.314 9 -15082357.459 9
 94  3 22 19 20  0.0000000  0  8 31 28 27 18  2 16 29 19
  22051554.486   -32394415.391 7 -14452661.738 4
  23321964.540    -9329535.918 6  -8659762.327 5
  21703325.730   -20988841.378 7 -15393417.989 4
  20480627.287      753514.065 9 -13852024.647 9
  23832140.373    -8091569.366 5  -5695075.371 3
  24458631.302    -6705398.533 5  -5752826.686 2
  22287069.133    20729459.499 7   1987563.637 5
  20688575.507     2677008.027 9 -15095192.219 9
 94  3 22 19 20 30.0000000  0  8 31 28 27 18  2 16 29 19
  22045241.487   -32427604.097 7 -14478523.041 4
  23326641.482    -9304955.851 6  -8640609.015 5
  21691767.562   -21049586.534 8 -15440751.854 4
  20487855.553      791494.414 9 -13822429.603 9
  23814895.591    -8182187.954 5  -5765687.177 3
  24447378.562    -6764542.218 5  -5798912.723 2
  22302415.719    20810117.863 7   2050414.157 4
  20685484.857     2660752.982 9 -15107858.503 9
 94  3 22 19 21  0.0000000  0  8 31 28 27 18  2 16 29 19
  22039029.427   -32460261.272 6 -14503970.174 4
  23331418.315    -9279849.049 6  -8621045.318 5
  21680240.362   -21110167.740 8 -15487957.970 5
  20495174.506      829955.496 9 -13792459.973 9
  23797692.300    -8272618.607 5  -5836152.514 3
  24436212.342    -6823247.295 5  -5844656.921 2
  22317826.700    20891098.348 7   2113515.701 4
  20682427.064     2644706.413 9 -15120362.325 9
 94  3 22 19 21 30.0000000  0  8 31 28 27 18  2 16 29 19
  22032911.203   -32492383.446 6 -14529000.424 4
  23336301.035    -9254211.830 6  -8601068.238 6
  21668739.004   -21170603.601 8 -15535050.809 5
  20502581.598      868886.103 9 -13762124.467 9
  23780519.289    -8362865.422 5  -5906474.655 3
  24425114.205    -6881521.429 5  -5890065.294 2
  22333296.321    20972393.845 7   2176862.718 4
  20679411.961     2628857.754 9 -15132711.929 9
 94  3 22 19 22  0.0000000  0  8 31 28 27 18  2 16 29 19
  22026903.572   -32523954.834 6 -14553601.472 4
  23341278.969    -9228047.768 6  -8580680.682 6
  21657262.889   -21230914.147 8 -15582046.034 5
  20510081.116      908294.537 8 -13731416.625 9
  23763371.940    -8452938.906 5  -5976661.700 3
  24414112.781    -6939359.171 5  -5935133.694 1
  22348822.002    21053985.880 7   2240440.818 4
  20676433.553     2613209.411 9 -15144905.469 9
 94  3 22 19 22 30.0000000  0  8 31 28 27 18  2 16 29 19
  22021003.836   -32554960.051 6 -14577761.337 4
  23346356.434    -9201338.307 6  -8559868.108 6
  21645805.990   -21291121.424 8 -15628960.747 5
  20517675.579      948184.810 8 -13700333.321 9
  23746267.041    -8542839.148 6  -6046713.754 3
  24403196.289    -6996741.865 5  -5979847.471 2
  22364401.587    21135866.227 6   2304243.580 4
  20673500.084     2597776.291 9 -15156931.264 9
 94  3 22 19 23  0.0000000  0  8 31 28 27 18  2 16 29 19
  22015205.880   -32585385.017 6 -14601469.091 4
  23351549.079    -9174067.095 6  -8538617.846 6
  21634368.848   -21351227.301 8 -15675796.460 5
  20525360.069      988571.985 9 -13668862.836 9
  23729198.628    -8632551.834 6  -6116619.611 3
  24392360.440    -7053659.310 5  -6024198.648 1
  22380039.901    21218036.541 6   2368272.287 4
  20670600.071     2582555.049 9 -15168791.965 9
 94  3 22 19 23 30.0000000  0  8 31 28 27 18  2 16 29 19
  22009532.158   -32615234.014 6 -14624728.016 4
  23356849.320    -9146225.796 6  -8516923.311 6
  21622955.719   -21411212.498 8 -15722538.138 6
  20533138.004     1029454.902 8 -13637006.058 9
  23712163.101    -8722059.347 6  -6186365.600 4
  24381622.474    -7110103.558 5  -6068181.271 1
  22395734.336    21300506.636 6   2432534.585 4
  20667747.576     2567543.286 9 -15180489.438 9
 94  3 22 19 24  0.0000000  0  8 31 28 27 18  2 16 29 19
  22003962.014   -32644518.976 7 -14647547.425 4
  23362256.496    -9117819.234 6  -8494788.353 6
  21611565.704   -21471060.435 8 -15769172.895 6
  20541010.225     1070818.715 8 -13604774.576 9
  23695168.736    -8811357.165 5  -6255948.231 4
  24370965.152    -7166070.144 5  -6111791.577 1
  22411487.350    21383291.074 6   2497041.794 4
  20664926.319     2552737.004 9 -15192026.797 9
 94  3 22 19 24 30.0000000  0  8 31 28 27 18  2 16 29 19
  21998494.909   -32673244.776 7 -14669931.137 4
  23367767.012    -9088856.602 6  -8472220.083 6
  21600207.168   -21530747.404 8 -15815682.214 6
  20548971.723     1112669.089 8 -13572163.956 8
  23678211.995    -8900430.337 5  -6325355.740 4
  24360409.519    -7221547.504 5  -6155020.659 1
  22427304.011    21466416.721 6   2561814.905 4
  20662149.671     2538139.027 9 -15203401.848 9
 94  3 22 19 25  0.0000000  0  8 31 28 27 18  2 16 29 19
  21993134.140   -32701421.453 7 -14691886.940 4
  23373373.790    -9059352.990 6  -8449230.252 6
  21588882.118   -21590257.301 8 -15862053.526 6
  20557028.016     1155002.249 8 -13539177.105 8
  23661308.287    -8989281.726 5  -6394590.433 4
  24349947.542    -7276535.321 5  -6197868.365 1
  22443186.325    21549883.930 6   2626854.141 4
  20659413.346     2523745.374 9 -15214617.660 9
 94  3 22 19 25 30.0000000  0  8 31 28 27 18  2 16 29 19
  21987871.583   -32729063.804 7 -14713426.418 4
  23379095.029    -9029320.590 6  -8425828.409 5
  21577595.172   -21649595.193 8 -15908290.827 6
  20565176.285     1197810.437 7 -13505820.121 8
  23644440.674    -9077922.036 5  -6463660.655 4
  24339576.312    -7331035.770 5  -6240336.338 1
  22459135.104    21633683.919 6   2692152.705 4
  20656708.768     2509548.137 9 -15225680.443 9
 94  3 22 19 26  0.0000000  0  8 31 28 27 18  2 16 29 19
  21982713.024   -32756169.144 7 -14734547.424 4
  23384907.316    -8998770.112 6  -8402022.862 5
  21566333.408   -21708768.288 8 -15954399.716 6
  20573413.682     1241110.616 8 -13472079.740 8
  23627615.392    -9166345.735 6  -6532562.107 3
  24329295.229    -7385045.421 5  -6282421.683 2
  22475143.512    21717815.136 6   2757709.413 4
  20654047.271     2495554.113 9 -15236584.867 9
 94  3 22 19 26 30.0000000  0  8 31 28 27 18  2 16 29 19
  21977659.243   -32782737.113 7 -14755249.703 4
  23390823.810    -8967709.762 6  -8377820.048 5
  21555100.155   -21767789.141 8 -16000389.995 7
  20581749.052     1284906.425 8 -13437953.173 8
  23610824.167    -9254564.420 5  -6601303.778 3
  24319104.025    -7438566.763 5  -6324126.667 2
  22491212.837    21802254.672 6   2823506.304 4
  20651423.847     2481768.277 9 -15247327.074 9
 94  3 22 19 27  0.0000000  0  8 31 28 27 18  2 16 29 19
  21972708.231   -32808761.473 7 -14775528.409 5
  23396825.984    -8936122.661 6  -8353206.715 5
  21543892.024   -21826679.685 8 -16046278.714 7
  20590174.239     1329182.000 8 -13403452.750 8
  23594079.499    -9342588.491 5  -6669893.832 3
  24309023.953    -7491605.531 5  -6365455.532 2
  22507333.008    21886982.156 6   2889527.603 4
  20648839.486     2468184.651 8 -15257911.705 9
 94  3 22 19 27 30.0000000  0  8 31 28 27 18  2 16 29 19
  21967859.417   -32834234.477 7 -14795377.473 5
  23402938.093    -8904012.011 6  -8328185.443 5
  21532708.416   -21885457.227 8 -16092079.397 7
  20598689.724     1373927.770 8 -13368585.959 8
  23577366.759    -9430402.572 5  -6738320.278 3
  24299016.101    -7544172.935 5  -6406417.168 2
  22523514.455    21971991.981 6   2955768.901 4
  20646291.550     2454806.029 8 -15268336.606 8
 94  3 22 19 28  0.0000000  0  8 31 28 27 18  2 16 29 19
  21963117.270   -32859136.738 7 -14814781.825 5
  23409148.414    -8871389.832 7  -8302765.605 5
  21521547.952   -21944114.810 8 -16137786.604 7
  20607289.480     1419128.760 8 -13333364.448 8
  23560698.688    -9518004.786 5  -6806581.595 3
  24289106.102    -7596269.189 5  -6447011.717 2
  22539743.180    22057281.730 6   3022228.320 4
  20643787.204     2441651.013 8 -15278587.292 8
 94  3 22 19 28 30.0000000  0  8 31 28 27 18  2 16 29 19
  21958495.610   -32883448.100 7 -14833725.709 5
  23415457.336    -8838235.645 6  -8276931.184 5
  21510410.123   -22002642.521 8 -16183392.588 7
  20615978.875     1464780.623 9 -13297791.614 8
  23544061.046    -9605407.836 5  -6874687.760 3
  24279278.785    -7647893.929 5  -6487238.675 2
  22556027.757    22142845.462 6   3088901.222 4
  20641325.847     2428714.865 8 -15288667.373 8
 94  3 22 19 29  0.0000000  0  8 31 28 27 18  2 16 29 19
  21953982.774   -32907150.898 7 -14852195.410 5
  23421869.177    -8804528.252 6  -8250665.689 5
  21499301.014   -22061020.837 8 -16228882.183 7
  20624754.280     1510899.574 9 -13261854.820 8
  23527479.645    -9692580.267 5  -6942614.213 4
  24269548.601    -7699039.476 5  -6527092.349 2
  22572365.277    22228708.975 6   3155807.717 4
  20638910.150     2416005.354 8 -15298570.912 8
 94  3 22 19 29 30.0000000  0  8 31 28 27 18  2 16 29 19
  21949592.134   -32930238.347 7 -14870185.619 5
  23428383.368    -8770284.602 6  -8223982.322 5
  21488223.053   -22119230.402 8 -16274240.279 7
  20633620.971     1557492.255 9 -13225548.887 8
  23510934.369    -9779517.448 5  -7010357.369 4
  24259906.436    -7749721.701 5  -6566585.002 2
  22588762.245    22314881.729 6   3222955.178 4
  20636533.785     2403517.607 8 -15308301.611 8
 94  3 22 19 30  0.0000000  0  8 31 28 27 18  2 16 29 19
  21945309.209   -32952722.856 7 -14887706.007 6
  23435000.627    -8735506.815 6  -8196882.760 5
  21477178.309   -22177266.184 8 -16319462.948 7
  20642576.582     1604556.499 9 -13188875.487 9
  23494429.445    -9866254.182 6  -7077944.361 3
  24250351.901    -7799938.097 5  -6605714.627 2
  22605220.042    22401359.874 7   3290340.624 4
  20634194.624     2391223.887 8 -15317881.124 7
 94  3 22 19 30 30.0000000  0  8 31 28 27 18  2 16 29 19
  21941141.284   -32974629.304 7 -14904775.953 6
  23441725.451    -8700184.874 6  -8169359.163 5
  21466164.264   -22235148.663 8 -16364566.166 7
  20651623.988     1652095.252 9 -13151832.333 9
  23477954.920    -9952796.462 6  -7145379.792 3
  24240877.350    -7849682.227 5  -6644476.259 2
  22621732.401    22488134.694 7   3357957.220 5
  20631885.563     2379102.414 8 -15327326.427 7
 94  3 22 19 31  0.0000000  0  8 31 28 27 18  2 16 29 19
  21937081.734   -32995963.589 7 -14921400.083 6
  23448547.858    -8664337.905 6  -8141426.485 5
  21455180.588   -22292868.495 8 -16409542.656 7
  20660761.153     1700115.164 9 -13114414.253 9
  23461531.810   -10039125.271 6  -7212648.872 3
  24231510.424    -7898934.294 5  -6682854.520 2
  22638304.178    22575212.298 7   3425809.751 5
  20629614.215     2367160.812 8 -15336631.579 7
 94  3 22 19 31 30.0000000  0  8 31 28 27 18  2 16 29 19
  21933128.161   -33016736.538 7 -14937586.768 6
  23455463.411    -8627966.526 6  -8113085.169 5
  21444227.400   -22350425.104 8 -16454391.946 7
  20669991.283     1748618.747 9 -13076619.293 9
  23445142.695   -10125257.263 5  -7279764.626 3
  24222238.233    -7947672.016 6  -6720831.934 2
  22654931.237    22662575.812 7   3493885.093 5
  20627377.584     2355407.632 8 -15345789.883 7
 94  3 22 19 32  0.0000000  0  8 31 28 27 18  2 16 29 19
  21929283.083   -33036959.231 7 -14953344.726 6
  23462486.079    -8591067.625 6  -8084332.803 4
  21433304.672   -22407830.356 8 -16499123.288 7
  20679311.950     1797603.597 9 -13038449.320 9
  23428791.595   -10211184.418 5  -7346720.799 3
  24213064.374    -7995858.626 6  -6758379.909 2
  22671607.373    22750213.179 7   3562173.785 5
  20625179.026     2343860.448 8 -15354787.680 7
 94  3 22 19 32 30.0000000  0  8 31 28 27 18  2 16 29 19
  21925536.817   -33056633.019 7 -14968674.952 6
  23469606.719    -8553657.106 6  -8055181.769 4
  21422409.165   -22465093.632 8 -16543743.990 7
  20688722.106     1847055.809 8 -12999915.173 9
  23412482.616   -10296895.600 5  -7413508.665 3
  24203998.920    -8043509.236 6  -6795510.291 2
  22688328.657    22838098.641 7   3630655.843 5
  20623026.036     2332540.202 7 -15363608.666 7
 94  3 22 19 33  0.0000000  0  8 31 28 27 18  2 16 29 19
  21921900.334   -33075741.484 7 -14983564.656 6
  23476824.702    -8515736.159 6  -8025633.031 4
  21411539.500   -22522196.970 8 -16588240.073 7
  20698222.259     1896970.418 8 -12961020.714 9
  23396211.800   -10382389.529 5  -7480127.264 3
  24195028.890    -8090632.629 5  -6832229.828 2
  22705104.024    22926243.479 7   3699339.984 5
  20620915.437     2321451.419 8 -15372249.265 7
 94  3 22 19 33 30.0000000  0  8 31 28 27 18  2 16 29 19
  21918376.843   -33094259.747 7 -14997994.461 6
  23484141.197    -8477278.612 6  -7995666.103 4
  21400702.272   -22579142.966 7 -16632613.556 7
  20707806.954     1947347.434 8 -12921765.931 9
  23379986.522   -10467652.151 6  -7546565.618 3
  24186163.877    -8137236.000 5  -6868544.038 2
  22721930.265    23014668.626 7   3768242.557 5
  20618852.296     2310606.334 8 -15380699.980 8
 94  3 22 19 34  0.0000000  0  8 31 28 27 18  2 16 29 19
  21914973.090   -33112157.340 7 -15011940.639 6
  23491562.770    -8438283.192 6  -7965280.105 4
  21389894.994   -22635937.122 7 -16676868.745 7
  20717481.166     1998187.575 8 -12882150.254 9
  23363805.284   -10552676.912 6  -7612818.585 3
  24177387.303    -8183341.050 5  -6904470.019 1
  22738815.596    23103386.176 7   3837372.936 5
  20616834.662     2299998.288 7 -15388966.001 8
 94  3 22 19 34 30.0000000  0  8 31 28 27 18  2 16 29 19
  21911687.335   -33129428.090 7 -15025398.363 6
  23499084.322    -8398751.531 6  -7934476.268 3
  21379111.969   -22692592.430 7 -16721015.720 7
  20727242.409     2049487.877 8 -12842176.019 9
  23347668.086   -10637485.259 6  -7678902.914 3
  24168701.176    -8228981.760 5  -6940034.228 1
  22755747.424    23192396.192 7   3906731.241 4
  20614853.244     2289602.061 8 -15397066.933 8
 94  3 22 19 35  0.0000000  0  8 31 28 27 18  2 16 29 19
  21908519.727   -33146072.244 7 -15038367.831 6
  23506706.726    -8358692.492 6  -7903261.459 3
  21368355.685   -22749125.397 7 -16765067.386 7
  20737090.411     2101246.387 8 -12801844.775 8
  23331568.121   -10722089.771 6  -7744828.436 3
  24160107.056    -8274163.787 5  -6975240.937 1
  22772746.376    23281708.398 7   3976325.019 4
  20612913.617     2279393.064 7 -15405022.007 8
 94  3 22 19 35 30.0000000  0  8 31 28 27 18  2 16 29 19
  21905469.849   -33162093.168 7 -15050851.636 6
  23514429.799    -8318115.301 6  -7871642.894 3
  21357618.468   -22805544.538 8 -16809030.337 7
  20747029.340     2153473.046 8 -12761148.722 8
  23315508.299   -10806491.590 6  -7810596.001 3
  24151595.139    -8318896.410 5  -7010097.494 1
  22789795.603    23371302.474 6   4046138.439 4
  20611005.048     2269377.835 8 -15412826.066 8
 94  3 22 19 36  0.0000000  0  8 31 28 27 18  2 16 29 19
  21902534.101   -33177503.806 7 -15062859.907 5
  23522251.594    -8277024.375 6  -7839624.086 2
  21346910.272   -22861835.926 8 -16852893.742 7
  20757059.317     2206171.958 8 -12720084.690 7
  23299479.686   -10890694.452 6  -7876208.583 3
  24143168.093    -8363160.443 5  -7044589.005 1
  22806891.987    23461166.271 6   4116162.040 4
  20609137.071     2259563.064 7 -15420473.951 8
 94  3 22 19 36 30.0000000  0  8 31 28 27 18  2 16 29 19
  21899717.221   -33192324.883 7 -15074408.755 5
  23530165.156    -8235421.374 6  -7807206.152 2
  21336228.067   -22917973.957 8 -16896637.622 6
  20767177.972     2259334.344 8 -12678659.494 7
  23283498.020   -10974682.544 6  -7941653.748 3
  24134838.629    -8406925.330 5  -7078691.492 1
  22824044.613    23551302.630 6   4186398.020 4
  20607307.528     2249947.803 8 -15427966.358 8
 94  3 22 19 37  0.0000000  0  8 31 28 27 18  2 16 29 19
  21897000.922   -33206572.380 7 -15085510.682 5
  23538175.940    -8193322.528 6  -7774401.918 2
  21325577.160   -22973937.429 8 -16940245.512 6
  20777380.209     2312948.053 8 -12636882.618 7
  23267562.222   -11058453.749 6  -8006929.945 3
  24126611.454    -8450191.456 5  -7112405.349 1
  22841248.773    23641702.721 6   4256839.489 4
  20605516.598     2240538.798 8 -15435298.055 9
 94  3 22 19 37 30.0000000  0  8 31 28 27 18  2 16 29 19
  21894399.413   -33220266.036 7 -15096181.031 5
  23546283.797    -8150724.138 6  -7741208.400 2
  21314963.878   -23029709.461 8 -16983704.205 6
  20787668.666     2367020.086 8 -12594748.615 7
  23251660.271   -11141999.154 6  -8072030.174 3
  24118471.699    -8492951.661 5  -7145725.014 1
  22858501.858    23732357.286 6   4327479.243 4
  20603769.227     2231349.693 8 -15442458.410 9
 94  3 22 19 38  0.0000000  0  8 31 28 27 18  2 16 29 19
  21891897.045   -33233415.472 7 -15106427.306 5
  23554479.913    -8107636.423 6  -7707633.586 2
  21304387.140   -23085285.950 8 -17027010.538 6
  20798042.115     2421538.251 8 -12552266.968 7
  23235806.856   -11225316.337 6  -8136952.575 3
  24110432.795    -8535187.275 5  -7178635.841 2
  22875802.491    23823278.764 6   4398327.008 4
  20602060.800     2222370.513 8 -15449455.179 9
 94  3 22 19 38 30.0000000  0  8 31 28 27 18  2 16 29 19
  21889497.836   -33246018.305 7 -15116247.670 5
  23562775.560    -8064064.219 6  -7673681.298 2
  21293848.565   -23140681.444 8 -17070175.828 6
  20808503.763     2476503.175 8 -12509437.213 7
  23219996.221   -11308405.570 6  -8201697.357 3
  24102488.325    -8576917.618 5  -7211152.973 2
  22893157.387    23914458.056 6   4469375.616 3
  20600391.526     2213601.654 8 -15456288.053 9
 94  3 22 19 39  0.0000000  0  8 31 28 27 18  2 16 29 19
  21887204.574   -33258059.038 7 -15125630.010 4
  23571160.785    -8019993.944 6  -7639340.861 2
  21283336.463   -23195908.093 8 -17113209.547 6
  20819050.581     2531938.032 8 -12466241.276 7
  23204226.238   -11391261.413 6  -8266260.263 3
  24094642.996    -8618156.951 5  -7243287.524 2
  22910556.981    24005902.794 6   4540631.106 3
  20598768.329     2205064.714 8 -15462940.219 9
 94  3 22 19 39 30.0000000  0  8 31 28 27 18  2 16 29 19
  21885027.211   -33269518.627 7 -15134559.540 4
  23579641.344    -7975415.798 6  -7604604.599 2
  21272855.389   -23250985.478 8 -17156126.968 6
  20829690.695     2587846.899 8 -12422675.960 7
  23188504.253   -11473871.515 6  -8330631.678 3
  24086889.254    -8658881.955 5  -7275021.310 2
  22928005.832    24097602.900 5   4612085.592 3
  20597184.286     2196742.599 8 -15469424.979 9
 94  3 22 19 40  0.0000000  0  8 31 28 27 18  2 16 29 19
  21882963.650   -33280365.878 6 -15143011.911 4
  23588223.952    -7930322.510 6  -7569466.959 2
  21262405.133   -23305916.950 9 -17198930.679 6
  20840419.518     2644215.927 8 -12378752.097 7
  23172836.319   -11556236.274 6  -8394811.927 3
  24079246.135    -8699084.396 5  -7306347.854 2
  22945504.538    24189562.130 6   4683741.997 3
  20595635.528     2188618.697 8 -15475755.295 9
 94  3 22 19 40 30.0000000  0  8 31 28 27 18  2 16 29 19
  21881018.536   -33290592.109 7 -15150980.359 4
  23596909.000    -7884707.626 6  -7533922.913 2
  21251978.621   -23360696.567 9 -17241616.071 6
  20851229.074     2701039.118 8 -12334474.333 7
  23157208.018   -11638358.874 6  -8458803.464 3
  24071694.543    -8738783.970 5  -7337282.575 2
  22963057.626    24281777.405 6   4755597.914 3
  20594129.311     2180699.961 8 -15481925.739 9
 94  3 22 19 41  0.0000000  0  8 31 28 27 18  2 16 29 19
  21879191.571   -33300185.328 7 -15158455.587 4
  23605686.263    -7838581.285 6  -7497980.290 2
  21241587.815   -23415315.084 9 -17284175.940 6
  20862130.008     2758310.709 8 -12289847.179 8
  23141624.717   -11720234.897 6  -8522602.845 3
  24064235.766    -8777961.773 5  -7367810.728 2
  22980651.006    24374246.301 6   4827651.435 3
  20592659.009     2172976.525 8 -15487943.997 9
 94  3 22 19 41 30.0000000  0  8 31 28 27 18  2 16 29 19
  21877489.349   -33309149.953 7 -15165440.975 4
  23614556.583    -7791958.173 6  -7461650.565 2
  21231222.970   -23469769.332 9 -17326607.782 6
  20873108.797     2816009.721 8 -12244886.947 8
  23126088.002   -11801869.132 6  -8586213.833 4
  24056886.174    -8816609.887 5  -7397926.128 2
  22998297.210    24466960.558 6   4899896.137 3
  20591228.609     2165441.546 8 -15493815.421 9
 94  3 22 19 42  0.0000000  0  8 31 28 27 18  2 16 29 19
  21875891.306   -33317518.330 7 -15171961.781 4
  23623517.559    -7744861.270 6  -7424951.662 2
  21220892.032   -23524061.782 9 -17368913.560 6
  20884170.390     2874122.664 8 -12199604.176 8
  23110603.422   -11883272.169 6  -8649644.705 4
  24049619.145    -8854754.761 5  -7427649.397 2
  23015985.685    24559921.497 6   4972333.059 3
  20589834.814     2158118.073 8 -15499522.025 9
 94  3 22 19 42 30.0000000  0  8 31 28 27 18  2 16 29 19
  21874410.811   -33325314.681 7 -15178036.835 4
  23632563.767    -7697297.988 6  -7387889.393 2
  21210587.086   -23578211.405 9 -17411108.027 6
  20895306.360     2932662.414 8 -12153988.812 8
  23095156.376   -11964444.038 6  -8712895.426 4
  24042459.981    -8892396.837 5  -7456980.878 2
  23033717.329    24653114.335 6   5044950.651 3
  20588484.639     2151022.793 8 -15505050.807 9
 94  3 22 19 43  0.0000000  0  8 31 28 27 18  2 16 29 19
  21873033.144   -33332542.374 7 -15183668.788 4
  23641713.822    -7649263.777 6  -7350460.158 2
  21200309.391   -23632232.141 9 -17453202.080 6
  20906530.770     2991642.675 8 -12108030.218 9
  23079760.234   -12045377.523 6  -8775960.355 4
  24035401.668    -8929508.091 5  -7485898.745 2
  23051495.052    24746527.113 6   5117739.664 3
  20587174.935     2144140.462 8 -15510413.670 9
 94  3 22 19 43 30.0000000  0  8 31 28 27 18  2 16 29 19
  21871765.022   -33339218.970 7 -15188871.303 4
  23650948.539    -7600747.255 6  -7312655.024 2
  21190054.750   -23686115.412 9 -17495189.019 6
  20917838.102     3051063.339 8 -12061728.439 9
  23064386.458   -12126081.265 6  -8838846.352 4
  24028438.478    -8966105.736 5  -7514416.386 2
  23069308.750    24840167.249 6   5190705.861 3
  20585908.102     2137480.766 8 -15515603.042 9
 94  3 22 19 44  0.0000000  0  8 31 28 27 18  2 16 29 19
  21870602.127   -33345331.093 7 -15193633.979 4
  23660268.847    -7551735.209 6  -7274463.820 2
  21179826.971   -23739856.666 9 -17537065.271 6
  20929231.894     3110945.675 8 -12015066.924 9
  23049077.795   -12206562.853 6  -8901559.160 4
  24021569.663    -9002182.756 5  -7542528.326 2
  23087175.331    24934032.354 6   5263847.319 3
  20584685.249     2131049.746 9 -15520614.222 9
 94  3 22 19 44 30.0000000  0  8 31 28 27 18  2 16 29 19
  21869553.303   -33350842.857 7 -15197928.834 5
  23669689.975    -7502221.154 6  -7235881.491 2
  21169631.209   -23793438.310 9 -17578817.171 6
  20940716.344     3171290.978 8 -11968044.669 9
  23033809.635   -12286829.871 6  -8964104.792 4
  24014798.731    -9037740.527 5  -7570235.644 2
  23105079.776    25028123.477 6   5337164.917 3
  20583499.570     2124836.471 8 -15525455.742 9
 94  3 22 19 45  0.0000000  0  8 31 28 27 18  2 16 29 19
  21868620.859   -33355734.147 7 -15201740.208 5
  23679205.357    -7452199.791 6  -7196903.826 2
  21159472.682   -23846823.828 9 -17620416.242 7
  20952287.793     3232089.200 8 -11920669.482 9
  23018565.189   -12366879.857 6  -9026481.316 4
  24008131.436    -9072789.630 5  -7597546.616 2
  23123033.747    25122460.065 6   5410673.772 3
  20582361.138     2118851.569 9 -15530119.296 8
 94  3 22 19 45 30.0000000  0  8 31 28 27 18  2 16 29 19
  21867815.137   -33359982.040 7 -15205050.216 5
  23688827.796    -7401669.561 6  -7157529.553 2
  21149355.856   -23899995.874 9 -17661848.965 7
  20963943.514     3293344.702 8 -11872937.958 9
  23003378.842   -12446706.478 6  -9088683.792 4
  24001557.228    -9107338.508 5  -7624467.811 2
  23141033.286    25217060.187 6   5484387.999 3
  20581271.302     2113127.598 8 -15534579.524 8
 94  3 22 19 46  0.0000000  0  8 31 28 27 18  2 16 29 19
  21867129.271   -33363585.415 7 -15207858.016 5
  23698535.495    -7350650.280 5  -7117774.354 2
  21139269.938   -23952979.401 9 -17703134.795 7
  20975682.877     3355048.642 8 -11824857.011 8
  22988234.466   -12526299.818 6  -9150704.512 4
  23995080.901    -9141384.455 5  -7650997.090 2
  23159083.100    25311911.786 6   5558298.141 3
  20580229.943     2107648.389 8 -15538849.029 8
 94  3 22 19 46 30.0000000  0  8 31 28 27 18  2 16 29 19
  21866558.946   -33366561.837 7 -15210177.269 5
  23708340.148    -7299154.744 5  -7077647.980 2
  21129222.604   -24005781.767 8 -17744279.459 7
  20987510.289     3417184.385 8 -11776439.613 8
  22973135.509   -12605647.394 6  -9212533.729 5
  23988694.752    -9174933.806 5  -7677139.423 2
  23177181.841    25407010.609 6   5632400.972 3
  20579232.234     2102395.244 8 -15542942.390 8
 94  3 22 19 47  0.0000000  0  8 31 28 27 18  2 16 29 19
  21866107.879   -33368929.200 7 -15212021.935 5
  23718224.275    -7247177.226 5  -7037146.044 2
  21119207.257   -24058410.690 8 -17785288.967 7
  20999416.427     3479762.399 8 -11727677.571 8
  22958090.695   -12684734.753 6  -9274160.182 5
  23982415.599    -9207962.510 5  -7702876.071 2
  23195330.587    25502361.291 6   5706699.975 3
  20578271.579     2097361.533 8 -15546864.751 8
 94  3 22 19 47 30.0000000  0  8 31 28 27 18  2 16 29 19
  21865774.509   -33370699.038 7 -15213401.007 6
  23728203.886    -7194737.302 5  -6996283.798 2
  21109223.539   -24110882.398 8 -17826175.995 8
  21011412.022     3542791.319 8 -11678564.176 8
  22943080.056   -12763559.194 6  -9335581.756 4
  23976226.144    -9240456.312 5  -7728195.877 2
  23213514.678    25597959.617 6   5781191.986 3
  20577352.235     2092522.245 8 -15550635.608 8
 94  3 22 19 48  0.0000000  0  8 31 28 27 18  2 16 29 19
  21865543.609   -33371894.602 7 -15214332.597 6
  23738267.709    -7141836.839 5  -6955062.741 2
  21099268.540   -24163201.879 8 -17866944.403 8
  21023489.101     3606254.621 9 -11629112.320 7
  22928128.327   -12842132.279 6  -9396807.472 4
  23970147.582    -9272418.782 5  -7753101.687 2
  23231757.319    25693795.123 6   5855868.815 3
  20576464.010     2087853.109 8 -15554273.888 8
 94  3 22 19 48 30.0000000  0  8 31 28 27 18  2 16 29 19
  21865435.774   -33372486.169 7 -15214793.528 6
  23748427.586    -7088447.554 5  -6913460.736 2
  21089348.138   -24215329.029 7 -17907562.938 8
  21035650.092     3670165.811 9 -11579311.445 7
  22913229.301   -12920458.805 6  -9457841.038 4
  23964170.260    -9303831.307 5  -7777578.974 2
  23250039.083    25789888.614 6   5930746.690 3
  20575610.591     2083387.657 8 -15557753.446 8
 94  3 22 19 49  0.0000000  0  8 31 28 27 18  2 16 29 19
  21865439.101   -33372464.017 7 -15214776.247 6
  23758686.364    -7034564.517 6  -6871474.025 3
  21079466.499   -24267258.607 7 -17948027.533 8
  21047899.013     3734522.564 9 -11529163.387 7
  22898368.589   -12998539.134 6  -9518682.770 4
  23958292.529    -9334695.793 5  -7801629.218 2
  23268376.518    25886238.817 6   6005824.594 3
  20574806.128     2079152.498 8 -15561053.571 8
 94  3 22 19 49 30.0000000  0  8 31 28 27 18  2 16 29 19
  21865559.318   -33371827.847 7 -15214280.502 6
  23769035.109    -6980178.621 6  -6829095.436 3
  21069621.614   -24318989.052 7 -17988336.953 9
  21060228.637     3799315.899 9 -11478675.135 7
  22883561.180   -13076370.954 6  -9579330.868 4
  23952517.357    -9365028.017 5  -7825264.712 2
  23286756.314    25982835.060 6   6081094.222 3
  20574047.353     2075162.332 8 -15564162.768 8
 94  3 22 19 50  0.0000000  0  8 31 28 27 18  2 16 29 19
  21865798.163   -33370580.011 7 -15213308.149 6
  23779475.052    -6925282.639 5  -6786319.360 3
  21059814.294   -24370532.295 8 -18028500.499 9
  21072635.398     3864523.025 8 -11427864.424 7
  22868788.667   -13153971.244 6  -9639798.545 4
  23946847.532    -9394832.507 6  -7848488.974 2
  23305186.385    26079652.856 6   6156536.489 3
  20573339.124     2071432.884 8 -15567068.828 8
 94  3 22 19 50 30.0000000  0  8 31 28 27 18  2 16 29 19
  21866150.659   -33368711.390 7 -15211852.051 7
  23790018.243    -6869897.816 5  -6743162.394 3
  21050041.270   -24421895.242 8 -18068523.546 9
  21085123.223     3930140.090 8 -11376734.288 7
  22854067.628   -13231331.248 6  -9700079.027 4
  23941278.318    -9424105.044 6  -7871298.756 2
  23323647.155    26176681.430 6   6232142.997 2
  20572679.940     2067966.286 8 -15569770.060 8
 94  3 22 19 51  0.0000000  0  8 31 28 27 18  2 16 29 19
  21866626.070   -33366220.700 7 -15209911.239 7
  23800645.616    -6814036.015 5  -6699633.767 3
  21040300.203   -24473077.240 7 -18108405.601 9
  21097688.334     3996181.314 9 -11325273.651 7
  22839401.721   -13308422.486 6  -9760150.077 4
  23935808.005    -9452836.178 6  -7893686.627 2
  23342146.898    26273918.742 6   6307912.094 2
  20572069.203     2064748.626 8 -15572277.321 8
 94  3 22 19 51 29.9990000  0  8 31 28 27 18  2 16 29 19
  21867223.496   -33363079.285 7 -15207463.373 7
  23811366.104    -6757694.190 5  -6655731.077 3
  21030598.590   -24524059.659 8 -18148132.135 9
  21110342.364     4062663.631 8 -11273469.295 7
  22824786.269   -13385241.928 7  -9820009.312 4
  23930448.495    -9480998.195 6  -7915631.055 2
  23360696.736    26371373.606 6   6383850.759 2
  20571498.428     2061770.917 8 -15574597.602 8
 94  3 22 19 51 59.9990000  0  8 31 28 27 18  2 16 29 19
  21867941.589   -33359271.749 7 -15204496.447 7
  23822181.657    -6700888.019 5  -6611466.606 3
  21020932.951   -24574844.771 8 -18187704.943 9
  21123077.518     4129596.458 8 -11221313.908 7
  22810214.257   -13461790.817 7  -9879657.719 4
  23925202.547    -9508591.206 6  -7937132.129 2
  23379277.003    26469049.891 5   6459961.952 2
  20570975.500     2059024.704 8 -15576737.516 8
 94  3 22 19 52 29.9990000  0  8 31 28 27 18  2 16 29 19
  21868800.165   -33354806.850 7 -15201017.283 7
  23833074.736    -6643638.038 5  -6566856.277 3
  21011306.165   -24625442.100 8 -18227131.423 9
  21135899.791     4196977.872 8 -11168808.980 7
  22795702.743   -13538065.939 6  -9939092.791 4
  23920051.333    -9535638.854 6  -7958208.221 2
  23397910.454    26566939.524 6   6536239.384 2
  20570492.624     2056488.326 8 -15578713.909 8
 94  3 22 19 52 59.9990000  0  8 31 28 27 18  2 16 29 19
  21869768.015   -33349705.855 7 -15197042.458 7
  23844054.425    -6585935.193 5  -6521893.049 3
  21001712.237   -24675855.843 8 -18266414.833 9
  21148805.077     4264807.935 8 -11115954.433 7
  22781239.466   -13614090.024 6  -9998332.250 4
  23915012.691    -9562151.750 6  -7978867.583 2
  23416580.059    26665036.933 6   6612678.758 2
  20570050.880     2054159.523 8 -15580528.551 8
 94  3 22 19 53 29.9990000  0  8 31 28 27 18  2 16 29 19
  21870857.460   -33343985.675 7 -15192585.161 6
  23855126.869    -6527770.584 5  -6476569.986 3
  20992152.545   -24726091.475 8 -18305559.473 9
  21161799.641     4333079.460 8 -11062755.903 7
  22766818.639   -13689867.757 6 -10057379.740 4
  23910065.306    -9588140.749 6  -7999118.795 2
  23435283.931    26763334.918 6   6689274.425 2
  20569648.918     2052047.368 8 -15582174.393 8
 94  3 22 19 53 59.9990000  0  8 31 28 27 18  2 16 29 19
  21872058.309   -33337676.449 7 -15187668.857 6
  23866275.042    -6469144.836 5  -6430887.639 3
  20982627.419   -24776155.499 8 -18344570.363 9
  21174869.873     4401774.717 8 -11009227.169 7
  22752439.394   -13765387.812 6 -10116226.453 4
  23905210.557    -9613620.672 5  -8018973.250 2
  23454026.086    26861834.084 6   6766026.824 2
  20569290.576     2050165.462 8 -15583640.821 8
 94  3 22 19 54 29.9990000  0  8 31 28 27 18  2 16 29 19
  21873366.693   -33330793.927 7 -15182305.836 6
  23877529.310    -6410041.088 5  -6384832.819 3
  20973135.271   -24826033.685 8 -18383436.472 9
  21188023.117     4470887.832 8 -10955372.851 7
  22738123.645   -13840657.239 7 -10174877.872 4
  23900462.804    -9638580.086 6  -8038422.165 2
  23472810.871    26960541.575 6   6842941.560 2
  20568976.814     2048517.749 8 -15584924.752 9
 94  3 22 19 54 59.9990000  0  8 31 28 27 18  2 16 29 19
  21874781.774   -33323338.208 6 -15176496.178 6
  23888864.193    -6350444.655 6  -6338394.096 4
  20963684.283   -24875702.159 8 -18422139.153 9
  21201255.776     4540414.958 8 -10901195.920 7
  22723841.442   -13915663.836 6 -10233324.481 4
  23895817.100    -9662998.241 6  -8057449.247 2
  23491633.281    27059461.781 6   6920022.006 2
  20568707.570     2047104.107 8 -15586026.302 9
 94  3 22 19 55 29.9990000  0  8 31 28 27 18  2 16 29 19
  21876314.972   -33315297.757 6 -15170230.874 6
  23900307.332    -6290360.996 5  -6291575.733 4
  20954269.991   -24925166.381 8 -18460682.683 9
  21214558.886     4610335.904 8 -10846712.144 7
  22709627.142   -13990400.989 7 -10291561.120 4
  23891275.124    -9686875.261 6  -8076054.750 2
  23510494.453    27158586.290 5   6997261.675 2
  20568482.996     2045920.312 8 -15586948.735 9
 94  3 22 19 55 59.9990000  0  8 31 28 27 18  2 16 29 19
  21877957.145   -33306663.846 6 -15163503.153 6
  23911827.067    -6229792.119 5  -6244379.255 4
  20944895.181   -24974425.312 8 -18499066.255 9
  21227938.804     4680644.473 8 -10791926.293 7
  22695448.398   -14064877.933 6 -10349595.021 4
  23886835.798    -9710196.874 5  -8094227.392 2
  23529402.394    27257920.354 5   7074664.650 2
  20568302.790     2044973.751 8 -15587686.320 9
 94  3 22 19 56 29.9990000  0  8 31 28 27 18  2 16 29 19
  21879712.910   -33297420.918 6 -15156300.862 6
  23923440.607    -6168753.298 5  -6196816.562 4
  20935559.224   -25023487.512 8 -18537296.535 9
  21241395.468     4751358.806 8 -10736824.273 7
  22681326.135   -14139098.167 6 -10407428.879 5
  23882503.407    -9732961.188 5  -8111965.797 2
  23548338.365    27357452.921 5   7152222.258 2
  20568166.625     2044248.967 8 -15588251.089 9
 94  3 22 19 56 59.9990000  0  8 31 28 27 18  2 16 29 19
  21881593.868   -33287548.808 6 -15148608.335 6
  23935148.012    -6107251.028 5  -6148892.749 4
  20926259.482   -25072363.459 8 -18575381.683 9
  21254931.397     4822486.912 9 -10681399.835 7
  22667258.823   -14213047.640 6 -10465051.744 5
  23878281.250    -9755173.784 6  -8129274.367 2
  23567316.936    27457196.523 5   7229944.368 2
  20568069.312     2043756.810 8 -15588634.602 9
 94  3 22 19 57 29.9990000  0  8 31 28 27 18  2 16 29 19
  21883591.055   -33277049.553 6 -15140427.070 6
  23946931.264    -6045313.410 5  -6100629.702 4
  20916990.349   -25121068.137 8 -18613333.368 9
  21268543.833     4894034.162 8 -10625648.792 7
  22653231.414   -14286733.761 6 -10522469.422 5
  23874153.917    -9776851.508 5  -8146166.098 2
  23586341.076    27557150.234 5   7307830.178 2
  20568023.144     2043500.221 8 -15588834.558 9
 94  3 22 19 57 59.9990000  0  8 31 28 27 18  2 16 29 19
  21885708.789   -33265938.860 6 -15131769.382 6
  23958794.562    -5982957.457 5  -6052040.679 4
  20907755.602   -25169605.646 8 -18651154.804 9
  21282241.861     4966017.880 8 -10569557.643 7
  22639262.854   -14360155.075 6 -10579680.737 5
  23870126.535    -9798004.463 5  -8162648.905 2
  23605404.369    27657319.194 5   7385883.683 3
  20568016.518     2043467.933 8 -15588859.733 8
 94  3 22 19 58 29.9990000  0  8 31 28 27 18  2 16 29 19
  21887935.767   -33254213.981 6 -15122633.129 6
  23970745.248    -5920177.349 5  -6003121.164 4
  20898547.716   -25217979.357 8 -18688848.602 9
  21296024.789     5038435.404 9 -10513128.460 7
  22625343.730   -14433304.111 7 -10636679.891 5
  23866200.064    -9818636.219 5  -8178725.634 2
  23624508.103    27757711.180 5   7464110.971 3
  20568054.172     2043654.773 8 -15588714.153 8
 94  3 22 19 58 59.9990000  0  8 31 28 27 18  2 16 29 19
  21890281.314   -33241896.300 7 -15113034.920 6
  23982776.519    -5856967.294 5  -5953866.617 4
  20889376.795   -25266175.452 8 -18726403.990 9
  21309884.764     5111264.366 8 -10456378.688 7
  22611470.954   -14506196.228 6 -10693478.852 5
  23862369.855    -9838751.049 5  -8194399.573 2
  23643646.704    27858320.077 5   7542507.344 3
  20568131.519     2044077.839 7 -15588384.506 8
 94  3 22 19 59 29.9990000  0  8 31 28 27 18  2 16 29 19
  21892738.832   -33228990.021 7 -15102978.102 6
  23994883.128    -5793331.330 5  -5904280.231 4
  20880240.710   -25314186.526 9 -18763815.224 9
  21323820.646     5184505.614 8 -10399307.650 7
  22597645.665   -14578847.468 6 -10750090.146 5
  23858647.002    -9858341.834 5  -8209665.011 2
  23662834.051    27959119.271 5   7621051.935 3
  20568259.860     2044739.896 7 -15587868.621 8
 94  3 22 19 59 59.9990000  0  8 31 28 27 18  2 16 29 19
  21895303.377   -33215493.104 7 -15092461.002 6
  24007077.846    -5729256.389 5  -5854351.761 4
  20871141.679   -25362006.012 9 -18801077.140 9
  21337832.346     5258143.957 8 -10341927.152 7
  22583867.234   -14651267.758 6 -10806521.452 5
  23855023.561    -9877402.892 5  -8224517.895 2
  23682052.336    28060100.045 5   7699738.036 3
  20568433.350     2045651.561 8 -15587158.244 8
 94  3 22 20  0 29.9990000  0  8 31 28 27 18  2 16 29 19
  21897993.085   -33201388.973 7 -15081470.788 6
  24019356.026    -5664744.118 5  -5804082.497 4
  20862082.281   -25409622.869 9 -18838181.187 9
  21351915.516     5332155.788 8 -10284255.670 7
  22570128.375   -14723457.247 6 -10862772.943 5
  23851492.275    -9895943.775 5  -8238965.342 2
  23701294.755    28161236.245 5   7778545.232 3
  20568650.580     2046813.225 8 -15586253.074 8
 94  3 22 20  0 59.9990000  0  8 31 28 27 18  2 16 29 19
  21900793.866   -33186662.589 7 -15069995.674 6
  24031708.225    -5599802.971 5  -5753479.113 4
  20853064.764   -25457015.200 9 -18875110.271 9
  21366072.616     5406552.457 8 -10226284.314 7
  22556435.415   -14795410.343 6 -10918840.241 5
  23848057.164    -9913968.161 5  -8253010.240 1
  23720570.331    28262510.713 5   7857460.169 3
  20568922.641     2048227.956 8 -15585150.688 8
 94  3 22 20  1 29.9990000  0  8 31 28 27 18  2 16 29 19
  21903711.056   -33171313.455 7 -15058035.292 6
  24044151.740    -5534430.481 5  -5702539.558 4
  20844086.879   -25504184.376 9 -18911865.453 9
  21380304.753     5481342.068 8 -10168006.754 7
  22542795.308   -14867108.933 7 -10974709.200 5
  23844731.236    -9931477.784 5  -8266654.239 1
  23739866.802    28363924.920 5   7936483.996 3
  20569238.712     2049878.614 8 -15583864.461 8
 94  3 22 20  1 59.9990000  0  8 31 28 27 18  2 16 29 19
  21906753.710   -33155338.416 7 -15045587.227 5
  24056674.851    -5468616.531 5  -5651256.026 4
  20835155.492   -25551120.122 9 -18948438.748 9
  21394614.417     5556519.519 8 -10109426.989 7
  22529204.276   -14938529.957 7 -11030361.882 5
  23841495.396    -9948464.173 5  -8279890.329 1
  23759203.056    28465498.878 5   8015632.308 3
  20569594.506     2051763.592 8 -15582395.638 8
 94  3 22 20  2 29.9990000  0  8 31 28 27 18  2 16 29 19
  21909910.854   -33138743.791 7 -15032656.345 5
  24069278.545    -5402367.860 5  -5599633.791 4
  20826267.185   -25597828.022 9 -18984834.506 8
  21408989.615     5632079.802 8 -10050548.914 7
  22515662.921   -15009665.406 7 -11085792.041 5
  23838361.426    -9964925.080 5  -8292717.007 1
  23778553.130    28567234.109 5   8094906.347 3
  20569999.885     2053875.739 8 -15580749.809 8
 94  3 22 20  2 59.9990000  0  8 31 28 27 18  2 16 29 19
  21913187.346   -33121551.109 8 -15019259.431 5
  24081970.199    -5335681.970 5  -5547670.810 3
  20817418.631   -25644309.159 9 -19021053.555 8
  21423447.226     5708047.460 8  -9991353.395 7
  22502182.273   -15080514.338 7 -11140998.920 5
  23835334.661    -9980835.335 5  -8305114.667 1
  23797949.852    28669150.604 5   8174321.534 3
  20570449.394     2056232.984 8 -15578912.996 8
 94  3 22 20  3 29.9990000  0  8 31 28 27 18  2 16 29 19
  21916569.455   -33103766.338 8 -15005401.132 5
  24094735.182    -5268565.815 5  -5495372.572 3
  20808615.735   -25690579.137 8 -19057108.071 8
  21437979.965     5784415.465 8  -9931845.902 7
  22488760.865   -15151068.705 7 -11195976.307 5
  23832417.591    -9996189.607 5  -8317078.989 1
  23817381.140    28771258.720 5   8253886.075 3
  20570940.934     2058831.573 8 -15576888.116 8
 94  3 22 20  3 59.9990000  0  8 31 28 27 18  2 16 29 19
  21920070.551   -33085373.157 8 -14991068.782 5
  24107589.083    -5201035.936 5  -5442751.965 3
  20799850.313   -25736654.010 8 -19093010.549 8
  21452584.715     5861171.947 8  -9872035.710 7
  22475385.474   -15221338.550 6 -11250731.948 5
  23829597.413   -10010991.108 5  -8328612.656 1
  23836844.686    28873564.552 5   8333604.690 3
  20571483.558     2061675.258 8 -15574672.250 8
 94  3 22 20  4 29.9990000  0  8 31 28 27 18  2 16 29 19
  21923685.658   -33066365.492 8 -14976257.614 5
  24120519.432    -5133102.247 5  -5389816.607 3
  20791116.909   -25782543.505 8 -19128768.559 8
  21467272.417     5938336.413 8  -9811907.618 7
  22462068.723   -15291329.784 7 -11305270.514 5
  23826883.692   -10025250.620 5  -8339723.940 1
  23856348.224    28976063.527 5   8413473.780 2
  20572072.441     2064770.164 8 -15572260.625 8
 94  3 22 20  4 59.9990000  0  8 31 28 27 18  2 16 29 19
  21927420.713   -33046744.399 8 -14960968.440 4
  24133526.947    -5064762.696 5  -5336565.065 3
  20782418.341   -25828243.483 8 -19164378.916 8
  21482038.154     6015927.420 8  -9751447.154 7
  22448795.172   -15361040.944 6 -11359590.854 5
  23824264.405   -10038980.512 5  -8350422.533 1
  23875895.591    29078758.094 5   8493495.287 3
  20572707.701     2068114.677 8 -15569654.516 8
 94  3 22 20  5 29.9990000  0  8 31 28 27 18  2 16 29 19
  21931270.138   -33026504.168 8 -14945196.827 4
  24146608.181    -4996024.711 6  -5283003.099 3
  20773757.847   -25873768.948 8 -19199853.276 8
  21496874.523     6093908.459 8  -9690682.771 7
  22435582.689   -15430492.523 7 -11413708.890 5
  23821756.461   -10052204.032 5  -8360726.612 1
  23895470.660    29181628.261 5   8573653.634 2
  20573390.988     2071691.157 8 -15566867.657 8
 94  3 22 20  5 59.9990000  0  8 31 28 27 18  2 16 29 19
  21935238.940   -33005652.918 8 -14928949.114 4
  24159764.843    -4926873.223 6  -5229118.794 2
  20765128.830   -25919112.960 8 -19235186.244 8
  21511788.419     6172273.057 8  -9629619.515 7
  22422420.601   -15499692.688 7 -11467631.016 5
  23819334.888   -10064906.407 5  -8370624.606 1
  23915077.986    29284663.490 5   8653940.596 2
  20574117.985     2075510.125 8 -15563891.818 8
 94  3 22 20  6 29.9990000  0  8 31 28 27 18  2 16 29 19
  21939315.968   -32984226.012 8 -14912252.799 4
  24172999.960    -4857310.870 6  -5174914.401 2
  20756534.620   -25964262.485 8 -19270367.655 8
  21526770.157     6251004.811 8  -9568270.159 7
  22409296.167   -15568646.370 7 -11521361.091 5
  23817022.169   -10077083.371 5  -8380113.104 1
  23934711.004    29387838.411 5   8734336.414 2
  20574887.042     2079564.502 8 -15560732.571 8
 94  3 22 20  6 59.9990000  0  8 31 28 27 18  2 16 29 19
  21943503.019   -32962224.968 8 -14895109.123 4
  24186317.611    -4787333.389 6  -5120386.605 2
  20747980.342   -26009206.288 8 -19305388.765 9
  21541816.591     6330074.034 8  -9506657.855 7
  22396219.310   -15637347.934 7 -11574894.696 5
  23814804.784   -10088720.808 5  -8389181.248 1
  23954372.143    29491140.598 5   8814831.349 2
  20575702.867     2083846.066 8 -15557396.279 8
 94  3 22 20  7 29.9990000  0  8 31 28 27 18  2 16 29 19
  21947805.011   -32939629.613 7 -14877502.364 4
  24199717.614    -4716936.836 6  -5065532.119 2
  20739471.603   -26053929.887 8 -19340238.295 9
  21556924.961     6409474.061 8  -9444787.787 7
  22383193.777   -15705795.680 7 -11628230.521 5
  23812702.579   -10099785.283 6  -8397802.935 1
  23974050.190    29594570.475 5   8895425.795 2
  20576560.963     2088366.338 9 -15553873.992 8
 94  3 22 20  7 59.9990000  0  8 31 28 27 18  2 16 29 19
  21952218.795   -32916442.549 8 -14859434.525 4
  24213189.358    -4646133.775 6  -5010360.895 2
  20731006.633   -26098421.721 8 -19374907.216 9
  21572103.124     6489230.668 8  -9382639.858 7
  22370218.790   -15773984.641 7 -11681364.703 5
  23810700.805   -10110280.181 6  -8405980.781 2
  23993756.658    29698133.330 4   8976123.897 2
  20577465.257     2093127.678 9 -15550163.860 8
 94  3 22 20  8 29.9990000  0  8 31 28 27 18  2 16 29 19
  21956745.451   -32892651.747 8 -14840896.242 4
  24226733.591    -4574941.048 6  -4954886.173 2
  20722582.105   -26142689.494 8 -19409401.557 9
  21587349.099     6569353.496 8  -9320206.552 7
  22357293.658   -15841918.675 7 -11734300.237 5
  23808824.584   -10120238.876 6  -8413740.793 2
  24013488.308    29801835.933 4   9056930.866 2
  20578415.270     2098115.455 9 -15546277.289 8
 94  3 22 20  8 59.9990000  0  8 31 28 27 18  2 16 29 19
  21961386.778   -32868244.225 7 -14821877.390 4
  24240350.584    -4503369.712 6  -4899116.286 2
  20714199.518   -26186743.483 8 -19443729.306 9
  21602667.804     6649858.504 8  -9257475.426 7
  22344409.028   -15909610.368 7 -11787046.935 5
  23807014.737   -10129680.391 5  -8421097.886 2
  24033257.552    29905684.332 5   9137851.395 2
  20579408.002     2103333.351 9 -15542211.400 8
 94  3 22 20  9 29.9990000  0  8 31 28 27 18  2 16 29 19
  21966146.014   -32843235.705 7 -14802390.237 4
  24254044.714    -4431424.484 6  -4843055.094 2
  20705857.043   -26230583.718 8 -19477890.492 9
  21618062.837     6730763.724 8  -9194432.492 7
  22331572.544   -15977065.011 7 -11839608.928 5
  23805310.656   -10138620.327 5  -8428064.045 2
  24053052.908    30009698.034 5   9218900.823 2
  20580448.702     2108786.785 9 -15537961.972 8
 94  3 22 20  9 59.9990000  0  8 31 28 27 18  2 16 29 19
  21971015.992   -32817643.134 7 -14782447.978 4
  24267806.657    -4359107.740 6  -4786704.440 2
  20697550.274   -26274219.323 8 -19511892.249 9
  21633536.115     6812070.604 8  -9131076.554 7
  22318787.385   -16044267.571 7 -11891974.484 5
  23803701.910   -10147078.975 5  -8434655.215 2
  24072883.100    30113880.935 5   9300082.013 2
  20581526.186     2114473.754 9 -15533530.597 8
 94  3 22 20 10 29.9990000  0  8 31 28 27 18  2 16 29 19
  21975992.667   -32791476.253 7 -14762058.185 4
  24281638.841    -4286416.882 6  -4730062.228 3
  20689289.733   -26317649.790 8 -19545734.155 9
  21649079.274     6893747.220 8  -9067432.497 7
  22306043.058   -16111214.591 7 -11944140.912 5
  23802189.757   -10155050.734 5  -8440867.010 2
  24092733.108    30218225.431 5   9381389.165 2
  20582656.883     2120395.304 9 -15528916.401 8
 94  3 22 20 10 59.9990000  0  8 31 28 27 18  2 16 29 19
  21981084.852   -32764731.954 7 -14741218.456 4
  24295543.785    -4213358.300 6  -4673133.496 3
  20681064.747   -26360866.313 8 -19579409.345 9
  21664692.406     6975786.923 8  -9003505.535 7
  22293361.057   -16177891.018 7 -11996096.470 5
  23800765.953   -10162497.908 5  -8446669.993 2
  24112621.310    30322727.523 6   9462819.086 2
  20583830.810     2126573.551 9 -15524102.186 8
 94  3 22 20 11 29.9990000  0  8 31 28 27 18  2 16 29 19
  21986285.142   -32737401.749 7 -14719922.199 4
  24309518.041    -4139924.337 6  -4615912.256 4
  20672876.605   -26403880.360 8 -19612926.766 9
  21680367.204     7058170.743 8  -8939310.415 7
  22280727.503   -16244280.495 7 -12047828.448 5
  23799451.453   -10169403.945 5  -8452051.318 2
  24132528.908    30427379.563 5   9544365.851 2
  20585051.595     2132995.692 9 -15519097.938 8
 94  3 22 20 11 59.9990000  0  8 31 28 27 18  2 16 29 19
  21991602.350   -32709468.130 7 -14698155.744 4
  24323563.587    -4066115.416 5  -4558398.849 4
  20664734.302   -26446683.426 8 -19646279.794 9
  21696106.788     7140875.637 7  -8874865.136 7
  22268146.203   -16310382.254 7 -12099336.258 5
  23798245.088   -10175762.159 5  -8457005.800 2
  24152470.473    30532165.554 5   9626017.037 2
  20586321.756     2139664.784 9 -15513901.267 8
 94  3 22 20 12 29.9990000  0  8 31 28 27 18  2 16 29 19
  21997037.168   -32680918.682 7 -14675909.432 5
  24337677.516    -3991923.444 5  -4500586.957 4
  20656632.831   -26489262.076 8 -19679457.955 9
  21711902.043     7223893.777 7  -8810175.754 6
  22255620.545   -16376200.935 7 -12150623.457 5
  23797143.950   -10181558.804 5  -8461522.669 2
  24172441.477    30637082.518 6   9707770.207 2
  20587638.415     2146583.115 9 -15508510.371 8
 94  3 22 20 12 59.9990000  0  8 31 28 27 18  2 16 29 19
  22002581.470   -32651764.878 7 -14653192.183 5
  24351870.351    -3917353.744 5  -4442480.723 4
  20648571.381   -26531625.712 8 -19712468.587 9
  21727763.073     7307229.060 7  -8745239.250 6
  22243149.838   -16441749.508 7 -12201700.170 6
  23796142.104   -10186806.903 5  -8465612.097 2
  24192423.634    30742114.702 5   9789613.189 2
  20588999.382     2153736.103 9 -15502936.628 8
 94  3 22 20 13 29.9990000  0  8 31 28 27 18  2 16 29 19
  22008240.412   -32622023.654 7 -14630017.237 5
  24366137.924    -3842383.703 4  -4384062.546 5
  20640554.781   -26573748.507 8 -19745291.528 9
  21743678.904     7390881.874 7  -8680055.312 6
  22230723.650   -16507041.302 7 -12252576.816 6
  23795243.895   -10191538.558 5  -8469299.146 2
  24212440.506    30847264.356 6   9871547.732 2
  20590402.081     2161117.416 9 -15497184.955 8
 94  3 22 20 13 59.9990000  0  8 31 28 27 18  2 16 29 19
  22014010.428   -32591707.896 7 -14606394.548 5
  24380475.618    -3767016.684 4  -4325335.052 5
  20632589.805   -26615607.030 8 -19777908.539 9
  21759662.189     7474870.692 7  -8614609.545 6
  22218346.329   -16572077.643 7 -12303254.395 6
  23794436.135   -10195764.829 5  -8472592.381 2
  24232471.409    30952531.716 5   9953574.012 2
  20591854.905     2168739.692 9 -15491245.535 9
 94  3 22 20 14 29.9990000  0  8 31 28 27 18  2 16 29 19
  22019883.122   -32560840.001 6 -14582341.671 5
  24394900.702    -3691269.540 3  -4266311.346 5
  20624668.209   -26657223.957 8 -19810337.326 9
  21775709.810     7559206.309 7  -8548893.568 6
  22206018.593   -16636866.159 7 -12353738.862 6
  23793727.665   -10199489.654 5  -8475494.878 3
  24252520.449    31057908.490 5  10035685.520 2
  20593351.439     2176601.159 9 -15485119.732 9
 94  3 22 20 14 59.9990000  0  8 31 28 27 18  2 16 29 19
  22025860.864   -32529421.802 6 -14557859.971 5
  24409378.669    -3615158.958 3  -4207004.511 5
  20616793.351   -26698610.451 8 -19842586.548 9
  21791825.753     7643895.464 7  -8482902.105 6
  22193735.856   -16701412.191 7 -12404034.421 6
  23793112.911   -10202726.671 5  -8478017.235 3
  24272594.133    31163388.440 5  10117877.361 2
  20594895.820     2184705.949 9 -15478804.315 9
 94  3 22 20 15 29.9990000  0  8 31 28 27 18  2 16 29 19
  22031952.527   -32497438.444 6 -14532937.868 5
  24423942.796    -3538688.323 3  -4147417.032 5
  20608962.652   -26739769.084 9 -19874658.183 9
  21808010.349     7728932.941 7  -8416639.208 6
  22181499.467   -16765698.813 7 -12454127.802 6
  23792593.131   -10205471.859 5  -8480156.377 3
  24292682.806    31268973.290 5  10200150.985 2
  20596484.211     2193059.629 9 -15472294.962 9
 94  3 22 20 15 59.9990000  0  8 31 28 27 18  2 16 29 19
  22038146.569   -32464868.008 6 -14507558.317 5
  24438544.488    -3461878.904 3  -4087565.619 5
  20601168.168   -26780724.745 9 -19906571.684 9
  21824262.158     7814321.677 7  -8350102.614 6
  22169324.806   -16829704.248 7 -12504002.078 6
  23792165.477   -10207690.853 5  -8481885.490 3
  24312800.199    31374658.953 5  10282503.137 2
  20598119.219     2201669.793 9 -15465585.750 9
 94  3 22 20 16 29.9990000  0  8 31 28 27 18  2 16 29 19
  22044455.071   -32431692.902 6 -14481707.597 5
  24453228.712    -3384718.442 4  -4027440.664 5
  20593413.946   -26821481.381 9 -19938330.093 9
  21840578.842     7900066.719 7  -8283288.370 6
  22157199.910   -16893420.054 7 -12553650.682 6
  23791846.887   -10209368.522 5  -8483192.803 3
  24332923.408    31480450.907 5  10364938.153 2
  20599808.519     2210542.822 9 -15458671.703 9
 94  3 22 20 16 59.9990000  0  8 31 28 27 18  2 16 29 19
  22050884.031   -32397910.419 6 -14455383.611 6
  24467975.323    -3307201.484 5  -3967037.865 5
  20585695.759   -26862023.429 9 -19969921.284 9
  21856962.470     7986165.396 8  -8216198.544 6
  22145132.933   -16956833.585 7 -12603063.736 6
  23791623.512   -10210518.890 5  -8484089.223 3
  24353077.405    31586337.595 5  10447446.962 2
  20601546.086     2219656.573 9 -15451570.082 9
 94  3 22 20 17 29.9990000  0  8 31 28 27 18  2 16 29 19
  22057431.888   -32363535.992 6 -14428598.352 6
  24482799.611    -3229330.796 5  -3906359.418 5
  20578024.010   -26902342.942 9 -20001339.092 9
  21873408.305     8072617.262 8  -8148833.546 6
  22133118.871   -17019942.953 7 -12652239.810 6
  23791510.730   -10211138.215 5  -8484571.854 2
  24373248.581    31692319.533 5  10530030.045 1
  20603324.545     2229001.266 9 -15444288.508 9
 94  3 22 20 17 59.9990000  0  8 31 28 27 18  2 16 29 19
  22064085.182   -32328589.374 6 -14401367.233 6
  24497682.567    -3151104.093 5  -3845403.547 4
  20570394.053   -26942440.152 9 -20032583.661 9
  21889933.674     8159435.507 7  -8081183.055 6
  22121162.488   -17082770.281 7 -12701196.111 6
  23791494.811   -10211225.221 5  -8484639.693 2
  24393429.230    31798402.571 5  10612691.841 2
  20605146.564     2238583.992 9 -15436821.462 9
 94  3 22 20 18 29.9990000  0  8 31 28 27 18  2 16 29 19
  22070833.870   -32293084.306 6 -14373700.967 6
  24512634.566    -3072503.539 5  -3784156.432 4
  20562812.631   -26982298.432 9 -20063642.046 9
  21906524.878     8246619.873 7  -8013247.287 5
  22109264.924   -17145323.166 7 -12749938.558 6
  23791571.558   -10210792.441 5  -8484302.472 2
  24413637.730    31904602.036 4  10695444.428 2
  20607014.721     2248410.669 9 -15429164.319 9
 94  3 22 20 18 59.9990000  0  8 31 28 27 18  2 16 29 19
  22077699.836   -32257026.650 6 -14345604.093 6
  24527668.588    -2993552.519 5  -3722636.190 3
  20555268.564   -27021924.703 9 -20094519.664 9
  21923176.311     8334135.546 7  -7945053.342 5
  22097409.392   -17207616.021 7 -12798478.364 5
  23791761.057   -10209850.321 5  -8483568.401 2
  24433878.398    32010923.222 5  10778291.822 2
  20608936.300     2258489.535 9 -15421310.661 9
 94  3 22 20 19 29.9990000  0  8 31 28 27 18  2 16 29 19
  22084663.296   -32220420.673 6 -14317079.967 6
  24542752.376    -2914254.953 5  -3660845.962 3
  20547769.405   -27061337.854 9 -20125231.188 9
  21939890.790     8421964.655 7  -7876615.158 5
  22085592.592   -17269673.073 6 -12846834.476 5
  23792034.617   -10208389.844 5  -8482430.432 2
  24454130.668    32117380.260 4  10861245.028 2
  20610905.547     2268841.649 9 -15413244.091 9
 94  3 22 20 19 59.9990000  0  8 31 28 27 18  2 16 29 19
  22091734.620   -32183242.343 6 -14288109.845 6
  24557915.039    -2834598.382 5  -3598775.964 3
  20540311.378   -27100535.693 9 -20155774.950 9
  21956660.940     8510097.053 7  -7807940.674 5
  22073832.574   -17331481.626 6 -12894996.913 5
  23792414.874   -10206405.834 5  -8480884.467 2
  24474418.942    32223971.642 5  10944302.921 2
  20612930.735     2279486.371 9 -15404949.507 9
 94  3 22 20 20 29.9990000  0  8 31 28 27 18  2 16 29 19
  22098924.813   -32145464.529 6 -14258672.592 6
  24573132.025    -2754588.014 5  -3536430.250 3
  20532891.845   -27139510.076 9 -20186144.595 9
  21973485.952     8598516.458 8  -7739042.516 5
  22062137.250   -17393010.830 7 -12942941.717 5
  23792891.244   -10203907.593 5  -8478937.841 2
  24494725.384    32330693.275 5  11027462.379 2
  20615014.353     2290420.659 9 -15396429.291 9
 94  3 22 20 20 59.9990000  0  8 31 28 27 18  2 16 29 19
  22106232.853   -32107083.170 6 -14228765.031 6
  24588432.742    -2674231.321 5  -3473814.793 2
  20525523.246   -27178256.688 9 -20216336.739 9
  21990369.244     8687226.355 8  -7669918.017 5
  22050476.763   -17454246.244 7 -12990657.566 5
  23793461.419   -10200889.404 5  -8476586.053 2
  24515060.157    32437539.277 5  11110718.712 2
  20617145.487     2301641.856 9 -15387685.511 9
 94  3 22 20 21 29.9990000  0  8 31 28 27 18  2 16 29 19
  22113646.901   -32068115.755 6 -14198400.808 6
  24603784.365    -2593528.813 5  -3410929.752 2
  20518192.631   -27216764.459 9 -20246342.786 9
  22007310.216     8776247.695 8  -7600550.823 5
  22038878.572   -17515185.853 7 -13038142.935 5
  23794130.436   -10197361.376 5  -8473836.931 2
  24535409.080    32544484.444 5  11194052.337 2
  20619330.764     2313129.714 9 -15378733.934 9
 94  3 22 20 21 59.9990000  0  8 31 28 27 18  2 16 29 19
  22121175.349   -32028573.350 6 -14167588.537 6
  24619201.821    -2512504.458 5  -3347793.966 2
  20510914.030   -27255019.714 9 -20276152.076 9
  22024306.680     8865578.350 7  -7530942.623 6
  22027334.134   -17575828.981 7 -13085397.250 5
  23794899.884   -10193343.249 5  -8470706.013 2
  24555784.054    32651508.407 4  11277447.401 2
  20621565.207     2324861.078 9 -15369592.629 9
 94  3 22 20 22 29.9990000  0  6 31 27 18  2 16 19
  22128799.191   -31988476.053 7 -14136343.876 6
  20503683.305   -27293013.188 9 -20305757.380 9
  22041363.522     8955221.850 7  -7461090.655 6
  22015856.760   -17636180.650 7 -13132424.497 5
  23795742.210   -10188840.636 4  -8467197.522 2
  20623841.382     2336823.178 9 -15360271.519 9
 94  3 22 20 22 59.9990000  0  6 31 27 18  2 16 19
  22136535.605   -31947835.666 7 -14104676.048 6
  20496506.394   -27330726.862 9 -20335144.643 9
  22058485.868     9045197.864 7  -7390979.544 5
  22004417.369   -17696266.679 7 -13179244.738 5
  23796709.161   -10183836.796 5  -8463298.455 2
  20626161.386     2349020.643 9 -15350766.989 9
 94  3 22 20 23 29.9990000  0  6 31 27 18  2 16 19
  22144370.801   -31906643.571 7 -14072578.309 6
  20489382.935   -27368163.821 9 -20364316.290 9
  22075674.319     9135495.054 7  -7320618.174 5
  21993029.632   -17756106.321 7 -13225872.986 6
  23797751.300   -10178345.897 5  -8459019.921 2
  20628525.609     2361447.555 9 -15341083.679 9
 94  3 22 20 23 59.9990000  0  7 31 27 18  2 16 19  7
  22152318.149   -31864901.085 7 -14040051.699 6
  20482307.264   -27405338.602 9 -20393283.633 9
  22092910.556     9226090.552 7  -7250024.373 5
  21981695.919   -17815709.521 7 -13272317.000 6
  23798892.699   -10172364.438 5  -8454359.062 2
  20630934.261     2374106.064 9 -15331219.901 9
  24705868.013   -31012674.60415  -3013270.615 2
 94  3 22 20 24 29.9990000  0  7 31 27 18  2 16 19  7
  22160366.108   -31822598.123 7 -14007088.339 6
  20475285.435   -27442257.685 9 -20422051.739 9
  22110210.470     9316994.481 7  -7179190.228 5
  21970395.092   -17875067.303 7 -13318569.792 6
  23800127.275   -10165874.144 5  -8449301.765 2
  20633389.262     2387015.771 8 -15321160.412 9
  24684602.535   -31124421.758 4  -3100346.107 2
 94  3 22 20 24 59.9990000  0  7 31 27 18  2 16 19  7
  22168523.790   -31779726.695 7 -13973682.028 6
  20468303.418   -27478936.194 9 -20450632.374 9
  22127566.295     9408205.398 7  -7108116.897 5
  21959146.969   -17934192.848 8 -13364641.584 6
  23801456.135   -10158873.544 5  -8443846.799 2
  20635897.326     2400185.530 8 -15310898.253 9
  24663332.860   -31236171.334 4  -3187423.561 2
 94  3 22 20 25 29.9990000  0  7 31 27 18  2 16 19  7
  22176790.597   -31736293.690 7 -13939838.121 6
  20461365.531   -27515394.106 9 -20479041.131 9
  22144978.990     9499701.670 7  -7036821.185 5
  21947936.979   -17993063.396 8 -13410514.696 6
  23802889.682   -10151366.886 5  -8437997.503 2
  20638457.103     2413623.561 8 -15300427.064 9
  24642062.975   -31347939.537 3  -3274515.405 3
 94  3 22 20 25 59.9990000  0  7 31 27 18  2 16 19  7
  22185157.655   -31692309.774 7 -13905564.951 6
  20454468.956   -27551631.290 9 -20507277.872 9
  22162444.269     9591492.896 7  -6965295.652 5
  21936786.978   -18051660.993 7 -13456175.114 6
  23804417.994   -10143344.346 5  -8431746.230 1
  20641061.970     2427337.538 8 -15289740.849 9
  24620789.102   -31459723.433 3  -3361619.495 2
 94  3 22 20 26 29.9990000  0  7 31 27 18  2 16 19  7
  22193631.978   -31647777.972 7 -13870864.860 6
  20447618.818   -27587637.222 9 -20535334.421 9
  22179972.295     9683589.491 7  -6893532.163 5
  21925693.848   -18109970.709 8 -13501611.205 6
  23806041.071   -10134809.722 5  -8425095.925 1
  20643729.523     2441327.859 8 -15278839.287 9
  24599522.305   -31571525.848 4  -3448738.036 2
 94  3 22 20 26 59.9990000  0  7 31 27 18  2 16 19  7
  22202211.439   -31602698.942 7 -13835738.359 6
  20440811.251   -27623409.312 9 -20563208.758 9
  22197551.915     9775979.795 7  -6821539.797 5
  21914656.059   -18167989.793 8 -13546820.841 6
  23807766.196   -10125754.826 5  -8418040.281 1
  20646440.667     2455585.291 8 -15267729.598 9
  24578241.747   -31683353.587 5  -3535876.285 3
 94  3 22 20 27 29.9990000  0  7 31 27 18  2 16 19  7
  22210894.628   -31557088.218 7 -13800197.541 6
  20434050.601   -27658937.229 9 -20590892.830 9
  22215187.506     9868657.306 7  -6749323.651 5
  21903668.696   -18225708.864 7 -13591796.666 6
  23809578.862   -10116171.251 5  -8410572.532 1
  20649202.475     2470098.302 8 -15256420.757 9
  24556957.802   -31795200.285 4  -3623029.289 3
 94  3 22 20 27 59.9990000  0  7 31 27 18  2 16 19  7
  22219674.529   -31510940.462 7 -13764238.263 6
  20427339.717   -27694207.951 9 -20618376.487 9
  22232881.916     9961631.385 7  -6676876.416 5
  21892744.648   -18283135.355 7 -13636544.535 6
  23811510.304   -10106053.533 5  -8402688.720 1
  20652008.712     2484853.331 8 -15244923.319 9
  24535661.415   -31907056.611 4  -3710189.806 3
 94  3 22 20 28 29.9990000  0  7 31 27 18  2 16 19  7
  22228555.221   -31464258.014 7 -13727862.344 6
  20420673.532   -27729217.924 9 -20645656.969 9
  22250626.812    10054886.643 7  -6604210.105 5
  21881863.261   -18340286.107 7 -13681077.530 6
  23813544.336   -10095403.591 5  -8394390.136 1
  20654865.074     2499848.456 8 -15233238.786 9
  24514374.921   -32018922.729 4  -3797357.924 2
 94  3 22 20 28 59.9990000  0  7 31 27 18  2 16 19  7
  22237541.800   -31417035.214 7 -13691065.356 6
  20414064.937   -27763965.005 9 -20672732.587 9
  22268427.169    10148424.625 7  -6531323.469 5
  21871040.784   -18397169.775 7 -13725402.426 6
  23815662.970   -10084224.739 5  -8385679.296 1
  20657765.656     2515092.407 8 -15221360.407 9
  24493095.413   -32130775.782 4  -3884515.904 2
 94  3 22 20 29 29.9990000  0  7 31 27 18  2 16 19  7
  22246631.328   -31369269.301 7 -13653845.185 6
  20407505.748   -27798429.062 9 -20699587.670 9
  22286285.805    10242256.023 7  -6458208.195 5
  21860271.999   -18453771.652 7 -13769507.746 6
  23817888.089   -10072535.628 5  -8376571.047 1
  20660719.122     2530613.305 8 -15209266.181 9
  24471819.172   -32242593.321 4  -3971646.189 2
 94  3 22 20 29 59.9990000  0  7 31 27 18  2 16 19  7
  22255825.812   -31320953.771 7 -13616196.707 6
  20401000.701   -27832611.312 9 -20726223.190 9
  22304191.989    10336386.382 7  -6384859.968 5
  21849549.502   -18510097.000 7 -13813397.572 6
  23820200.508   -10060369.012 5  -8367090.584 1
  20663725.141     2546424.956 7 -15196945.430 9
  24450542.272   -32354387.069 5  -4058757.950 2
 94  3 22 20 30 29.9990000  0  7 31 27 18  2 16 19  7
  22265122.736   -31272108.995 7 -13578135.867 6
  20394548.808   -27866518.215 9 -20752644.124 9
  22322157.172    10430796.418 7  -6311293.800 5
  21838879.918   -18566146.931 7 -13857072.788 6
  23822603.765   -10047756.507 5  -8357262.681 1
  20666789.200     2562526.569 7 -15184398.703 9
  24429269.479   -32466166.938 4  -4145858.890 2
 94  3 22 20 30 59.9990000  0  7 31 27 18  2 16 19  7
  22274518.682   -31222730.766 7 -13539659.344 6
  20388148.748   -27900154.714 9 -20778854.374 9
  22340176.048    10525481.814 7  -6237513.086 5
  21828273.051   -18621910.130 7 -13900524.575 6
  23825088.834   -10034705.811 5  -8347093.426 1
  20669907.761     2578912.451 7 -15171630.488 9
  24408003.881   -32577933.610 4  -4232949.557 2
 94  3 22 20 31 29.9990000  0  7 31 27 18  2 16 19  7
  22284017.336   -31172819.846 7 -13500767.721 6
  20381798.514   -27933527.747 9 -20804859.323 9
  22358245.259    10620425.162 7  -6163531.367 5
  21817711.483   -18677393.216 7 -13943758.086 6
  23827649.332   -10021224.871 5  -8336588.791 1
  20673076.717     2595572.309 7 -15158648.763 9
  24386719.695   -32689705.326 3  -4320044.186 2
 94  3 22 20 31 59.9990000  0  7 31 27 18  2 16 19  7
  22293614.622   -31122365.223 7 -13461452.443 6
  20375494.659   -27966642.100 9 -20830662.703 9
  22376360.638    10715618.939 7  -6089354.522 5
  21807207.954   -18732609.951 7 -13986784.062 6
  23830300.966   -10007298.084 5  -8325736.853 1
  20676297.297     2612483.248 7 -15145471.411 9
  24365455.356   -32801484.365 4  -4407144.462 2
 94  3 22 20 32 29.9990000  0  7 31 27 18  2 16 19  7
  22303323.550   -31071351.383 7 -13421701.417 6
  20369244.166   -27999494.778 9 -20856262.173 9
  22394525.692    10811047.155 7  -6014994.979 5
  21796751.763   -18787561.920 7 -14029603.686 6
  23833043.228    -9992891.276 5  -8314510.772 2
  20679560.568     2629637.967 8 -15132104.078 9
  24344190.957   -32913255.899 5  -4494238.938 2
 94  3 22 20 32 59.9990000  0  7 31 27 18  2 16 19  7
  22313142.773   -31019764.205 7 -13381503.635 6
  20363042.029   -28032088.970 9 -20881660.243 9
  22412727.562    10906720.743 7  -5940444.267 4
  21786341.470   -18842259.257 7 -14072224.940 6
  23835882.952    -9977984.302 5  -8302894.998 2
  20682874.474     2647049.427 8 -15118536.707 9
  24322930.725   -33025009.744 5  -4581319.586 2
 94  3 22 20 33 29.9990000  0  7 31 27 18  2 16 19  7
  22323064.134   -30967615.155 7 -13340868.027 6
  20356890.738   -28064415.190 9 -20906849.506 9
  22430984.143    11002649.293 7  -5865694.849 4
  21775982.171   -18896703.455 7 -14114648.937 6
  23838813.603    -9962585.230 5  -8290895.803 2
  20686236.556     2664718.780 8 -15104768.383 8
  24301662.699   -33136742.335 5  -4668383.735 2
 94  3 22 20 33 59.9990000  0  7 31 27 18  2 16 19  7
  22333090.813   -30914928.739 7 -13299813.685 6
  20350788.912   -28096474.061 8 -20931830.427 9
  22449287.612    11098833.679 7  -5790746.110 4
  21765673.238   -18950888.222 8 -14156870.755 6
  23841832.333    -9946692.227 5  -8278511.673 2
  20689646.905     2682638.302 8 -15090805.115 8
  24280411.371   -33248447.149 5  -4755426.130 2
 94  3 22 20 34 29.9990000  0  7 31 27 18  2 16 19  7
  22343214.145   -30861729.573 7 -13258359.782 6
  20344743.297   -28128254.796 8 -20956594.632 9
  22467638.148    11195294.121 7  -5715582.254 4
  21755416.109   -19004787.297 8 -14198869.966 6
  23844953.682    -9930310.474 5  -8265746.817 2
  20693111.187     2700831.643 8 -15076628.495 8
  24259157.015   -33360116.006 5  -4842440.509 2
 94  3 22 20 34 59.9990000  0  7 31 27 18  2 16 19  7
  22353430.172   -30808042.991 7 -13216526.082 6
  20338744.570   -28159757.021 8 -20981141.803 9
  22486049.152    11292036.094 7  -5640199.040 4
  21745213.812   -19058388.922 8 -14240637.402 6
  23848157.054    -9913462.352 5  -8252618.398 2
  20696621.967     2719290.891 8 -15062244.666 8
  24237914.621   -33471739.841 5  -4929419.859 2
 94  3 22 20 35 29.9990000  0  7 31 27 18  2 16 19  7
  22363737.547   -30753881.328 7 -13174322.225 5
  20332806.971   -28190979.778 8 -21005471.228 9
  22504512.710    11389047.347 7  -5564605.969 4
  21735070.724   -19111698.949 8 -14282177.625 6
  23851454.412    -9896152.526 5  -8239130.328 2
  20700181.702     2738003.118 8 -15047663.720 8
  24216682.270   -33583323.227 5  -5016367.680 2
 94  3 22 20 35 59.9990000  0  7 31 27 18  2 16 19  7
  22374132.760   -30699242.413 7 -13131746.466 5
  20326913.441   -28221946.284 8 -21029600.961 9
  22523017.849    11486316.103 7  -5488812.241 4
  21724977.101   -19164731.354 8 -14323501.531 6
  23854836.370    -9878368.746 5  -8225272.876 2
  20703791.743     2756969.490 9 -15032884.730 8
  24195453.576   -33694876.844 5  -5103292.285 2
 94  3 22 20 36 29.9990000  0  7 31 27 18  2 16 19  7
  22384626.755   -30644108.907 7 -13088785.284 5
  20321066.918   -28252664.247 8 -21053537.011 9
  22541579.020    11583837.838 7  -5412821.431 4
  21714934.833   -19217498.212 8 -14364618.497 6
  23858309.736    -9860113.457 5  -8211048.036 2
  20707449.271     2776195.717 9 -15017903.263 8
  24174232.287   -33806402.395 5  -5190195.012 2
 94  3 22 20 36 59.9990000  0  7 31 27 18  2 16 19  7
  22395218.753   -30588442.306 7 -13045408.753 5
  20315268.242   -28283136.964 8 -21077281.972 9
  22560180.632    11681607.713 7  -5336637.226 4
  21704947.547   -19270016.938 8 -14405542.109 6
  23861875.108    -9841371.002 5  -8196443.586 2
  20711158.843     2795687.885 9 -15002714.590 8
  24153017.654   -33917889.395 5  -5277067.661 2
 94  3 22 20 37 29.9990000  0  7 31 27 18  2 16 19  7
  22405916.877   -30532232.609 7 -13001608.996 5
  20309515.945   -28313372.584 8 -21100842.180 9
  22578833.779    11779615.754 7  -5260267.464 4
  21694996.267   -19322305.166 8 -14446286.123 7
  23865539.291    -9822146.378 5  -8181463.387 2
  20714922.228     2815453.706 9 -14987312.650 8
  24131801.701   -34029363.197 5  -5363930.005 2
 94  3 22 20 37 59.9990000  0  7 31 27 18  2 16 19  7
  22416710.754   -30475502.237 7 -12957403.523 5
  20303804.449   -28343389.797 8 -21124232.218 9
  22597526.828    11877844.394 7  -5183725.784 4
  21685087.077   -19374359.202 8 -14486847.645 7
  23869276.294    -9802463.225 5  -8166125.942 2
  20718732.680     2835484.624 9 -14971704.162 8
  24110590.935   -34140824.872 5  -5450782.931 2
 94  3 22 20 38 29.9990000  0  7 31 27 18  2 16 19  7
  22427604.672   -30418261.756 7 -12912800.567 5
  20298135.163   -28373172.043 7 -21147439.131 9
  22616258.040    11976275.731 7  -5107026.183 5
  21675228.132   -19426180.784 8 -14527228.064 7
  23873106.232    -9782351.146 5  -8150454.271 2
  20722592.538     2855772.655 9 -14955895.319 8
  24089380.979   -34252268.640 5  -5537621.995 2
 94  3 22 20 38 59.9990000  0  7 31 27 18  2 16 19  7
  22438589.638   -30360530.069 7 -12867814.838 5
  20292515.674   -28402707.788 7 -21170453.992 8
  22635026.787    12074901.038 7  -5030175.408 5
  21665408.430   -19477770.217 8 -14567427.576 7
  23877015.616    -9761816.453 5  -8134453.195 2
  20726502.581     2876316.060 9 -14939887.484 8
  24068178.757   -34363689.792 5  -5624443.369 2
 94  3 22 20 39 29.9990000  0  7 31 27 18  2 16 19  7
  22449661.932   -30302330.900 7 -12822464.874 4
  20286945.290   -28431979.001 7 -21193262.707 8
  22653831.329    12173723.532 6  -4953171.012 4
  21655640.502   -19529104.943 8 -14607428.607 7
  23881003.515    -9740854.001 5  -8118118.917 2
  20730462.300     2897112.602 9 -14923682.401 8
  24046980.882   -34475080.360 5  -5711240.954 2
 94  3 22 20 39 59.9990000  0  7 31 27 18  2 16 19  7
  22460827.193   -30243668.345 7 -12776753.805 4
  20281430.638   -28460963.247 7 -21215847.832 9
  22672673.075    12272745.841 7  -4876010.899 5
  21645924.378   -19580175.132 8 -14647223.527 7
  23885080.693    -9719447.004 5  -8101438.207 2
  20734466.358     2918169.462 9 -14907274.475 8
  24025800.305   -34586420.480 5  -5797999.158 2
 94  3 22 20 40 29.9990000  0  7 31 27 18  2 16 19  7
  22472080.502   -30184534.955 7 -12730675.878 4
  20275970.638   -28489641.839 7 -21238194.766 9
  22691558.801    12371975.386 7  -4798689.325 4
  21636252.324   -19630985.892 8 -14686816.297 7
  23889238.334    -9697579.088 5  -8084398.359 2
  20738524.348     2939485.149 9 -14890664.854 9
  24004611.933   -34697715.554 5  -5884722.377 2
 94  3 22 20 40 59.9990000  0  7 31 27 18  2 16 19  7
  22483421.381   -30124934.540 7 -12684234.029 4
  20270575.543   -28518013.622 7 -21260302.655 9
  22710483.320    12471430.310 7  -4721192.116 5
  21626636.241   -19681525.161 7 -14726197.527 7
  23893494.878    -9675228.169 5  -8066982.134 2
  20742629.227     2961065.902 9 -14873848.696 9
  23983445.836   -34808963.119 5  -5971408.533 2
 94  3 22 20 41 29.9990000  0  7 31 27 18  2 16 19  7
  22494853.217   -30064860.464 7 -12637423.070 4
  20265230.573   -28546070.152 7 -21282164.885 9
  22729449.899    12571119.256 7  -4643512.560 5
  21617072.982   -19731780.998 7 -14765357.901 7
  23897838.271    -9652389.644 5  -8049185.935 2
  20746787.588     2982912.609 9 -14856825.306 9
  23962287.294   -34920172.856 5  -6058065.235 2
 94  3 22 20 41 59.9990000  0  7 31 27 18  2 16 19  7
  22506373.822   -30004310.288 7 -12590241.139 4
  20259954.915   -28573819.916 7 -21303788.063 9
  22748465.255    12671040.842 6  -4565651.728 5
  21607563.565   -19781760.224 8 -14804302.698 7
  23902278.677    -9629072.524 5  -8031016.862 2
  20750996.224     3005029.575 9 -14839591.322 9
  23941127.792   -35031346.435 5  -6144693.724 2
 94  3 22 20 42 29.9990000  0  7 31 27 18  2 16 19  7
  22517989.970   -29943283.677 7 -12542687.955 4
  20254725.245   -28601281.925 7 -21325187.016 9
  22767526.270    12771209.119 6  -4487598.687 5
  21598104.363   -19831464.866 8 -14843033.558 7
  23906806.502    -9605291.386 5  -8012486.104 2
  20755253.907     3027412.192 9 -14822150.336 9
  23919983.010   -35142477.515 5  -6231289.113 2
 94  3 22 20 42 59.9990000  0  7 31 27 18  2 16 19  7
  22529696.176   -29881767.332 6 -12494753.185 4
  20249556.194   -28628460.405 7 -21346365.054 9
  22786635.491    12871621.863 6  -4409355.112 5
  21588698.405   -19880892.557 8 -14881548.586 7
  23911411.854    -9581062.485 5  -7993606.529 2
  20759566.811     3050074.416 9 -14804491.465 9
  23898846.473   -35253548.915 5  -6317837.998 2
 94  3 22 20 43 29.9990000  0  7 31 27 18  2 16 19  7
  22541498.106   -29819745.479 7 -12446424.482 4
  20244439.156   -28655356.543 7 -21367323.071 9
  22805789.980    12972273.102 6  -4330925.710 5
  21579344.191   -19930050.530 7 -14919853.477 7
  23916110.861    -9556394.402 5  -7974384.732 2
  20763934.997     3073028.371 9 -14786605.284 9
  23877725.315   -35364539.575 5  -6404323.986 2
 94  3 22 20 43 59.9990000  0  7 31 27 18  2 16 19  7
  22553398.277   -29757209.656 7 -12397695.327 4
  20239371.555   -28681978.304 7 -21388067.284 9
  22824988.239    13073158.663 6  -4252313.734 5
  21570037.014   -19978938.681 7 -14957948.098 7
  23920878.910    -9531298.129 5  -7954829.205 2
  20768361.642     3096286.246 9 -14768482.272 9
  23856626.221   -35475415.145 5  -6490720.276 2
 94  3 22 20 44 29.9990000  0  7 31 27 18  2 16 19  7
  22565394.982   -29694160.628 7 -12348566.274 3
  20234357.736   -28708321.481 7 -21408594.450 9
  22844225.622    13174259.567 6  -4173533.948 5
  21560783.200   -20027565.245 7 -14995838.899 7
  23925733.569    -9505795.722 5  -7934957.326 2
  20772842.520     3119834.500 9 -14750132.995 9
  23835544.816   -35586169.440 5  -6577022.085 2
 94  3 22 20 44 59.9990000  0  7 31 27 18  2 16 19  7
  22577490.678   -29630604.832 7 -12299042.287 3
  20229404.475   -28734364.408 7 -21428887.629 9
  22863502.397    13275554.704 6  -4094602.835 5
  21551584.698   -20075926.927 7 -15033523.294 7
  23930668.693    -9479879.671 5  -7914763.073 2
  20777380.599     3143675.008 9 -14731555.988 9
  23814499.205   -35696796.076 5  -6663224.352 2
 94  3 22 20 45 29.9990000  0  7 31 27 18  2 16 19  7
  22589675.953   -29566557.010 7 -12249134.934 3
  20224502.838   -28760105.722 8 -21448945.804 9
  22882819.104    13377048.049 7  -4015517.280 5
  21542433.084   -20124019.892 7 -15070998.296 7
  23935675.347    -9453542.420 5  -7894240.638 2
  20781970.811     3167800.692 9 -14712756.758 9
  23793468.704   -35807296.087 5  -6749327.959 2
 94  3 22 20 45 59.9990000  0  7 31 27 18  2 16 19  7
  22601957.640   -29502033.955 7 -12198857.287 3
  20219665.507   -28785542.345 8 -21468766.544 9
  22902166.780    13478732.235 7  -3936282.987 5
  21533331.925   -20171839.446 8 -15108260.237 7
  23940772.778    -9426781.527 5  -7873388.005 2
  20786611.418     3192193.132 8 -14693749.670 9
  23772465.425   -35917687.367 5  -6835346.783 2
 94  3 22 20 46 29.9990000  0  7 31 27 18  2 16 19  7
  22614324.049   -29437034.637 7 -12148208.450 3
  20214883.607   -28810665.101 8 -21488342.707 9
  22921556.397    13580608.779 7  -3856898.814 5
  21524284.758   -20219386.506 8 -15145309.860 7
  23945945.787    -9399575.409 5  -7852188.494 2
  20791303.320     3216854.691 8 -14674532.880 9
  23751469.250   -36027992.122 5  -6921298.206 2
 94  3 22 20 46 59.9990000  0  7 31 27 18  2 16 19  7
  22626781.145   -29371572.131 7 -12097198.718 3
  20210160.437   -28835481.002 8 -21507679.771 9
  22940976.083    13682678.583 7  -3777364.035 5
  21515287.357   -20266661.751 8 -15182147.677 7
  23951220.725    -9371905.175 5  -7830627.407 2
  20796050.624     3241791.884 8 -14655101.315 9
  23730493.101   -36138222.037 5  -7007191.324 3
 94  3 22 20 47 29.9990000  0  7 31 27 18  2 16 19  7
  22639329.378   -29305637.929 7 -12045821.471 3
  20205495.517   -28859987.245 8 -21526775.535 9
  22960438.429    13784943.480 7  -3697677.294 4
  21506343.828   -20313649.920 8 -15218761.791 7
  23956571.601    -9343756.186 5  -7808693.146 2
  20800849.132     3267009.120 7 -14635451.523 9
  23709536.649   -36248374.352 6  -7093023.998 3
 94  3 22 20 47 59.9990000  0  7 31 27 18  2 16 19  7
  22651966.620   -29239233.670 7 -11994077.907 4
  20200890.435   -28884183.216 8 -21545629.530 9
  22979930.605    13887388.818 7  -3617849.908 4
  21497458.399   -20360357.251 8 -15255157.086 7
  23962018.200    -9315133.600 5  -7786389.939 2
  20805699.924     3292506.439 7 -14615583.469 9
  23688586.523   -36358449.978 6  -7178796.901 3
 94  3 22 20 48 29.9990000  0  7 31 27 18  2 16 19  7
  22664684.655   -29172377.336 7 -11941982.076 4
  20196346.780   -28908070.949 8 -21564243.328 9
  22999460.945    13990019.124 7  -3537878.401 4
  21488619.828   -20406797.070 8 -15291343.905 8
  23967544.784    -9286068.704 4  -7763742.030 2
  20810607.586     3318285.424 7 -14595495.944 9
  23667657.382   -36468439.556 6  -7264502.737 3
 94  3 22 20 48 59.9990000  0  7 31 27 18  2 16 19  7
  22677493.828   -29105087.894 7 -11889548.755 4
  20191859.906   -28931651.607 8 -21582617.854 9
  23019028.608    14092832.929 7  -3457763.853 4
  21479833.331   -20452971.045 8 -15327323.582 8
  23973162.955    -9256582.409 4  -7740765.772 1
  20815566.033     3344345.656 7 -14575189.254 9
  23646744.459   -36578318.455 6  -7350122.373 3
 94  3 22 20 49 29.9990000  0  7 31 27 18  2 16 19  7
  22690379.447   -29037363.745 7 -11836776.688 4
  20187429.933   -28954930.674 8 -21600757.394 9
  23038628.260    14195828.890 7  -3377507.463 4
  21471096.599   -20498883.345 9 -15363099.366 8
  23978837.576    -9226695.825 4  -7717477.645 1
  20820578.413     3370679.956 7 -14554669.030 9
  23625862.296   -36688088.052 6  -7435656.848 3
 94  3 22 20 49 59.9990000  0  7 31 27 18  2 16 19  7
  22703353.086   -28969195.071 7 -11783658.261 4
  20183059.918   -28977900.999 8 -21618656.328 9
  23058268.383    14299038.507 7  -3297084.518 4
  21462408.554   -20544530.384 8 -15398668.446 8
  23984605.973    -9196433.284 4  -7693896.451 2
  20825642.238     3397312.740 7 -14533916.203 9
  23604992.424   -36797731.946 6  -7521093.382 3
 94  3 22 20 50 29.9990000  0  7 31 27 18  2 16 19  7
  22716409.977   -28900579.922 7 -11730191.941 4
  20178748.213   -29000558.673 8 -21636311.641 9
  23077947.449    14402459.184 6  -3216497.154 3
  21453777.319   -20589903.859 9 -15434024.362 8
  23990427.673    -9165791.206 4  -7670019.629 2
  20830770.488     3424254.339 7 -14512922.750 9
  23584159.006   -36907240.350 6  -7606424.333 3
 94  3 22 20 50 59.9990000  0  7 31 27 18  2 16 19  7
  22729553.597   -28831503.054 7 -11676365.855 3
  20174493.199   -29022908.575 8 -21653727.135 9
  23097661.052    14506066.105 6  -3135764.631 3
  21445195.700   -20634992.657 9 -15469158.442 8
  23996338.381    -9134744.306 4  -7645827.260 2
  20835957.976     3451508.490 7 -14491685.730 9
  23563340.699   -37016618.472 6  -7691653.790 3
 94  3 22 20 51 29.9990000  0  7 31 27 18  2 16 19  7
  22742789.195   -28761946.604 6 -11622166.082 3
  20170299.342   -29044951.648 8 -21670903.547 9
  23117410.630    14609855.311 6  -3054890.104 3
  21436674.879   -20679785.992 9 -15504062.288 7
  24002335.909    -9103285.863 4  -7621314.282 2
  20841203.715     3479067.971 7 -14470210.812 9
  23542550.931   -37125886.005 6  -7776797.089 3
 94  3 22 20 51 59.9990000  0  7 31 27 18  2 16 19  7
  22756117.368   -28691915.638 6 -11567596.503 3
  20166168.082   -29066674.006 8 -21687830.047 9
  23137192.705    14713823.789 6  -2973875.857 3
  21428207.211   -20724278.488 9 -15538731.713 7
  24008393.935    -9071401.594 5  -7596469.494 2
  20846506.474     3506937.499 8 -14448494.290 9
  23521778.012   -37235031.708 6  -7861845.460 3
 94  3 22 20 52 29.9990000  0  7 31 27 18  2 16 19  7
  22769533.230   -28621405.740 6 -11512653.763 3
  20162098.130   -29088059.701 8 -21704494.225 9
  23157012.974    14817962.509 6  -2892728.995 3
  21419796.414   -20768466.345 9 -15573163.770 7
  24014555.329    -9039046.584 4  -7571257.919 2
  20851865.264     3535110.999 8 -14426540.914 9
  23501033.273   -37344052.465 6  -7946796.466 3
 94  3 22 20 52 59.9990000  0  7 31 27 18  2 16 19  7
  22783041.549   -28550414.354 6 -11457335.825 2
  20158094.192   -29109099.894 8 -21720889.162 9
  23176865.830    14922283.076 6  -2811440.384 3
  21411445.275   -20812358.352 9 -15607365.271 7
  24020801.595    -9006220.459 4  -7545679.130 1
  20857281.524     3563570.379 8 -14404364.771 9
  23480313.777   -37452953.182 6  -8031653.935 3
 94  3 22 20 53 29.9990000  0  7 31 27 18  2 16 19  7
  22796640.764   -28478953.530 6 -11401652.106 2
  20154158.696   -29129783.927 8 -21737006.593 9
  23196753.821    15026798.814 6  -2729999.737 3
  21403143.272   -20855972.459 9 -15641350.266 7
  24027132.672    -8972927.265 4  -7519736.467 1
  20862750.458     3592310.579 9 -14381969.828 9
  23459603.724   -37561729.086 5  -8116414.200 3
 94  3 22 20 53 59.9990000  0  7 31 27 18  2 16 19  7
  22810326.170   -28407046.932 6 -11345621.021 2
  20150288.196   -29150106.727 8 -21752842.527 9
  23216679.707    15131506.114 6  -2648409.779 3
  21394894.783   -20899328.547 9 -15675134.184 7
  24033556.235    -8939176.322 5  -7493437.136 1
  20868276.353     3621333.638 9 -14359354.454 9
  23438932.914   -37670362.527 5  -8201063.416 4
 94  3 22 20 54 29.9990000  0  7 31 27 18  2 16 19  7
  22824090.631   -28334715.708 6 -11289259.077 3
  20146485.628   -29170087.821 8 -21768412.228 9
  23236636.591    15236377.345 6  -2566692.091 3
  21386687.544   -20942445.507 9 -15708731.784 7
  24040067.458    -8904999.121 5  -7466805.627 2
  20873849.135     3650622.697 9 -14336531.832 9
  23418293.373   -37778867.789 6  -8285612.714 4
 94  3 22 20 54 59.9990000  0  7 31 27 18  2 16 19  7
  22837933.098   -28261955.196 6 -11232562.614 3
  20142750.514   -29189725.885 7 -21783714.598 9
  23256623.874    15341415.398 6  -2484844.441 3
  21378530.251   -20985316.602 8 -15742137.816 7
  24046646.103    -8870419.487 5  -7439860.548 1
  20879476.209     3680192.521 9 -14313490.419 9
  23397666.273   -37887235.086 5  -8370054.559 4
 94  3 22 20 55 29.9990000  0  7 31 27 18  2 16 19  7
  22851862.025   -28188778.071 6 -11175541.519 3
  20139075.148   -29209042.722 7 -21798766.680 9
  23276643.625    15446608.720 6  -2402875.778 3
  21370420.086   -21027942.073 8 -15775352.435 7
  24053299.277    -8835450.727 5  -7412612.283 2
  20885159.915     3710065.969 9 -14290212.431 8
  23377069.811   -37995465.434 5  -8454389.713 4
 94  3 22 20 55 59.9990000  0  7 31 27 18  2 16 19  7
  22865872.826   -28115174.681 6 -11118188.306 3
  20135459.202   -29228049.046 8 -21813576.814 9
  23296692.755    15551955.075 6  -2320787.897 2
  21362358.607   -21070309.155 8 -15808365.715 7
  24060028.119    -8800108.868 5  -7385073.209 2
  20890904.148     3740254.728 9 -14266688.733 8
  23356494.785   -38103553.867 5  -8538614.260 4
 94  3 22 20 56 29.9990000  0  7 31 27 18  2 16 19  7
  22879954.977   -28041129.770 6 -11060491.013 4
  20131899.016   -29246751.724 7 -21828150.302 9
  23316762.032    15657452.850 6  -2238581.970 3
  21354348.212   -21112409.797 8 -15841171.384 7
  24066816.709    -8764389.748 5  -7357240.212 2
  20896708.730     3770757.487 9 -14242920.362 7
  23335956.334   -38211501.178 5  -8622728.813 4
 94  3 22 20 56 59.9990000  0  8 31 26 27 18  2 16 19  7
  22894125.357   -27966655.151 6 -11002458.893 4
  24813200.729     -892568.93114  -2043259.299 2
  20128394.952   -29265169.012 8 -21842501.436 9
  23336871.270    15763105.660 6  -2156255.336 2
  21346383.326   -21154257.328 7 -15873779.827 7
  24073687.833    -8728307.322 5  -7329124.130 2
  20902569.073     3801558.953 9 -14218919.233 7
  23315448.131   -38319304.322 6  -8706730.996 4
 94  3 22 20 57 29.9990000  0  8 31 26 27 18  2 16 19  7
  22908383.516   -27891760.742 6 -10944099.693 4
  24794481.358     -990962.282 5  -2119929.436 2
  20124940.474   -29283302.212 8 -21856631.198 9
  23357006.201    15868911.165 6  -2073809.642 2
  21338467.336   -21195849.938 7 -15906189.611 7
  24080628.808    -8691854.535 5  -7300719.464 2
  20908487.395     3832650.658 9 -14194691.943 7
  23294963.133   -38426951.233 6  -8790611.434 4
 94  3 22 20 57 59.9990000  0  8 31 26 27 18  2 16 19  7
  22922712.157   -27816453.516 6 -10885418.763 4
  24775781.953    -1089196.458 5  -2196475.531 2
  20121553.868   -29301125.863 8 -21870519.765 9
  23377167.664    15974875.691 6  -1991240.083 3
  21330602.941   -21237177.905 7 -15938393.198 7
  24087635.227    -8655032.800 5  -7272027.230 2
  20914453.505     3864013.565 9 -14170253.344 6
  23274500.559   -38534438.861 5  -8874367.802 4
 94  3 22 20 58 29.9990000  0  8 31 26 27 18  2 16 19  7
  22937119.403   -27740738.847 6 -10826420.396 4
  24757137.261    -1187246.221 5  -2272877.950 2
  20118222.754   -29318610.918 8 -21884144.470 9
  23397364.022    16081014.306 6  -1908534.848 3
  21322791.639   -21278222.253 7 -15970375.764 7
  24094710.419    -8617818.894 5  -7243029.562 2
  20920477.595     3895655.933 9 -14145596.991 6
  23254078.726   -38641759.556 5  -8957994.091 4
 94  3 22 20 58 59.9990000  0  8 31 26 27 18  2 16 19  7
  22951604.895   -27664616.136 6 -10767104.046 4
  24738507.648    -1285103.637 5  -2349130.440 2
  20114964.610   -29335731.708 8 -21897485.337 9
  23417599.473    16187337.221 6  -1825686.006 3
  21315038.136   -21318980.716 8 -16002135.580 7
  24101868.444    -8580209.178 5  -7213723.332 2
  20926554.898     3927601.065 9 -14120704.716 6
  23233689.242   -38748920.902 6  -9041496.134 3
 94  3 22 20 59 29.9990000  0  8 31 26 27 18  2 16 19  7
  22966167.493   -27588088.385 6 -10707472.104 4
  24719925.462    -1382769.745 5  -2425233.875 2
  20111779.914   -29352483.368 8 -21910538.584 9
  23437866.403    16293829.877 6  -1742704.921 3
  21307337.367   -21359448.659 8 -16033669.035 8
  24109103.845    -8542197.819 5  -7184104.210 2
  20932693.718     3959859.658 9 -14095568.176 6
  23213319.303   -38855949.837 6  -9124895.008 4
 94  3 22 20 59 59.9990000  0  8 31 26 27 18  2 16 19  7
  22980810.676   -27511151.912 6 -10647521.676 4
  24701374.454    -1480243.215 5  -2501187.182 2
  20108660.634   -29368864.388 8 -21923302.995 9
  23458156.446    16400480.590 6  -1659600.630 3
  21299689.902   -21399619.350 8 -16064970.822 8
  24116412.275    -8503797.072 5  -7154181.675 2
  20938892.556     3992432.066 9 -14070187.107 6
  23192980.813   -38962849.770 5  -9208193.404 4
 94  3 22 21  0 29.9990000  0  8 31 26 27 18  2 16 19  7
  22995523.980   -27433802.512 6 -10587249.466 4
  24682865.238    -1577523.503 5  -2576989.993 2
  20105611.205   -29384900.307 8 -21935798.506 9
  23478473.831    16507258.569 6  -1576397.234 3
  21292100.506   -21439509.604 8 -16096054.121 8
  24123793.585    -8465006.112 5  -7123955.039 2
  20945150.154     4025319.569 8 -14044560.492 6
  23172665.138   -39069605.054 6  -9291379.087 4
 94  3 22 21  0 59.9990000  0  8 31 26 27 18  2 16 19  7
  23010328.901   -27356033.656 6 -10526650.414 4
  24664395.414    -1674597.870 5  -2652632.307 2
  20102620.715   -29400604.194 8 -21948035.296 9
  23498822.214    16614147.429 6  -1493107.367 3
  21284564.982   -21479121.023 9 -16126920.126 8
  24131245.496    -8425823.827 5  -7093423.503 2
  20951469.689     4058515.564 8 -14018693.512 6
  23152381.750   -39176194.474 6  -9374435.479 4
 94  3 22 21  1 29.9990000  0  8 31 26 27 18  2 16 19  7
  23025203.134   -27277856.630 6 -10465733.320 4
  24645956.829    -1771455.448 5  -2728105.670 2
  20099692.942   -29415997.375 8 -21960029.965 9
  23519177.882    16721126.326 6  -1409747.433 3
  21277076.287   -21518450.879 9 -16157566.744 8
  24138782.609    -8386259.310 5  -7062594.155 2
  20957838.930     4091993.143 8 -13992607.100 7
  23132137.844   -39282598.190 6  -9457347.135 3
 94  3 22 21  1 59.9990000  0  8 31 26 27 18  2 16 19  7
  23040154.143   -27199279.173 6 -10404504.174 4
  24627566.630    -1868098.450 4  -2803411.876 2
  20096819.401   -29431087.086 8 -21971788.191 9
  23539550.578    16828183.614 6  -1326326.387 3
  21269642.213   -21557526.810 9 -16188015.477 8
  24146371.405    -8346326.006 5  -7031477.358 2
  20964258.716     4125730.937 8 -13966317.915 7
  23111918.042   -39388802.414 6  -9540103.410 3
 94  3 22 21  2 29.9990000  0  8 31 26 27 18  2 16 19  7
  23055182.619   -27120310.271 6 -10342970.011 4
  24609219.392    -1964523.332 4  -2878548.110 2
  20094008.188   -29445875.591 8 -21983311.682 9
  23559932.928    16935326.142 6  -1242838.887 3
  21262250.770   -21596374.507 9 -16218286.377 9
  24154045.822    -8306025.991 5  -7000074.902 2
  20970727.577     4159726.616 8 -13939827.801 7
  23091744.678   -39494823.923 6  -9622717.271 3
 94  3 22 21  2 59.9990000  0  8 31 26 27 18  2 16 19  7
  23070284.844   -27040966.164 6 -10281143.471 4
  24590911.186    -2060736.337 4  -2953519.240 2
  20091255.883   -29460340.119 8 -21994582.740 9
  23580344.987    17042566.545 6  -1159275.153 3
  21254899.050   -21635001.865 9 -16248385.576 9
  24161784.095    -8265376.287 5  -6968399.835 2
  20977247.524     4193976.688 8 -13913139.462 7
  23071604.261   -39600680.965 6  -9705203.037 3
 94  3 22 21  3 29.9990000  0  8 31 26 27 18  2 16 19  7
  23085451.554   -26961250.548 6 -10219027.466 4
  24572636.708    -2156755.308 4  -3028339.183 2
  20088563.747   -29474472.869 8 -22005595.260 9
  23600776.053    17149915.637 6  -1075626.762 3
  21247588.760   -21673423.517 9 -16278324.490 9
  24169578.249    -8224392.505 4  -6936464.559 2
  20983810.670     4228483.446 7 -13886251.090 7
  23051493.523   -39706386.047 6  -9787570.362 3
 94  3 22 21  3 59.9990000  0  8 31 26 27 18  2 16 19  7
  23100689.735   -26881174.326 6 -10156630.448 4
  24554400.392    -2252590.110 4  -3103015.600 2
  20085938.854   -29488262.368 8 -22016340.318 9
  23621220.519    17257384.774 6   -991884.771 3
  21240317.714   -21711643.638 9 -16308106.388 9
  24177438.807    -8183073.979 4  -6904268.413 2
  20990426.820     4263253.032 7 -13859157.928 8
  23031404.221   -39811943.469 6  -9869822.658 3
 94  3 22 21  4 29.9990000  0  8 31 26 27 18  2 16 19  7
  23115993.211   -26800753.385 6 -10093964.850 4
  24536203.470    -2348244.214 4  -3177551.210 2
  20083381.564   -29501702.478 8 -22026813.147 9
  23641699.642    17364973.007 6   -908049.992 3
  21233084.142   -21749646.699 9 -16337719.137 9
  24185375.543    -8141424.649 4  -6871814.372 2
  20997096.003     4298299.550 7 -13831848.955 8
  23011344.867   -39917349.760 6  -9951957.185 3
 94  3 22 21  4 59.9990000  0  8 31 26 27 18  2 16 19  7
  23131359.523   -26719995.740 6 -10031036.906 3
  24518030.321    -2443724.695 5  -3251951.558 2
  20080893.617   -29514784.038 7 -22037006.562 9
  23662193.334    17472674.465 6   -824127.019 3
  21225896.648   -21787413.030 9 -16367147.417 9
  24193363.423    -8099436.147 5  -6839096.255 2
  21003820.707     4333627.821 8 -13804320.441 8
  22991323.918   -40022582.142 6 -10033956.169 3
 94  3 22 21  5 29.9990000  0  8 31 26 27 18  2 16 19  7
  23146797.366   -26638887.446 6  -9967835.692 3
  24499897.074    -2539022.393 5  -3326209.458 2
  20078472.643   -29527510.584 7 -22046923.358 9
  23682713.708    17580488.841 6   -740116.044 3
  21218761.467   -21824915.326 9 -16396369.963 9
  24201416.088    -8057093.783 5  -6806102.303 2
  21010599.734     4369257.851 8 -13776556.793 9
  22971334.596   -40127622.076 6 -10115805.257 3
 94  3 22 21  5 59.9990000  0  8 31 26 27 18  2 16 19  7
  23162294.657   -26557434.861 6  -9904366.231 3
  24481797.374    -2634127.240 5  -3400317.100 2
  20076115.974   -29539885.049 7 -22056565.797 9
  23703243.586    17688396.365 6   -656032.495 3
  21211676.202   -21862144.115 9 -16425379.397 9
  24209537.376    -8014398.413 4  -6772833.299 2
  21017438.960     4405193.776 8 -13748554.787 9
  22951384.457   -40232469.727 6 -10197504.496 3
 94  3 22 21  6 29.9990000  0  8 31 26 27 18  2 16 19  7
  23177864.318   -26475625.723 6  -9840618.910 4
  24463736.707    -2729042.089 5  -3474276.692 2
  20073828.618   -29551914.722 7 -22065939.567 9
  23723794.689    17796385.036 6   -571885.725 3
  21204643.461   -21899101.807 9 -16454177.571 9
  24217735.650    -7971364.169 5  -6739300.175 2
  21024335.326     4441440.722 8 -13720310.419 9
  22931458.002   -40337128.600 6 -10279056.683 3
 94  3 22 21  6 59.9990000  0  8 31 26 27 18  2 16 19  7
  23193502.272   -26393449.789 6  -9776585.783 4
  24445704.611    -2823771.263 5  -3548091.582 2
  20071601.040   -29563614.793 7 -22075056.516 9
  23744359.492    17904451.522 6   -487678.289 3
  21197661.714   -21935789.670 9 -16482765.489 9
  24225980.183    -7928008.321 4  -6705516.561 2
  21031289.491     4477986.054 8 -13691833.553 9
  22911583.801   -40441602.874 6 -10360464.999 3
 94  3 22 21  7 29.9990000  0  8 31 26 27 18  2 16 19  7
  23209213.376   -26310882.366 6  -9712247.573 4
  24427719.342    -2918299.028 5  -3621749.533 2
  20069432.581   -29574991.030 7 -22083921.102 9
  23764938.415    18012603.036 5   -403404.592 3
  21190731.142   -21972212.841 8 -16511147.138 8
  24234277.329    -7884333.491 4  -6671484.276 2
  21038303.256     4514834.781 8 -13663120.277 9
  22891734.062   -40545896.762 6 -10441732.824 3
 94  3 22 21  7 59.9990000  0  8 31 26 27 18  2 16 19  7
  23224998.018   -26227925.548 6  -9647605.971 4
  24409773.945    -3012611.499 5  -3695239.763 2
  20067333.764   -29586044.267 8 -22092534.030 9
  23785538.924    18120852.510 6   -319054.631 3
  21183844.999   -22008385.997 8 -16539333.997 8
  24242669.839    -7840339.895 5  -6637203.668 2
  21045369.394     4551972.845 8 -13634181.542 9
  22871924.166   -40650017.310 6 -10522865.559 3
 94  3 22 21  8 29.9990000  0  8 31 26 27 18  2 16 19  7
  23240859.258   -26144574.705 6  -9582657.303 4
  24391871.089    -3106705.232 5  -3768559.477 2
  20065294.066   -29596764.993 8 -22100887.833 9
  23806162.697    18229215.656 6   -234616.033 3
  21177009.821   -22044313.316 8 -16567329.267 8
  24251097.964    -7796030.282 5  -6602676.775 2
  21052493.212     4589400.552 8 -13605017.095 9
  22852139.513   -40753956.455 6 -10603856.911 3
 94  3 22 21  8 59.9990000  0  8 31 26 27 18  2 16 19  7
  23256795.925   -26060836.609 6  -9517406.957 4
  24374006.846    -3200558.539 5  -3841691.870 2
  20063319.363   -29607134.523 8 -22108967.983 9
  23826799.030    18337692.437 6   -150088.943 3
  21170222.130   -22079989.703 8 -16595129.016 7
  24259590.245    -7751384.670 4  -6567888.128 2
  21059669.314     4627122.437 8 -13575623.448 9
  22832403.246   -40857699.916 6 -10684695.823 3
 94  3 22 21  9 29.9990000  0  8 31 26 27 18  2 16 19  7
  23272804.033   -25976729.822 6  -9451869.267 4
  24356196.326    -3294161.902 5  -3914629.500 2
  20061417.270   -29617140.569 8 -22116764.913 9
  23847465.073    18446266.528 6    -65485.999 3
  21163475.871   -22115429.093 8 -16622744.093 7
  24268154.117    -7706398.350 5  -6532833.910 2
  21066905.435     4665134.372 8 -13546003.782 9
  22812691.532   -40961250.244 6 -10765384.232 3
 94  3 22 21  9 59.9990000  0  8 31 26 27 18  2 16 19  7
  23288868.712   -25892289.881 6  -9386072.003 4
  24338435.122    -3387519.946 5  -3987375.995 2
  20059581.820   -29626782.013 8 -22124277.739 9
  23868137.862    18554918.714 6     19177.820 3
  21156779.436   -22150631.725 8 -16650174.685 7
  24276773.210    -7661081.126 4  -6497521.924 2
  21074192.280     4703433.963 8 -13516159.961 9
  22793028.595   -41064599.446 6 -10845915.942 4
 94  3 22 21 10 29.9990000  0  8 31 26 27 18  2 16 19  7
  23304995.897   -25807528.916 6  -9320024.592 4
  24320711.002    -3480640.229 5  -4059937.156 2
  20057813.944   -29636050.433 8 -22131499.872 9
  23888826.060    18663623.383 5    103882.505 3
  21150127.881   -22185593.596 8 -16677417.655 7
  24285465.002    -7615434.958 4  -6461953.612 2
  21081537.166     4742034.049 8 -13486081.986 9
  22773404.630   -41167730.410 6 -10926277.605 4
 94  3 22 21 10 59.9990000  0  8 31 26 27 18  2 16 19  7
  23321189.996   -25722450.622 5  -9253729.890 4
  24303038.776    -3573511.268 5  -4132304.125 2
  20056126.862   -29644940.513 8 -22138427.214 9
  23909524.720    18772375.477 6    188624.095 4
  21143521.625   -22220303.736 8 -16704464.461 6
  24294210.038    -7569459.648 4  -6426128.840 2
  21088939.131     4780931.825 8 -13455772.048 8
  22753815.891   -41270641.364 6 -11006467.812 4
 94  3 22 21 11 29.9990000  0  8 31 26 27 18  2 16 19  7
  23337438.987   -25637062.699 5  -9187193.954 4
  24285422.762    -3666130.303 5  -4204474.696 2
  20054504.176   -29653462.492 8 -22145067.713 9
  23930229.107    18881184.943 6    273410.483 4
  21136963.904   -22254758.600 8 -16731312.368 6
  24303024.146    -7523171.958 4  -6390060.601 2
  21096397.608     4820123.463 8 -13425233.145 8
  22734281.714   -41373336.627 6 -11086489.931 4
 94  3 22 21 11 59.9990000  0  8 31 26 27 18  2 16 19  7
  23353752.584   -25551352.484 5  -9120406.867 4
  24267839.844    -3758490.230 5  -4276443.372 2
  20052950.291   -29661630.042 8 -22151432.038 9
  23950942.907    18990064.427 5    358251.369 4
  21130454.181   -22288954.694 8 -16757958.632 6
  24311886.101    -7476573.796 4  -6353750.466 2
  21103911.996     4859612.876 8 -13394462.194 8
  22714776.467   -41475807.781 6 -11166337.446 4
 94  3 22 21 12 29.9990000  0  8 31 26 27 18  2 16 19  7
  23370114.237   -25465314.830 5  -9053364.637 4
  24250317.604    -3850594.072 5  -4348212.561 2
  20051461.342   -29669455.358 8 -22157529.689 9
  23971675.205    19099010.674 5    443144.281 3
  21123996.951   -22322896.782 8 -16784406.966 6
  24320804.028    -7429678.181 5  -6317208.600 2
  21111483.494     4899388.732 8 -13363468.054 8
  22695317.449   -41578069.579 6 -11246021.821 4
 94  3 22 21 12 59.9990000  0  8 31 26 27 18  2 16 19  7
  23386555.544   -25378938.589 6  -8986058.532 5
  24232832.509    -3942435.447 5  -4419777.194 2
  20050037.118   -29676945.878 8 -22163366.455 9
  23992428.487    19208045.468 5    528106.227 3
  21117586.699   -22356585.543 8 -16810657.905 7
  24329789.707    -7382479.905 4  -6280430.804 2
  21119103.469     4939446.082 8 -13332254.577 7
  22675901.870   -41680124.149 6 -11325544.731 4
 94  3 22 21 13 29.9990000  0  8 31 26 27 18  2 16 19  7
  23403059.749   -25292226.010 6  -8918490.373 5
  24215406.593    -4034019.186 5  -4491141.124 2
  20048672.493   -29684117.207 8 -22168954.508 9
  24013186.867    19317158.598 6    613129.179 3
  21111221.176   -22390033.525 9 -16836721.252 7
  24338833.276    -7334968.440 4  -6243409.042 2
  21126782.143     4979793.861 8 -13300814.761 7
  22656520.467   -41781966.141 6 -11404901.987 4
 94  3 22 21 13 59.9990000  0  8 31 26 27 18  2 16 19  7
  23419622.832   -25205176.153 6  -8850659.406 5
  24198022.977    -4125362.990 5  -4562317.980 2
  20047367.886   -29690968.944 8 -22174293.532 9
  24033962.874    19426327.700 5    698195.765 3
  21104901.221   -22423247.186 9 -16862601.997 8
  24347930.419    -7287142.840 5  -6206142.495 2
  21134514.390     5020435.332 8 -13269146.120 7
  22637177.018   -41883602.083 6 -11484098.668 4
 94  3 22 21 14 29.9990000  0  8 31 26 27 18  2 16 19  7
  23436252.800   -25117803.617 6  -8782576.980 5
  24180685.500    -4216482.058 5  -4633319.812 2
  20046126.116   -29697475.025 8 -22179363.209 9
  24054744.277    19535544.005 5    783299.120 3
  21098623.867   -22456226.078 9 -16888299.807 8
  24357092.376    -7239012.247 5  -6168638.249 2
  21142305.397     5061380.971 8 -13237240.461 7
  22617869.125   -41985028.478 6 -11563132.084 5
 94  3 22 21 14 59.9990000  0  8 31 26 27 18  2 16 19  7
  23452941.287   -25030101.142 6  -8714237.505 4
  24163392.032    -4307368.154 5  -4704140.048 2
  20044958.334   -29703618.433 9 -22184150.273 9
  24075544.058    19644812.409 6    868443.081 3
  21092396.368   -22488970.484 9 -16913814.912 8
  24366316.390    -7190570.411 5  -6130891.526 2
  21150157.890     5102633.993 8 -13205095.261 6
  22598615.014   -42086230.707 6 -11641990.793 5
 94  3 22 21 15 29.9990000  0  8 31 26 27 18  2 16 19  7
  23469691.920   -24942074.080 6  -8645645.074 4
  24146141.584    -4398009.884 5  -4774769.933 2
  20043861.783   -29709386.295 9 -22188644.715 9
  24096342.129    19754126.431 5    953622.546 3
  21086207.362   -22521473.775 9 -16939142.148 9
  24375590.410    -7141825.398 5  -6092908.518 2
  21158066.985     5144198.146 8 -13172707.658 6
  22579403.264   -42187200.329 6 -11720668.280 5
 94  3 22 21 15 59.9990000  0  8 31 26 27 18  2 16 19  7
  23486500.834   -24853725.965 6  -8576802.483 4
  24128936.135    -4488410.505 5  -4845211.888 2
  20042839.911   -29714760.413 9 -22192832.344 9
  24117153.812    19863496.369 5   1038845.649 3
  21080071.960   -22553734.205 9 -16964280.122 9
  24384917.583    -7092801.595 5  -6054708.415 1
  21166033.310     5186068.344 7 -13140081.571 6
  22560231.327   -42287928.926 6 -11799157.917 5
 94  3 22 21 16 29.9990000  0  8 31 26 27 18  2 16 19  7
  23503380.978   -24765054.751 6  -8507708.107 4
  24111784.919    -4578550.446 5  -4915450.772 2
  20041892.057   -29719741.747 9 -22196713.924 9
  24137981.413    19972941.650 5   1124127.422 3
  21073977.989   -22585753.636 9 -16989230.329 9
  24394301.297    -7043497.149 4  -6016289.415 1
  21174060.043     5228239.736 7 -13107220.762 6
  22541120.247   -42388401.698 6 -11877448.229 5
 94  3 22 21 16 59.9990000  0  8 31 26 27 18  2 16 19  7
  23520314.035   -24676064.414 6  -8438365.044 4
  24094687.605    -4668409.428 6  -4985470.714 2
  20041013.605   -29724350.431 9 -22200305.093 9
  24158822.805    20082465.113 5   1209470.094 3
  21067931.055   -22617529.825 9 -17013990.991 9
  24403739.483    -6993907.507 5  -5977648.366 1
  21182137.351     5270693.808 7 -13074139.708 6
  22522041.125   -42488624.302 6 -11955543.570 5
 94  3 22 21 17 29.9990000  0  8 31 26 27 18  2 16 19  7
  23537303.634   -24586772.832 6  -8368787.267 4
  24077639.157    -4757986.141 6  -5055270.718 2
  20040205.275   -29728594.001 9 -22203611.766 9
  24179676.728    20192050.740 5   1294861.208 3
  21061931.248   -22649063.992 9 -17038563.067 9
  24413225.276    -6944050.950 4  -5938799.208 1
  21190267.693     5313428.130 7 -13040840.258 5
  22503019.204   -42588606.547 6 -12033451.630 5
 94  3 22 21 17 59.9990000  0  8 31 26 27 18  2 16 19  7
  23554351.991   -24497183.437 6  -8298977.440 3
  24060649.709    -4847282.945 6  -5124852.561 2
  20039469.344   -29732472.462 9 -22206633.948 9
  24200541.983    20301683.786 5   1380289.258 3
  21055975.062   -22680360.552 8 -17062949.990 9
  24422756.637    -6893935.217 4  -5899748.093 1
  21198451.068     5356436.746 7 -13007327.079 5
  22484039.044   -42688345.289 6 -12111169.945 5
 94  3 22 21 18 29.9990000  0  8 31 26 27 18  2 16 19  7
  23571457.789   -24407294.293 6  -8228934.023 3
  24043709.996    -4936280.679 6  -5194201.397 2
  20038802.396   -29735974.444 9 -22209362.762 9
  24221417.132    20411357.049 5   1465748.669 3
  21050064.893   -22711404.923 8 -17087140.399 9
  24432352.874    -6843551.310 4  -5860488.137 1
  21206692.782     5399720.207 7 -12973599.748 5
  22465107.150   -42787831.141 7 -12188691.206 5
 94  3 22 21 18 59.9990000  0  8 31 26 27 18  2 16 19  7
  23588613.922   -24317112.123 6  -8158662.305 3
  24026831.950    -5024984.286 6  -5263321.043 2
  20038208.687   -29739094.991 9 -22211794.354 9
  24242283.766    20521043.555 5   1551218.369 3
  21044206.949   -22742193.139 8 -17111131.214 9
  24441992.371    -6792915.468 4  -5821031.776 1
  21214977.637     5443275.005 7 -12939660.966 5
  22446225.262   -42887054.766 7 -12266008.120 5
 94  3 22 21 19 29.9990000  0  8 31 26 27 18  2 16 19  7
  23605832.292   -24226621.959 6  -8088150.558 3
  24010005.829    -5113400.297 6  -5332216.588 2
  20037691.425   -29741818.891 9 -22213916.876 9
  24263155.347    20630726.593 5   1636685.370 3
  21038394.543   -22772726.688 8 -17134923.591 9
  24451665.594    -6742023.848 4  -5781376.241 1
  21223320.051     5487118.565 7 -12905497.185 6
  22427396.257   -42985995.170 7 -12343104.349 5
 94  3 22 21 19 59.9990000  0  9 31 15 26 27 18  2 16 19  7
  23623112.390   -24135821.821 5  -8017397.290 3
  24588337.138    -1887073.81415  -3037034.071 1
  23993238.647    -5201536.508 6  -5400894.112 2
  20037249.261   -29744143.411 9 -22215728.192 9
  24284031.125    20740409.075 5   1722151.924 3
  21032635.949   -22803006.639 8 -17158518.336 9
  24461396.588    -6690859.667 4  -5741508.060 1
  21231724.613     5531271.429 7 -12871092.371 6
  22408625.321   -43084636.976 7 -12419967.906 5
 94  3 22 21 20 29.9990000  0  9 31 15 26 27 18  2 16 19  7
  23640447.049   -24044722.615 5  -7946410.985 3
  24575169.504    -1956319.265 5  -3090991.272 1
  23976519.131    -5289404.109 6  -5469362.294 2
  20036876.859   -29746083.416 9 -22217239.867 9
  24304902.676    20850092.286 5   1807619.072 3
  21026920.046   -22833044.282 8 -17181924.282 9
  24471192.786    -6639421.474 4  -5701426.602 1
  21240182.388     5575732.223 7 -12836447.607 6
  22389905.351   -43183005.420 7 -12496618.455 5
 94  3 22 21 20 59.9990000  0  9 31 15 26 27 18  2 16 19  7
  23657836.331   -23953335.754 5  -7875200.567 3
  24562022.196    -2025363.222 5  -3144791.104
  23959841.857    -5377020.899 6  -5537635.102 2
  20036577.696   -29747661.343 9 -22218469.420 9
  24325771.499    20959768.304 5   1893080.582 3
  21021247.763   -22862858.451 8 -17205156.067 9
  24481035.512    -6587705.048 4  -5661128.262 1
  21248703.748     5620501.353 7 -12801562.592 6
  22371238.714   -43281124.555 7 -12573074.746 5
 94  3 22 21 21 29.9990000  0  9 31 15 26 27 18  2 16 19  7
  23675280.085   -23861679.486 5  -7803780.194 3
  24548925.912    -2094206.390 5  -3198434.785 1
  23943209.611    -5464396.615 5  -5605720.017 2
  20036349.824   -29748881.553 9 -22219420.222 9
  24346640.831    21069460.405 5   1978554.660 2
  21015609.656   -22892457.749 8 -17228220.448 9
  24490941.314    -6535707.548 3  -5620610.912 1
  21257282.160     5665576.069 7 -12766439.440 6
  22352605.743   -43379015.292 7 -12649353.050 5
 94  3 22 21 21 59.9990000  0  9 31 15 26 27 18  2 16 19  7
  23692769.707   -23769779.161 5  -7732169.630 3
  24535861.826    -2162850.626 5  -3251923.626 1
  23926630.968    -5551525.315 5  -5673612.392 2
  20036178.912   -29749755.828 9 -22220101.461 9
  24367528.451    21179189.542 6   2064057.546 2
  21010021.435   -22921842.115 8 -17251117.331 9
  24500863.335    -6483440.248 4  -5579883.339 1
  21265916.782     5710939.390 7 -12731091.427 6
  22334016.572   -43476698.967 7 -12725470.026 5
 94  3 22 21 22 29.9990000  0  9 31 15 26 27 18  2 16 19  7
  23710308.825   -23677622.033 6  -7660359.019 3
  24522837.103    -2231282.080 5  -3305246.619 1
  23910107.337    -5638383.763 5  -5741294.228 2
  20036083.998   -29750266.835 9 -22220499.650 9
  24388419.039    21288980.304 6   2149608.484 2
  21004471.857   -22951010.764 8 -17273846.117 9
  24510869.868    -6430898.523 3  -5538941.834 1
  21274601.710     5756583.043 7 -12695524.966 6
  22315467.423   -43574171.160 6 -12801422.187 5
 94  3 22 21 22 59.9990000  0  9 31 15 26 27 18  2 16 19  7
  23727892.942   -23585211.721 6  -7588351.108 3
  24509856.360    -2299496.530 5  -3358400.638 1
  23893628.135    -5724959.867 5  -5808756.087 2
  20036058.695   -29750400.694 9 -22220603.956 9
  24409326.535    21398828.085 6   2235203.845 2
  20998959.963   -22979959.913 8 -17296403.869 9
  24520926.136    -6378095.556 4  -5497796.916 1
  21283340.510     5802509.296 7 -12659738.312 6
  22296964.473   -43671417.193 7 -12877198.177 5
 94  3 22 21 23 29.9990000  0  9 31 15 26 27 18  2 16 19  7
  23745526.344   -23492543.578 6  -7516142.241 3
  24496918.366    -2367490.291 5  -3411382.704 1
  23877214.169    -5811231.217 5  -5875980.392 2
  20036106.542   -29750150.635 9 -22220409.100 9
  24430238.498    21508737.723 6   2320847.335 2
  20993494.896   -23008684.999 8 -17318787.032 9
  24531017.120    -6325047.955 3  -5456461.339 1
  21292135.251     5848729.262 7 -12623722.777 6
  22278508.949   -43768422.126 7 -12952786.300 5
 94  3 22 21 23 59.9990000  0  9 31 15 26 27 18  2 16 19  7
  23763210.772   -23399610.547 5  -7443727.025 4
  24484021.175    -2435259.839 5  -3464189.722 1
  23860856.803    -5897187.913 5  -5942959.583 2
  20036227.298   -29749516.359 9 -22219914.867 9
  24451158.615    21618679.269 6   2406515.752 2
  20988075.578   -23037185.710 8 -17340995.340 9
  24541159.939    -6271766.665 3  -5414943.565 1
  21300988.542     5895258.435 7 -12587466.334 6
  22260093.928   -43865170.224 7 -13028174.293 5
 94  3 22 21 24 29.9990000  0  9 31 15 26 27 18  2 16 19  7
  23780945.054   -23306391.803 5  -7371089.127 4
  24471172.850    -2502794.248 5  -3516813.956 1
  23844563.172    -5982818.043 5  -6009684.272 2
  20036424.232   -29748477.598 9 -22219105.433 9
  24472087.456    21728640.857 6   2492199.828 2
  20982694.723   -23065448.283 9 -17363018.101 9
  24551348.145    -6218246.587 3  -5373239.858 1
  21309903.771     5942110.739 7 -12550958.063 6
  22241740.094   -43961627.310 6 -13103335.496 5
 94  3 22 21 24 59.9990000  0  9 31 15 26 27 18  2 16 19  7
  23798742.383   -23212878.271 5  -7298221.531 4
  24458368.594    -2570085.496 5  -3569248.477 1
  23828338.135    -6068108.070 5  -6076143.963 3
  20036698.932   -29747035.052 9 -22217981.381 9
  24493015.308    21838612.567 6   2577891.778 2
  20977366.661   -23093442.722 9 -17384831.920 9
  24561568.190    -6164483.037 3  -5331346.344 1
  21318885.643     5989289.448 8 -12514195.466 7
  22223445.769   -44057771.097 6 -13178252.617 5
 94  3 22 21 25 29.9990000  0  9 31 15 26 27 18  2 16 19  7
  23816598.502   -23119072.130 5  -7225125.956 4
  24445605.919    -2637128.172 5  -3621489.307 1
  23812168.859    -6153057.825 5  -6142338.521 3
  20037048.970   -29745193.270 9 -22216546.219 9
  24513945.589    21948601.576 6   2663597.168 2
  20972092.682   -23121157.948 8 -17406428.168 9
  24571852.870    -6110466.618 3  -5289255.732 1
  21327921.447     6036793.919 7 -12477179.033 7
  22205207.355   -44153583.691 6 -13252911.673 5
 94  3 22 21 25 59.9990000  0  9 31 15 26 27 18  2 16 19  7
  23834497.791   -23024986.155 5  -7151812.309 4
  24432900.955    -2703927.370 5  -3673540.401 1
  23796062.928    -6237675.942 5  -6208274.663 3
  20037474.195   -29742950.235 9 -22214798.421 9
  24534876.588    22058588.619 6   2749300.961 2
  20966872.936   -23148595.681 8 -17427808.189 8
  24582179.132    -6056196.510 3  -5246967.621 1
  21337019.279     6084600.272 8 -12439927.372 7
  22187037.324   -44249065.725 6 -13327313.137 5
 94  3 22 21 26 29.9990000  0  9 31 15 26 27 18  2 16 19  7
  23852455.269   -22930601.091 6  -7078265.637 4
  24420230.077    -2770464.471 5  -3725387.383 1
  23780033.595    -6321938.116 6  -6273933.433 3
  20037982.314   -29740290.459 9 -22212725.866 9
  24555803.031    22168599.127 5   2835023.100 2
  20961706.193   -23175747.918 9 -17448965.775 8
  24592552.280    -6001655.901 4  -5204468.594 1
  21346173.622     6132706.901 7 -12402441.696 7
  22168935.615   -44344209.419 6 -13401450.949 5
 94  3 22 21 26 59.9990000  0  9 31 15 26 27 18  2 16 19  7
  23870475.913   -22835924.043 6  -7004491.464 3
  24407627.731    -2836726.991 5  -3777020.306 1
  23764066.709    -6405853.030 6  -6339321.612 3
  20038565.200   -29737215.781 9 -22210330.023 9
  24576751.089    22278645.997 5   2920773.573 2
  20956594.821   -23202612.597 9 -17469899.266 8
  24602997.289    -5946842.863 4  -5161757.355 1
  21355390.381     6181137.640 7 -12364703.487 7
  22150892.126   -44439023.929 6 -13475332.286 5
 94  3 22 21 27 29.9990000  0  8 31 15 26 27 18  2 19  7
  23888546.144   -22740975.285 6  -6930505.533 3
  24395064.868    -2902720.763 5  -3828443.764 1
  23748155.494    -6489446.901 6  -6404459.633 3
  20039227.142   -29733729.775 9 -22207613.667 9
  24597695.550    22388716.078 5   3006542.120 1
  20951529.078   -23229219.968 9 -17490632.251 7
  21364665.720     6229890.312 7 -12326714.439 7
  22132908.416   -44533529.381 6 -13548972.820 5
 94  3 22 21 27 59.9990000  0  8 31 15 26 27 18  2 19  7
  23906664.820   -22645757.742 5  -6856310.207 3
  24382562.563    -2968444.575 4  -3879656.930 1
  23732308.165    -6572722.233 6  -6469349.450 3
  20039969.878   -29729834.606 9 -22204578.470 9
  24618644.387    22498791.957 5   3092315.090 1
  20946510.882   -23255591.495 9 -17511181.461 7
  21374006.533     6278965.020 7 -12288474.438 7
  22114979.628   -44627748.510 7 -13622390.237 5
 94  3 22 21 28 29.9990000  0  8 31 15 26 27 18  2 19  7
  23924835.691   -22550279.703 5  -6781911.828 3
  24370103.339    -3033902.744 4  -3930662.978 1
  23716518.756    -6655693.809 6  -6534002.578 3
  20040788.611   -29725545.293 9 -22201236.168 9
  24639588.728    22608875.777 5   3178094.812 1
  20941535.377   -23281740.972 9 -17531557.661 7
  21383406.945     6328365.913 7 -12249980.264 7
  22097102.434   -44721698.259 7 -13695597.727 5
 94  3 22 21 28 59.9990000  0  8 31 15 26 27 18  2 19  7
  23943050.931   -22454558.953 5  -6707324.318 4
  24357696.398    -3099096.645 4  -3981463.190 1
  23700789.725    -6738364.673 6  -6598421.361 3
  20041680.403   -29720857.931 8 -22197583.681 9
  24660542.002    22718961.031 5   3263875.673 1
  20936599.654   -23307664.920 9 -17551758.109 7
  21392867.496     6378092.750 8 -12211232.129 6
  22079276.745   -44815376.760 6 -13768593.866 6
 94  3 22 21 29 29.9990000  0  8 31 15 26 27 18  2 19  7
  23961314.107   -22358586.738 6  -6632540.860 4
  24345343.449    -3164016.681 4  -4032050.153 1
  23685117.924    -6820690.303 6  -6662571.163 3
  20042647.354   -29715763.453 8 -22193613.966 9
  24681492.069    22829045.719 5   3349655.575 1
  20931708.000   -23333362.551 9 -17571782.220 7
  21402390.373     6428136.397 7 -12172237.127 6
  22061503.519   -44908767.142 6 -13841365.501 6
 94  3 22 21 29 59.9990000  0  8 31 15 26 27 18  2 19  7
  23979619.435   -22262358.398 6  -6557557.818 4
  24333048.511    -3228657.603 4  -4082419.433 1
  23669525.538    -6902636.493 6  -6726425.265 3
  20043697.197   -29710260.451 8 -22189325.926 9
  24702434.430    22939140.113 5   3435443.028 1
  20926866.712   -23358822.506 9 -17591621.122 7
  21411978.786     6478504.782 7 -12132989.082 6
  22043790.791   -45001859.862 7 -13913905.172 6
 94  3 22 21 30 29.9990000  0  7 31 15 26 27  2 19  7
  23997987.869   -22165871.326 6  -6482373.193 4
  24320796.053    -3293015.364 4  -4132568.140 1
  23654008.581    -6984199.837 6  -6789981.070 3
  20044821.269   -29704345.377 8 -22184716.760 9
  20922068.863   -23384036.639 9 -17611268.480 7
  21421624.668     6529197.237 7 -12093488.487 6
  22026134.544   -45094627.748 7 -13986191.753 6
 94  3 22 21 30 59.9990000  0  7 31 15 26 27  2 19  7
  24016391.558   -22069138.480 6  -6406997.070 3
  24308595.909    -3357093.570 4  -4182499.008 1
  23638559.316    -7065380.327 6  -6853238.535 3
  20046022.837   -29698020.513 8 -22179788.295 9
  20917316.493   -23409015.251 9 -17630732.316 7
  21431329.729     6580202.050 7 -12053744.516 6
  22008546.171   -45187057.141 7 -14058214.525 6
 94  3 22 21 31 29.9990000  0  7 31 15 26 27  2 19  7
  24034845.283   -21972169.430 6  -6331436.865 3
  24296458.182    -3420896.509 4  -4232215.463 1
  23623178.464    -7146191.932 6  -6916208.543 3
  20047305.799   -29691291.041 8 -22174544.556 9
  20912604.295   -23433771.225 9 -17650022.668 8
  21441093.130     6631512.444 7 -12013762.430 6
  21991020.903   -45279147.982 7 -14129973.498 6
 94  3 22 21 31 59.9990000  0  7 31 15 26 27  2 19  7
  24053345.925   -21874953.130 6  -6255684.031 3
  24284368.392    -3484421.510 4  -4281715.312 1
  23607864.735    -7226663.198 6  -6978913.372 3
  20048663.889   -29684145.690 7 -22168976.744 9
  20907937.096   -23458305.604 9 -17669140.358 8
  21450913.282     6683124.175 7 -11973545.515 6
  21973565.367   -45370899.059 7 -14201467.715 6
 94  3 22 21 32 29.9990000  0  7 31 15 26 27  2 19  7
  24071889.947   -21777508.085 6  -6179752.915 3
  24272333.253    -3547669.001 4  -4330998.997 1
  23592613.963    -7306824.111 6  -7041376.389 3
  20050101.993   -29676595.187 7 -22163093.231 9
  20903309.980   -23482620.484 9 -17688086.984 9
  21460787.666     6735016.485 7 -11933110.005 6
  21956164.903   -45462309.315 7 -14272696.339 6
 94  3 22 21 32 59.9990000  0  7 31 15 26 27  2 19  7
  24090469.825   -21679847.499 6  -6103653.877 3
  24260351.178    -3610636.981 4  -4380064.796 2
  23577415.835    -7386671.227 6  -7103594.878 3
  20051616.005   -29668641.176 7 -22156895.303 9
  20898726.393   -23506707.120 9 -17706855.797 9
  21470718.801     6787184.252 7 -11892459.830 6
  21938835.490   -45553396.486 7 -14343673.213 6
 94  3 22 21 33 29.9990000  0  7 31 15 26 27  2 19  7
  24109099.498   -21581959.341 6  -6027377.497 3
  24248420.698    -3673319.325 4  -4428908.087 2
  23562282.401    -7466208.729 6  -7165572.090 3
  20053205.595   -29660285.629 8 -22150384.494 9
  20894187.295   -23530550.846 8 -17725435.313 9
  21480696.163     6839627.780 7 -11851594.785 6
  21921559.350   -45644173.447 7 -14414408.335 6
 94  3 22 21 33 59.9990000  0  7 31 15 26 27  2 19  7
  24127768.743   -21483852.066 6  -5950930.367 3
  24236552.844    -3735716.712 4  -4477529.315 2
  23547205.269    -7545442.283 6  -7227312.467 3
  20054868.304   -29651552.589 8 -22143579.530 9
  20889697.274   -23554146.473 8 -17743821.508 9
  21490728.868     6892351.496 7 -11810511.398 6
  21904345.867   -45734641.005 7 -14484902.392 6
 94  3 22 21 34 29.9990000  0  7 31 15 26 27  2 19  7
  24146481.699   -21385538.854 6  -5874322.793 3
  24224733.016    -3797822.464 4  -4525923.284 2
  23532188.455    -7624345.500 6  -7288795.417 2
  20056602.573   -29642440.905 8 -22136479.514 9
  20885256.088   -23577481.942 8 -17762004.981 9
  21500820.572     6945380.278 7 -11769190.303 5
  21887188.745   -45824788.781 7 -14555147.268 6
 94  3 22 21 34 59.9990000  0  7 31 15 26 27  2 19  7
  24165231.978   -21287000.385 6  -5797539.666 3
  24212969.820    -3859624.547 4  -4574080.621 2
  23517244.221    -7702883.693 6  -7349993.969 2
  20058414.159   -29632914.375 8 -22129056.258 9
  20880865.628   -23600551.920 8 -17779981.587 9
  21510977.270     6998745.338 7 -11727607.202 5
  21870095.688   -45914615.781 7 -14625142.147 6
 94  3 22 21 35 29.9990000  0  7 31 15 26 27  2 19  7
  24184019.402   -21188254.533 6  -5720594.980 3
  24201262.565    -3921139.412 4  -4622014.136 2
  23502364.502    -7781064.397 6  -7410913.936 2
  20060304.110   -29622981.994 8 -22121316.737 9
  20876521.515   -23623389.738 8 -17797777.276 9
  21521192.159     7052432.503 7 -11685773.081 5
  21853061.780   -46004130.654 7 -14694893.860 6
 94  3 22 21 35 59.9990000  0  7 31 15 26 27  2 19  7
  24202850.505   -21089300.924 5  -5643488.370 4
  24189611.490    -3982346.236 4  -4669707.596 2
  23487567.076    -7858850.102 6  -7471526.113 2
  20062278.034   -29612608.381 8 -22113233.426 9
  20872219.553   -23645988.293 8 -17815386.536 9
  21531475.700     7106464.384 7 -11643670.376 5
  21836092.688   -46093306.509 7 -14764381.417 6
 94  3 22 21 36 29.9990000  0  7 31 15 26 27  2 19  7
  24221723.879   -20990138.516 5  -5566219.012 4
  24178026.820    -4043242.245 4  -4717158.960 2
  23472842.080    -7936222.374 6  -7531816.159 2
  20064341.236   -29601771.462 9 -22104789.083 9
  20867964.689   -23668351.275 8 -17832812.242 9
  21541818.809     7160823.712 7 -11601312.522 5
  21819187.091   -46182157.168 7 -14833615.559 6
 94  3 22 21 36 59.9990000  0  7 31 15 26 27  2 19  7
  24240630.021   -20890760.821 5  -5488782.008 3
  24166501.659    -4103826.572 4  -4764367.399 2
  23458195.479    -8013197.225 6  -7591796.495 2
  20066489.848   -29590482.545 9 -22095992.522 9
  20863753.444   -23690489.650 7 -17850062.924 9
  21552220.318     7215481.479 7 -11558722.084 5
  21802335.457   -46270684.017 7 -14902597.387 6
 94  3 22 21 37 29.9990000  0  7 31 15 26 27  2 19  7
  24259587.757   -20791162.911 5  -5411173.290 3
  24155030.071    -4164093.337 4  -4811328.360 2
  23443617.471    -8089788.685 6  -7651478.088 3
  20068720.034   -29578768.290 9 -22086864.545 9
  20859580.153   -23712402.045 7 -17867137.514 9
  21562673.182     7270420.621 7 -11515912.399 5
  21785559.821   -46358864.058 7 -14971308.997 6
 94  3 22 21 37 59.9990000  0  7 31 15 26 27  2 19  7
  24278585.275   -20691337.201 5  -5333387.158 3
  24143621.379    -4224036.378 4  -4858037.086 2
  23429114.711    -8166010.185 6  -7710871.431 3
  20071025.888   -29566636.009 9 -22077410.827 9
  20855458.157   -23734076.293 7 -17884026.548 9
  21573183.336     7325643.846 7 -11472881.360 6
  21768846.361   -46446689.323 7 -15039744.142 6
 94  3 22 21 38 29.9990000  0  7 31 15 26 27  2 19  7
  24297620.957   -20591281.787 5  -5255421.948 3
  24132274.024    -4283659.857 4  -4904496.858 2
  23414676.437    -8241886.019 6  -7769995.407 3
  20073411.846   -29554106.959 9 -22067647.939 9
  20851377.981   -23755525.758 7 -17900740.414 9
  21583741.996     7381142.879 7 -11429635.381 6
  21752201.794   -46534156.880 7 -15107900.586 6
 94  3 22 21 38 59.9990000  0  7 31 15 26 27  2 19  7
  24316702.087   -20491011.076 5  -5177288.988 3
  24120984.800    -4342966.088 3  -4950709.379 2
  23400299.979    -8317422.565 6  -7828855.005 3
  20075870.084   -29541192.399 9 -22057584.662 9
  20847333.062   -23776759.714 7 -17917286.346 9
  21594360.735     7436932.435 7 -11386163.040 6
  21735624.860   -46621256.538 7 -15175770.353 6
 94  3 22 21 39 29.9990000  0  7 31 15 26 27  2 19  7
  24335822.101   -20390551.983 5  -5099009.245 3
  24109775.859    -4401949.736 4  -4996670.523 2
  23385992.534    -8392606.261 6  -7887439.665 3
  20078400.812   -29527876.215 9 -22047208.419 9
  20843337.158   -23797771.157 8 -17933658.913 9
  21605039.432     7493038.842 7 -11342443.815 6
  21719119.486   -46707989.019 7 -15243354.008 6
 94  3 22 21 39 59.9990000  0  7 31 15 26 27  2 19  7
  24354968.706   -20289929.920 5  -5020602.485 3
  24098603.974    -4460611.495 4  -5042380.844 2
  23371759.168    -8467424.505 6  -7945739.523 3
  20081014.283   -29514139.756 9 -22036504.700 9
  20839380.467   -23818559.580 8 -17949857.671 9
  21615778.358     7549475.305 7 -11298467.391 6
  21702682.106   -46794371.225 7 -15310664.724 6
 94  3 22 21 40 29.9990000  0  7 31 15 26 27  2 19  7
  24374139.624   -20189166.648 5  -4942085.691 3
  24087510.543    -4518955.355 4  -5087843.510 2
  23357589.837    -8541859.692 6  -8003740.936 3
  20083709.417   -29499979.979 9 -22025471.120 9
  20835467.306   -23839131.260 8 -17965887.547 9
  21626576.732     7606234.055 7 -11254239.829 6
  21686311.999   -46880413.748 7 -15377710.773 6
 94  3 22 21 40 59.9990000  0  7 31 15 26 27  2 19  7
  24393342.800   -20088267.665 5  -4863463.154 2
  24076461.093    -4576974.149 4  -5133052.844 2
  23343504.898    -8615892.766 6  -8061429.012 3
  20086488.493   -29485393.478 9 -22014105.026 9
  20831596.866   -23859470.391 8 -17981736.222 9
  21637440.162     7663316.626 7 -11209759.969 6
  21669997.263   -46966121.386 7 -15444495.876 6
 94  3 22 21 41 29.9990000  0  7 31 15 26 27  2 19  7
  24412574.516   -19987215.886 4  -4784721.549 2
  24065489.498    -4634663.831 4  -5178005.767 2
  23329491.669    -8689526.330 6  -8118805.725 3
  20089345.096   -29470379.280 9 -22002405.672 9
  20827768.636   -23879583.033 9 -17997408.404 9
  21648363.100     7720708.615 7 -11165038.978 6
  21653753.338   -47051492.094 7 -15511018.409 6
 94  3 22 21 41 59.9990000  0  7 31 15 26 27  2 19  7
  24431836.272   -19885968.790 5  -4705827.740 2
  24054576.243    -4692014.009 4  -5222694.098 2
  23315559.324    -8762750.464 6  -8175863.445 3
  20092281.953   -29454939.871 9 -21990374.970 9
  20823984.026   -23899469.350 9 -18012904.215 9
  21659341.050     7778403.340 7 -11120082.081 6
  21637575.758   -47136506.486 8 -15577263.296 6
 94  3 22 21 42 29.9990000  0  7 31 15 26 27  2 19  7
  24451143.655   -19784523.451 5  -4626779.523 2
  24043722.707    -4749026.641 4  -5267119.421 2
  23301697.940    -8835572.476 6  -8232607.794 3
  20095301.762   -29439094.740 8 -21978028.149 9
  20820237.789   -23919149.837 9 -18028239.662 9
  21670371.344     7836379.640 7 -11074905.798 6
  21621468.089   -47221162.496 8 -15643228.951 7
 94  3 22 21 42 59.9990000  0  7 31 15 26 27  2 19  7
  24470485.365   -19682879.786 5  -4547576.727 2
  24032943.399    -4805703.416 5  -5311283.057 2
  23287918.370    -8908015.021 6  -8289056.485 3
  20098389.684   -29422851.087 8 -21965370.760 9
  20816529.596   -23938644.631 9 -18043430.391 9
  21681457.579     7894624.817 7 -11029519.982 6
  21605424.876   -47305463.487 8 -15708917.950 7
 94  3 22 21 43 29.9990000  0  7 31 15 26 27  2 19  7
  24489864.070   -19581035.513 5  -4468217.554 2
  24022223.930    -4862030.406 5  -5355174.124 2
  23274202.535    -8980067.072 6  -8345200.889 3
  20101555.373   -29406197.545 8 -21952393.984 9
  20812858.368   -23957946.733 9 -18058470.973 9
  21692597.028     7953154.930 7 -10983912.151 6
  21589452.743   -47389395.463 8 -15774319.425 7
 94  3 22 21 43 59.9990000  0  7 31 15 26 27  2 19  7
  24509279.469   -19479017.181 4  -4388722.851 2
  24011571.615    -4918003.065 5  -5398789.132 2
  23260567.284    -9051722.625 6  -8401036.312 3
  20104806.112   -29389131.299 7 -21939095.618 9
  20809220.566   -23977050.994 9 -18073357.405 8
  21703788.790     8011972.781 7 -10938080.103 6
  21573550.822   -47472964.079 7 -15839437.746 7
 94  3 22 21 44 29.9990000  0  6 15 26 27  2 19  7
  24000987.142    -4973620.323 5  -5442127.190 2
  23247008.811    -9122981.208 6  -8456562.450 3
  20108128.952   -29371646.844 7 -21925471.399 9
  20805625.275   -23995951.133 9 -18088084.781 8
  21715033.915     8071076.549 7 -10892025.267 6
  21557711.377   -47556180.758 7 -15904281.844 7
 94  3 22 21 44 59.9990000  0  6 15 26 27  2 19  7
  23990464.337    -5028883.467 5  -5485189.304 2
  23233526.334    -9193838.782 6  -8511776.087 3
  20111537.322   -29353737.664 7 -21911516.176 9
  20802071.356   -24014634.400 9 -18102643.130 8
  21726336.570     8130476.953 7 -10845739.291 6
  21541944.602   -47639036.686 7 -15968844.812 8
 94  3 22 21 45 29.9990000  0  6 15 26 27  2 19  7
  23980021.547    -5083790.290 5  -5527973.778 2
  23220118.806    -9264280.584 6  -8566665.790 3
  20115025.258   -29335412.705 7 -21897236.990 9
  20798556.709   -24033091.791 9 -18117025.514 8
  21737700.173     8190181.924 7 -10799216.001 5
  21526252.715   -47721517.983 7 -16033115.879 8
 94  3 22 21 45 59.9990000  0  6 15 26 27  2 19  7
  23969634.487    -5138339.356 5  -5570479.469 2
  23206793.241    -9334306.396 6  -8621231.307 3
  20118595.576   -29316658.541 7 -21882623.356 9
  20795089.819   -24051319.885 9 -18131229.210 8
  21749118.219     8250184.511 6 -10752460.804 5
  21510628.102   -47803613.187 7 -16097086.108 8
 94  3 22 21 46 29.9990000  0  6 15 26 27  2 19  7
  23959327.892    -5192525.077 5  -5612702.083 2
  23193552.338    -9403905.818 6  -8675464.614 3
  20122243.601   -29297472.202 7 -21867672.964 9
  20791669.067   -24069295.405 9 -18145236.100 8
  21760595.503     8310497.876 6 -10705463.419 5
  21495087.670   -47885312.704 7 -16160748.003 8
 94  3 22 21 46 59.9990000  0  6 15 26 27  2 19  7
  23949086.652    -5246343.525 5  -5654638.440 2
  23180383.864    -9473080.688 6  -8729367.068 3
  20125980.244   -29277857.525 7 -21852388.805 9
  20788293.944   -24087019.649 9 -18159047.174 8
  21772134.875     8371138.456 7 -10658211.052 5
  21479614.482   -47966606.744 7 -16224093.930 8
 94  3 22 21 47 29.9990000  0  6 15 26 27  2 19  7
  23938920.240    -5299798.622 5  -5696291.672 2
  23167302.240    -9541844.717 6  -8782949.400 3
  20129795.493   -29257816.942 7 -21836772.782 9
  20784967.506   -24104509.403 9 -18172675.556 8
  21783735.584     8432096.844 7 -10610711.117 5
  21464214.563   -48047523.754 7 -16287146.070 7
 94  3 22 21 47 59.9990000  0  6 15 26 27  2 19  7
  23928812.678    -5352885.432 5  -5737657.993 2
  23154295.055    -9610201.707 6  -8836214.561 2
  20133689.377   -29237337.655 7 -21820814.895 9
  20781684.599   -24121759.527 9 -18186117.205 8
  21795396.491     8493375.901 7 -10562961.264 4
  21448883.327   -48128078.389 7 -16349915.863 7
 94  3 22 21 48 29.9990000  0  6 15 26 27  2 19  7
  23918778.444    -5405601.070 5  -5778735.074 2
  23141361.079    -9678154.845 6  -8889165.028 2
  20137672.090   -29216422.989 8 -21804517.767 9
  20778444.802   -24138784.854 9 -18199383.691 8
  21807115.528     8554973.872 7 -10514962.921 4
  21433625.510   -48208266.956 7 -16412400.405 7
 94  3 22 21 48 59.9990000  0  6 15 26 27  2 19  7
  23908818.649    -5457947.791 5  -5819524.687 2
  23128503.490    -9745717.274 6  -8941811.022 2
  20141732.928   -29195075.931 8 -21787883.721 9
  20775240.560   -24155622.381 9 -18212503.839 8
  21818898.841     8616873.909 7 -10466729.173 4
  21418436.885   -48288082.560 7 -16474594.322 7
 94  3 22 21 49 29.9990000  0  6 15 26 27  2 19  7
  23898931.554    -5509927.974 5  -5860028.673 2
  23115724.477    -9812885.605 6  -8994149.967 2
  20145876.330   -29173298.271 8 -21770914.133 9
  20772071.994   -24172275.190 9 -18225480.050 9
  21830731.679     8679049.983 7 -10418280.344 4
  21403319.071   -48367533.701 7 -16536504.240 7
 94  3 22 21 49 59.9990000  0  6 15 26 27  2 19  7
  23889108.584    -5561539.623 5  -5900245.459 2
  23103019.872    -9879652.921 6  -9046176.419 2
  20150103.763   -29151096.538 8 -21753614.099 9
  20768939.672   -24188730.810 9 -18238302.624 9
  21842612.304     8741495.427 7 -10369621.618 5
  21388273.207   -48446595.172 7 -16598110.547 7
 94  3 22 21 50 29.9990000  0  6 15 26 27  2 19  7
  23879357.954    -5612776.654 5  -5940170.285 2
  23090394.862    -9946007.183 6  -9097881.015 2
  20154405.216   -29128480.427 9 -21735991.193 9
  20765844.585   -24204987.500 9 -18250970.166 9
  21854549.920     8804215.659 7 -10320748.769 5
  21373304.359   -48525256.119 7 -16659404.755 7
 94  3 22 21 50 59.9990000  0  6 15 26 27  2 19  7
  23869683.682    -5663634.976 5  -5979800.095 2
  23077847.349   -10011934.134 6  -9149252.653 2
  20158783.834   -29105461.755 9 -21718054.587 9
  20762793.597   -24221031.168 8 -18263471.738 9
  21866536.911     8867214.466 7 -10271658.844 5
  21358408.691   -48603534.341 7 -16720400.683 7
 94  3 22 21 51 29.9990000  0  6 15 26 27  2 19  7
  23860072.755    -5714114.213 5  -6019134.522 2
  23065383.477   -10077425.298 6  -9200284.715 2
  20163242.018   -29082043.905 8 -21699806.949 9
  20759786.409   -24236845.858 8 -18275794.870 9
  21878577.656     8930489.259 7 -10222353.872 4
  21343584.224   -48681439.196 8 -16781105.686 7
 94  3 22 21 51 59.9990000  0  6 15 26 27  2 19  7
  23850541.784    -5764212.717 5  -6058172.215 2
  23053002.109   -10142490.155 6  -9250984.613 3
  20167773.741   -29058221.352 8 -21681243.947 8
  20756819.153   -24252433.880 8 -18287941.391 9
  21890673.742     8994046.459 7 -10172828.856 4
  21328831.647   -48758968.050 7 -16841517.730 7
 94  3 22 21 52 29.9990000  0  6 15 26 27  2 19  7
  23841076.736    -5813925.914 5  -6096909.706 2
  23040702.194   -10207128.162 6  -9301351.875 3
  20172386.737   -29033983.512 8 -21662357.343 8
  20753894.918   -24267804.059 8 -18299918.175 9
  21902820.763     9057890.609 7 -10123080.242 4
  21314150.121   -48836123.436 8 -16901638.750 7
 94  3 22 21 52 59.9990000  0  6 15 26 27  2 19  7
  23831690.624    -5863246.776 5  -6135341.386 1
  23028478.156   -10271343.262 6  -9351389.589 3
  20177085.115   -29009301.001 8 -21643124.250 8
  20751012.173   -24282956.125 8 -18311724.970 9
  21915024.444     9122015.246 7 -10073113.049 4
  21299539.406   -48912898.485 8 -16961463.423 7
 94  3 22 21 53 29.9990000  0  6 15 26 27  2 19  7
  23822386.025    -5912174.730 5  -6173467.069 1
  23016341.149   -10335145.303 6  -9401105.455 3
  20181866.594   -28984164.857 8 -21623537.648 7
  20748169.991   -24297885.626 8 -18323358.345 9
  21927277.472     9186420.711 7 -10022927.056 4
  21285006.756   -48989279.715 8 -17020981.206 7
 94  3 22 21 53 59.9990000  0  6 15 26 27  2 19  7
  23813147.441    -5960704.564 5  -6211282.432 1
  23004276.721   -10398537.174 6  -9450501.690 3
  20186736.123   -28958568.854 8 -21603592.734 7
  20745369.420   -24312595.686 8 -18334820.737 9
  21939591.177     9251117.729 7  -9972513.880 4
  21270543.629   -49065259.572 8 -17080186.234 7
 94  3 22 21 54 29.9990000  0  6 15 26 27  2 19  7
  23803995.647    -6008824.977 5  -6248778.777 1
  22992297.014   -10461495.744 6  -9499560.317 3
  20191696.759   -28932518.573 8 -21583293.822 7
  20742613.398   -24327084.431 8 -18346110.670 9
  21951957.886     9316117.109 7  -9921865.064 4
  21256167.022   -49140822.952 8 -17139066.727 7
 94  3 22 21 54 59.9990000  0  6 15 26 27  2 19  7
  23794910.466    -6056533.264 5  -6285953.957 2
  22980400.110   -10524011.338 6  -9548273.724 2
  20196734.861   -28906030.297 8 -21562653.660 7
  20739896.289   -24341353.838 8 -18357229.687 9
  21964383.474     9381411.318 6  -9870986.498 5
  21241867.041   -49215963.846 8 -17197618.008 8
